<?xml version="1.0" encoding="UTF-8" standalone="no" ?>
<gpx xmlns="http://www.topografix.com/GPX/1/1" xmlns:xsi="http://www.w3.org/2001/XMLSchema-instance" xsi:schemaLocation="http://www.topografix.com/GPX/1/1 http://www.topografix.com/GPX/1/1/gpx.xsd" version="1.1" creator="VisuGPX - https://www.visugpx.com">
  <metadata>
    <name>34 - Les Salces / Les Dolmens / Col du Vent</name>
    <desc><![CDATA[Superbe randonnée réservée aux bons marcheurs, en forme de 8 au départ du hameau de Cantagal, commune de St Privat / Les Salces, qui traverse des forêts de Buis et de Pins, avec de magnifiques vues sur la plaine héraultaise et trois superbes dolmens à ne pas manquer.]]></desc>
  </metadata>
  <trk>
    <name><![CDATA[19-JAN-17 LES SALCES - LES DOLMENS]]></name>
    <trkseg>
      <trkpt lat="43.75772" lon="3.44361">
        <ele>337.08</ele>
        <time>2017-01-19T07:50:32Z</time>
      </trkpt>
      <trkpt lat="43.75775" lon="3.44365">
        <ele>341.89</ele>
        <time>2017-01-19T07:50:36Z</time>
      </trkpt>
      <trkpt lat="43.75775" lon="3.44366">
        <ele>350.06</ele>
        <time>2017-01-19T07:50:37Z</time>
      </trkpt>
      <trkpt lat="43.75776" lon="3.44366">
        <ele>354.38</ele>
        <time>2017-01-19T07:50:38Z</time>
      </trkpt>
      <trkpt lat="43.75776" lon="3.44367">
        <ele>354.38</ele>
        <time>2017-01-19T07:50:39Z</time>
      </trkpt>
      <trkpt lat="43.75777" lon="3.44368">
        <ele>358.23</ele>
        <time>2017-01-19T07:50:40Z</time>
      </trkpt>
      <trkpt lat="43.75777" lon="3.4437">
        <ele>363.04</ele>
        <time>2017-01-19T07:50:41Z</time>
      </trkpt>
      <trkpt lat="43.75779" lon="3.44372">
        <ele>369.76</ele>
        <time>2017-01-19T07:50:43Z</time>
      </trkpt>
      <trkpt lat="43.7578" lon="3.44373">
        <ele>372.65</ele>
        <time>2017-01-19T07:50:44Z</time>
      </trkpt>
      <trkpt lat="43.7578" lon="3.44374">
        <ele>376.49</ele>
        <time>2017-01-19T07:50:45Z</time>
      </trkpt>
      <trkpt lat="43.75781" lon="3.44376">
        <ele>379.86</ele>
        <time>2017-01-19T07:50:46Z</time>
      </trkpt>
      <trkpt lat="43.75781" lon="3.44377">
        <ele>382.74</ele>
        <time>2017-01-19T07:50:47Z</time>
      </trkpt>
      <trkpt lat="43.75782" lon="3.44379">
        <ele>386.11</ele>
        <time>2017-01-19T07:50:48Z</time>
      </trkpt>
      <trkpt lat="43.75783" lon="3.4438">
        <ele>389.47</ele>
        <time>2017-01-19T07:50:49Z</time>
      </trkpt>
      <trkpt lat="43.75784" lon="3.44383">
        <ele>394.76</ele>
        <time>2017-01-19T07:50:51Z</time>
      </trkpt>
      <trkpt lat="43.75785" lon="3.44386">
        <ele>400.05</ele>
        <time>2017-01-19T07:50:53Z</time>
      </trkpt>
      <trkpt lat="43.75786" lon="3.44389">
        <ele>404.85</ele>
        <time>2017-01-19T07:50:55Z</time>
      </trkpt>
      <trkpt lat="43.75787" lon="3.44392">
        <ele>409.66</ele>
        <time>2017-01-19T07:50:57Z</time>
      </trkpt>
      <trkpt lat="43.75788" lon="3.44396">
        <ele>413.98</ele>
        <time>2017-01-19T07:50:59Z</time>
      </trkpt>
      <trkpt lat="43.75789" lon="3.44399">
        <ele>418.31</ele>
        <time>2017-01-19T07:51:01Z</time>
      </trkpt>
      <trkpt lat="43.7579" lon="3.44401">
        <ele>423.6</ele>
        <time>2017-01-19T07:51:03Z</time>
      </trkpt>
      <trkpt lat="43.7579" lon="3.44402">
        <ele>423.6</ele>
        <time>2017-01-19T07:51:04Z</time>
      </trkpt>
      <trkpt lat="43.7579" lon="3.44403">
        <ele>426.96</ele>
        <time>2017-01-19T07:51:06Z</time>
      </trkpt>
      <trkpt lat="43.7579" lon="3.44403">
        <ele>431.29</ele>
        <time>2017-01-19T07:51:09Z</time>
      </trkpt>
      <trkpt lat="43.7579" lon="3.44402">
        <ele>435.13</ele>
        <time>2017-01-19T07:51:12Z</time>
      </trkpt>
      <trkpt lat="43.7579" lon="3.44402">
        <ele>438.5</ele>
        <time>2017-01-19T07:51:15Z</time>
      </trkpt>
      <trkpt lat="43.75789" lon="3.44402">
        <ele>441.86</ele>
        <time>2017-01-19T07:51:18Z</time>
      </trkpt>
      <trkpt lat="43.75789" lon="3.44402">
        <ele>444.75</ele>
        <time>2017-01-19T07:51:21Z</time>
      </trkpt>
      <trkpt lat="43.75791" lon="3.44409">
        <ele>450.03</ele>
        <time>2017-01-19T07:51:26Z</time>
      </trkpt>
      <trkpt lat="43.75792" lon="3.44414">
        <ele>451.96</ele>
        <time>2017-01-19T07:51:29Z</time>
      </trkpt>
      <trkpt lat="43.75794" lon="3.44424">
        <ele>456.28</ele>
        <time>2017-01-19T07:51:35Z</time>
      </trkpt>
      <trkpt lat="43.75796" lon="3.44432">
        <ele>460.13</ele>
        <time>2017-01-19T07:51:40Z</time>
      </trkpt>
      <trkpt lat="43.75797" lon="3.4444">
        <ele>463.01</ele>
        <time>2017-01-19T07:51:45Z</time>
      </trkpt>
      <trkpt lat="43.75798" lon="3.44447">
        <ele>465.9</ele>
        <time>2017-01-19T07:51:50Z</time>
      </trkpt>
      <trkpt lat="43.75798" lon="3.44449">
        <ele>466.38</ele>
        <time>2017-01-19T07:51:51Z</time>
      </trkpt>
      <trkpt lat="43.758" lon="3.4446">
        <ele>469.74</ele>
        <time>2017-01-19T07:51:59Z</time>
      </trkpt>
      <trkpt lat="43.758" lon="3.44467">
        <ele>471.18</ele>
        <time>2017-01-19T07:52:04Z</time>
      </trkpt>
      <trkpt lat="43.75801" lon="3.44473">
        <ele>472.14</ele>
        <time>2017-01-19T07:52:08Z</time>
      </trkpt>
      <trkpt lat="43.758" lon="3.44476">
        <ele>473.11</ele>
        <time>2017-01-19T07:52:10Z</time>
      </trkpt>
      <trkpt lat="43.758" lon="3.44479">
        <ele>473.59</ele>
        <time>2017-01-19T07:52:12Z</time>
      </trkpt>
      <trkpt lat="43.758" lon="3.44493">
        <ele>476.47</ele>
        <time>2017-01-19T07:52:24Z</time>
      </trkpt>
      <trkpt lat="43.758" lon="3.44496">
        <ele>476.47</ele>
        <time>2017-01-19T07:52:26Z</time>
      </trkpt>
      <trkpt lat="43.75805" lon="3.44521">
        <ele>479.35</ele>
        <time>2017-01-19T07:52:42Z</time>
      </trkpt>
      <trkpt lat="43.7581" lon="3.44539">
        <ele>481.28</ele>
        <time>2017-01-19T07:52:57Z</time>
      </trkpt>
      <trkpt lat="43.75819" lon="3.44561">
        <ele>483.68</ele>
        <time>2017-01-19T07:53:15Z</time>
      </trkpt>
      <trkpt lat="43.75826" lon="3.44583">
        <ele>485.12</ele>
        <time>2017-01-19T07:53:31Z</time>
      </trkpt>
      <trkpt lat="43.75828" lon="3.44588">
        <ele>485.6</ele>
        <time>2017-01-19T07:53:35Z</time>
      </trkpt>
      <trkpt lat="43.75834" lon="3.44611">
        <ele>486.56</ele>
        <time>2017-01-19T07:53:52Z</time>
      </trkpt>
      <trkpt lat="43.75835" lon="3.44612">
        <ele>487.05</ele>
        <time>2017-01-19T07:53:53Z</time>
      </trkpt>
      <trkpt lat="43.75839" lon="3.44612">
        <ele>488.49</ele>
        <time>2017-01-19T07:53:57Z</time>
      </trkpt>
      <trkpt lat="43.75844" lon="3.44607">
        <ele>488.97</ele>
        <time>2017-01-19T07:54:03Z</time>
      </trkpt>
      <trkpt lat="43.75846" lon="3.44598">
        <ele>489.45</ele>
        <time>2017-01-19T07:54:09Z</time>
      </trkpt>
      <trkpt lat="43.75854" lon="3.44579">
        <ele>491.37</ele>
        <time>2017-01-19T07:54:24Z</time>
      </trkpt>
      <trkpt lat="43.75858" lon="3.4457">
        <ele>491.85</ele>
        <time>2017-01-19T07:54:31Z</time>
      </trkpt>
      <trkpt lat="43.75859" lon="3.44568">
        <ele>492.33</ele>
        <time>2017-01-19T07:54:33Z</time>
      </trkpt>
      <trkpt lat="43.75861" lon="3.44561">
        <ele>492.81</ele>
        <time>2017-01-19T07:54:38Z</time>
      </trkpt>
      <trkpt lat="43.75862" lon="3.44558">
        <ele>493.29</ele>
        <time>2017-01-19T07:54:40Z</time>
      </trkpt>
      <trkpt lat="43.75863" lon="3.44555">
        <ele>493.29</ele>
        <time>2017-01-19T07:54:43Z</time>
      </trkpt>
      <trkpt lat="43.75868" lon="3.44535">
        <ele>494.74</ele>
        <time>2017-01-19T07:54:57Z</time>
      </trkpt>
      <trkpt lat="43.7587" lon="3.44512">
        <ele>496.18</ele>
        <time>2017-01-19T07:55:13Z</time>
      </trkpt>
      <trkpt lat="43.75873" lon="3.4449">
        <ele>497.62</ele>
        <time>2017-01-19T07:55:29Z</time>
      </trkpt>
      <trkpt lat="43.75877" lon="3.44476">
        <ele>499.06</ele>
        <time>2017-01-19T07:55:39Z</time>
      </trkpt>
      <trkpt lat="43.75877" lon="3.44471">
        <ele>499.54</ele>
        <time>2017-01-19T07:55:42Z</time>
      </trkpt>
      <trkpt lat="43.75882" lon="3.44452">
        <ele>500.5</ele>
        <time>2017-01-19T07:55:55Z</time>
      </trkpt>
      <trkpt lat="43.75886" lon="3.44431">
        <ele>501.95</ele>
        <time>2017-01-19T07:56:10Z</time>
      </trkpt>
      <trkpt lat="43.75888" lon="3.44424">
        <ele>502.43</ele>
        <time>2017-01-19T07:56:15Z</time>
      </trkpt>
      <trkpt lat="43.75894" lon="3.44411">
        <ele>503.39</ele>
        <time>2017-01-19T07:56:24Z</time>
      </trkpt>
      <trkpt lat="43.75899" lon="3.444">
        <ele>504.35</ele>
        <time>2017-01-19T07:56:33Z</time>
      </trkpt>
      <trkpt lat="43.75909" lon="3.44386">
        <ele>506.27</ele>
        <time>2017-01-19T07:56:47Z</time>
      </trkpt>
      <trkpt lat="43.75912" lon="3.44383">
        <ele>506.75</ele>
        <time>2017-01-19T07:56:50Z</time>
      </trkpt>
      <trkpt lat="43.75914" lon="3.44379">
        <ele>507.23</ele>
        <time>2017-01-19T07:56:54Z</time>
      </trkpt>
      <trkpt lat="43.75918" lon="3.44377">
        <ele>507.23</ele>
        <time>2017-01-19T07:56:58Z</time>
      </trkpt>
      <trkpt lat="43.75931" lon="3.44367">
        <ele>508.67</ele>
        <time>2017-01-19T07:57:11Z</time>
      </trkpt>
      <trkpt lat="43.75937" lon="3.44359">
        <ele>509.16</ele>
        <time>2017-01-19T07:57:19Z</time>
      </trkpt>
      <trkpt lat="43.75943" lon="3.44353">
        <ele>510.12</ele>
        <time>2017-01-19T07:57:26Z</time>
      </trkpt>
      <trkpt lat="43.75945" lon="3.44352">
        <ele>510.6</ele>
        <time>2017-01-19T07:57:28Z</time>
      </trkpt>
      <trkpt lat="43.7595" lon="3.44348">
        <ele>511.08</ele>
        <time>2017-01-19T07:57:34Z</time>
      </trkpt>
      <trkpt lat="43.75954" lon="3.44349">
        <ele>511.56</ele>
        <time>2017-01-19T07:57:38Z</time>
      </trkpt>
      <trkpt lat="43.75962" lon="3.44351">
        <ele>512.52</ele>
        <time>2017-01-19T07:57:50Z</time>
      </trkpt>
      <trkpt lat="43.75965" lon="3.44351">
        <ele>512.52</ele>
        <time>2017-01-19T07:57:53Z</time>
      </trkpt>
      <trkpt lat="43.75975" lon="3.44353">
        <ele>513.48</ele>
        <time>2017-01-19T07:58:02Z</time>
      </trkpt>
      <trkpt lat="43.75979" lon="3.44354">
        <ele>514.44</ele>
        <time>2017-01-19T07:58:07Z</time>
      </trkpt>
      <trkpt lat="43.75989" lon="3.44354">
        <ele>514.92</ele>
        <time>2017-01-19T07:58:18Z</time>
      </trkpt>
      <trkpt lat="43.75987" lon="3.44355">
        <ele>514.92</ele>
        <time>2017-01-19T07:58:33Z</time>
      </trkpt>
      <trkpt lat="43.75986" lon="3.44352">
        <ele>514.44</ele>
        <time>2017-01-19T07:58:55Z</time>
      </trkpt>
      <trkpt lat="43.7599" lon="3.44354">
        <ele>514.92</ele>
        <time>2017-01-19T07:59:19Z</time>
      </trkpt>
      <trkpt lat="43.75995" lon="3.44356">
        <ele>515.4</ele>
        <time>2017-01-19T07:59:23Z</time>
      </trkpt>
      <trkpt lat="43.76008" lon="3.44367">
        <ele>515.88</ele>
        <time>2017-01-19T07:59:36Z</time>
      </trkpt>
      <trkpt lat="43.76009" lon="3.44368">
        <ele>515.88</ele>
        <time>2017-01-19T07:59:37Z</time>
      </trkpt>
      <trkpt lat="43.76021" lon="3.44378">
        <ele>517.33</ele>
        <time>2017-01-19T07:59:48Z</time>
      </trkpt>
      <trkpt lat="43.76022" lon="3.44378">
        <ele>516.85</ele>
        <time>2017-01-19T07:59:49Z</time>
      </trkpt>
      <trkpt lat="43.76025" lon="3.4438">
        <ele>517.33</ele>
        <time>2017-01-19T07:59:52Z</time>
      </trkpt>
      <trkpt lat="43.76038" lon="3.44385">
        <ele>518.29</ele>
        <time>2017-01-19T08:00:03Z</time>
      </trkpt>
      <trkpt lat="43.76048" lon="3.44387">
        <ele>519.25</ele>
        <time>2017-01-19T08:00:12Z</time>
      </trkpt>
      <trkpt lat="43.76055" lon="3.44387">
        <ele>519.73</ele>
        <time>2017-01-19T08:00:19Z</time>
      </trkpt>
      <trkpt lat="43.7607" lon="3.44387">
        <ele>521.65</ele>
        <time>2017-01-19T08:00:33Z</time>
      </trkpt>
      <trkpt lat="43.76084" lon="3.44389">
        <ele>522.13</ele>
        <time>2017-01-19T08:00:45Z</time>
      </trkpt>
      <trkpt lat="43.76087" lon="3.44389">
        <ele>522.61</ele>
        <time>2017-01-19T08:00:48Z</time>
      </trkpt>
      <trkpt lat="43.76092" lon="3.44394">
        <ele>522.61</ele>
        <time>2017-01-19T08:00:53Z</time>
      </trkpt>
      <trkpt lat="43.761" lon="3.444">
        <ele>523.09</ele>
        <time>2017-01-19T08:01:01Z</time>
      </trkpt>
      <trkpt lat="43.76117" lon="3.44408">
        <ele>525.02</ele>
        <time>2017-01-19T08:01:16Z</time>
      </trkpt>
      <trkpt lat="43.76123" lon="3.44409">
        <ele>525.02</ele>
        <time>2017-01-19T08:01:20Z</time>
      </trkpt>
      <trkpt lat="43.76127" lon="3.44412">
        <ele>525.5</ele>
        <time>2017-01-19T08:01:24Z</time>
      </trkpt>
      <trkpt lat="43.76131" lon="3.44414">
        <ele>525.98</ele>
        <time>2017-01-19T08:01:28Z</time>
      </trkpt>
      <trkpt lat="43.76137" lon="3.44417">
        <ele>526.46</ele>
        <time>2017-01-19T08:01:33Z</time>
      </trkpt>
      <trkpt lat="43.7614" lon="3.4442">
        <ele>526.46</ele>
        <time>2017-01-19T08:01:36Z</time>
      </trkpt>
      <trkpt lat="43.76153" lon="3.44431">
        <ele>527.9</ele>
        <time>2017-01-19T08:01:50Z</time>
      </trkpt>
      <trkpt lat="43.76154" lon="3.44432">
        <ele>528.38</ele>
        <time>2017-01-19T08:01:51Z</time>
      </trkpt>
      <trkpt lat="43.76155" lon="3.44435">
        <ele>527.9</ele>
        <time>2017-01-19T08:01:53Z</time>
      </trkpt>
      <trkpt lat="43.76158" lon="3.44438">
        <ele>528.86</ele>
        <time>2017-01-19T08:02:01Z</time>
      </trkpt>
      <trkpt lat="43.7616" lon="3.44441">
        <ele>528.86</ele>
        <time>2017-01-19T08:02:04Z</time>
      </trkpt>
      <trkpt lat="43.76173" lon="3.44457">
        <ele>530.3</ele>
        <time>2017-01-19T08:02:18Z</time>
      </trkpt>
      <trkpt lat="43.76174" lon="3.44458">
        <ele>530.3</ele>
        <time>2017-01-19T08:02:19Z</time>
      </trkpt>
      <trkpt lat="43.76187" lon="3.44461">
        <ele>530.79</ele>
        <time>2017-01-19T08:02:30Z</time>
      </trkpt>
      <trkpt lat="43.7619" lon="3.4446">
        <ele>531.27</ele>
        <time>2017-01-19T08:02:33Z</time>
      </trkpt>
      <trkpt lat="43.76195" lon="3.44457">
        <ele>531.27</ele>
        <time>2017-01-19T08:02:37Z</time>
      </trkpt>
      <trkpt lat="43.76199" lon="3.44455">
        <ele>531.27</ele>
        <time>2017-01-19T08:02:40Z</time>
      </trkpt>
      <trkpt lat="43.76206" lon="3.44445">
        <ele>532.23</ele>
        <time>2017-01-19T08:02:48Z</time>
      </trkpt>
      <trkpt lat="43.76208" lon="3.4444">
        <ele>532.23</ele>
        <time>2017-01-19T08:02:52Z</time>
      </trkpt>
      <trkpt lat="43.76212" lon="3.44433">
        <ele>532.71</ele>
        <time>2017-01-19T08:02:58Z</time>
      </trkpt>
      <trkpt lat="43.76223" lon="3.44428">
        <ele>533.67</ele>
        <time>2017-01-19T08:03:07Z</time>
      </trkpt>
      <trkpt lat="43.76237" lon="3.44429">
        <ele>534.63</ele>
        <time>2017-01-19T08:03:19Z</time>
      </trkpt>
      <trkpt lat="43.76238" lon="3.44429">
        <ele>534.63</ele>
        <time>2017-01-19T08:03:20Z</time>
      </trkpt>
      <trkpt lat="43.76246" lon="3.44429">
        <ele>535.59</ele>
        <time>2017-01-19T08:03:27Z</time>
      </trkpt>
      <trkpt lat="43.7626" lon="3.44426">
        <ele>537.03</ele>
        <time>2017-01-19T08:03:40Z</time>
      </trkpt>
      <trkpt lat="43.76265" lon="3.44425">
        <ele>537.03</ele>
        <time>2017-01-19T08:03:44Z</time>
      </trkpt>
      <trkpt lat="43.76268" lon="3.44423">
        <ele>537.51</ele>
        <time>2017-01-19T08:03:47Z</time>
      </trkpt>
      <trkpt lat="43.76271" lon="3.44421">
        <ele>537.51</ele>
        <time>2017-01-19T08:03:50Z</time>
      </trkpt>
      <trkpt lat="43.76276" lon="3.44417">
        <ele>537.99</ele>
        <time>2017-01-19T08:03:55Z</time>
      </trkpt>
      <trkpt lat="43.7628" lon="3.44411">
        <ele>538.96</ele>
        <time>2017-01-19T08:04:00Z</time>
      </trkpt>
      <trkpt lat="43.76286" lon="3.44406">
        <ele>538.96</ele>
        <time>2017-01-19T08:04:05Z</time>
      </trkpt>
      <trkpt lat="43.76295" lon="3.44391">
        <ele>539.92</ele>
        <time>2017-01-19T08:04:18Z</time>
      </trkpt>
      <trkpt lat="43.76303" lon="3.44374">
        <ele>539.92</ele>
        <time>2017-01-19T08:04:30Z</time>
      </trkpt>
      <trkpt lat="43.76305" lon="3.44365">
        <ele>539.92</ele>
        <time>2017-01-19T08:04:35Z</time>
      </trkpt>
      <trkpt lat="43.76309" lon="3.44361">
        <ele>539.92</ele>
        <time>2017-01-19T08:04:39Z</time>
      </trkpt>
      <trkpt lat="43.76315" lon="3.4435">
        <ele>539.44</ele>
        <time>2017-01-19T08:04:47Z</time>
      </trkpt>
      <trkpt lat="43.76321" lon="3.44342">
        <ele>538.48</ele>
        <time>2017-01-19T08:04:55Z</time>
      </trkpt>
      <trkpt lat="43.76331" lon="3.44331">
        <ele>537.99</ele>
        <time>2017-01-19T08:05:05Z</time>
      </trkpt>
      <trkpt lat="43.76334" lon="3.44323">
        <ele>537.51</ele>
        <time>2017-01-19T08:05:10Z</time>
      </trkpt>
      <trkpt lat="43.76345" lon="3.44312">
        <ele>536.55</ele>
        <time>2017-01-19T08:05:19Z</time>
      </trkpt>
      <trkpt lat="43.76346" lon="3.44309">
        <ele>536.07</ele>
        <time>2017-01-19T08:05:21Z</time>
      </trkpt>
      <trkpt lat="43.76348" lon="3.44299">
        <ele>535.59</ele>
        <time>2017-01-19T08:05:26Z</time>
      </trkpt>
      <trkpt lat="43.76349" lon="3.44295">
        <ele>535.11</ele>
        <time>2017-01-19T08:05:28Z</time>
      </trkpt>
      <trkpt lat="43.76352" lon="3.44274">
        <ele>534.15</ele>
        <time>2017-01-19T08:05:40Z</time>
      </trkpt>
      <trkpt lat="43.76353" lon="3.44266">
        <ele>533.67</ele>
        <time>2017-01-19T08:05:44Z</time>
      </trkpt>
      <trkpt lat="43.76354" lon="3.4425">
        <ele>532.71</ele>
        <time>2017-01-19T08:05:54Z</time>
      </trkpt>
      <trkpt lat="43.76357" lon="3.44244">
        <ele>532.23</ele>
        <time>2017-01-19T08:05:58Z</time>
      </trkpt>
      <trkpt lat="43.7636" lon="3.44238">
        <ele>531.75</ele>
        <time>2017-01-19T08:06:02Z</time>
      </trkpt>
      <trkpt lat="43.76363" lon="3.44232">
        <ele>531.27</ele>
        <time>2017-01-19T08:06:07Z</time>
      </trkpt>
      <trkpt lat="43.76377" lon="3.44226">
        <ele>529.82</ele>
        <time>2017-01-19T08:06:19Z</time>
      </trkpt>
      <trkpt lat="43.7638" lon="3.44227">
        <ele>529.82</ele>
        <time>2017-01-19T08:06:22Z</time>
      </trkpt>
      <trkpt lat="43.76396" lon="3.44229">
        <ele>527.42</ele>
        <time>2017-01-19T08:06:34Z</time>
      </trkpt>
      <trkpt lat="43.76413" lon="3.44231">
        <ele>526.46</ele>
        <time>2017-01-19T08:06:47Z</time>
      </trkpt>
      <trkpt lat="43.76415" lon="3.44232">
        <ele>526.46</ele>
        <time>2017-01-19T08:06:49Z</time>
      </trkpt>
      <trkpt lat="43.76427" lon="3.44226">
        <ele>526.46</ele>
        <time>2017-01-19T08:06:58Z</time>
      </trkpt>
      <trkpt lat="43.76432" lon="3.44217">
        <ele>526.46</ele>
        <time>2017-01-19T08:07:11Z</time>
      </trkpt>
      <trkpt lat="43.76437" lon="3.44215">
        <ele>526.94</ele>
        <time>2017-01-19T08:07:18Z</time>
      </trkpt>
      <trkpt lat="43.76439" lon="3.44208">
        <ele>529.34</ele>
        <time>2017-01-19T08:07:33Z</time>
      </trkpt>
      <trkpt lat="43.76442" lon="3.44203">
        <ele>530.79</ele>
        <time>2017-01-19T08:07:47Z</time>
      </trkpt>
      <trkpt lat="43.76443" lon="3.442">
        <ele>532.23</ele>
        <time>2017-01-19T08:07:57Z</time>
      </trkpt>
      <trkpt lat="43.76448" lon="3.44202">
        <ele>533.67</ele>
        <time>2017-01-19T08:08:09Z</time>
      </trkpt>
      <trkpt lat="43.76451" lon="3.44201">
        <ele>534.63</ele>
        <time>2017-01-19T08:08:26Z</time>
      </trkpt>
      <trkpt lat="43.76452" lon="3.44194">
        <ele>537.51</ele>
        <time>2017-01-19T08:08:39Z</time>
      </trkpt>
      <trkpt lat="43.76452" lon="3.44187">
        <ele>538.48</ele>
        <time>2017-01-19T08:08:54Z</time>
      </trkpt>
      <trkpt lat="43.76454" lon="3.44184">
        <ele>539.92</ele>
        <time>2017-01-19T08:09:05Z</time>
      </trkpt>
      <trkpt lat="43.76456" lon="3.44187">
        <ele>541.84</ele>
        <time>2017-01-19T08:09:17Z</time>
      </trkpt>
      <trkpt lat="43.76459" lon="3.44193">
        <ele>544.72</ele>
        <time>2017-01-19T08:09:29Z</time>
      </trkpt>
      <trkpt lat="43.76464" lon="3.44193">
        <ele>546.17</ele>
        <time>2017-01-19T08:09:43Z</time>
      </trkpt>
      <trkpt lat="43.76466" lon="3.44187">
        <ele>549.05</ele>
        <time>2017-01-19T08:09:58Z</time>
      </trkpt>
      <trkpt lat="43.76468" lon="3.44183">
        <ele>550.97</ele>
        <time>2017-01-19T08:10:12Z</time>
      </trkpt>
      <trkpt lat="43.76473" lon="3.44185">
        <ele>553.38</ele>
        <time>2017-01-19T08:10:30Z</time>
      </trkpt>
      <trkpt lat="43.76476" lon="3.4419">
        <ele>554.34</ele>
        <time>2017-01-19T08:10:40Z</time>
      </trkpt>
      <trkpt lat="43.7648" lon="3.44187">
        <ele>556.74</ele>
        <time>2017-01-19T08:10:56Z</time>
      </trkpt>
      <trkpt lat="43.76484" lon="3.44192">
        <ele>559.62</ele>
        <time>2017-01-19T08:11:10Z</time>
      </trkpt>
      <trkpt lat="43.76486" lon="3.44193">
        <ele>559.62</ele>
        <time>2017-01-19T08:11:21Z</time>
      </trkpt>
      <trkpt lat="43.76487" lon="3.4419">
        <ele>559.62</ele>
        <time>2017-01-19T08:11:38Z</time>
      </trkpt>
      <trkpt lat="43.76487" lon="3.44194">
        <ele>560.11</ele>
        <time>2017-01-19T08:11:57Z</time>
      </trkpt>
      <trkpt lat="43.76488" lon="3.44202">
        <ele>560.59</ele>
        <time>2017-01-19T08:12:14Z</time>
      </trkpt>
      <trkpt lat="43.76491" lon="3.44213">
        <ele>562.03</ele>
        <time>2017-01-19T08:12:27Z</time>
      </trkpt>
      <trkpt lat="43.765" lon="3.44216">
        <ele>563.47</ele>
        <time>2017-01-19T08:12:41Z</time>
      </trkpt>
      <trkpt lat="43.76511" lon="3.44216">
        <ele>564.91</ele>
        <time>2017-01-19T08:12:56Z</time>
      </trkpt>
      <trkpt lat="43.76521" lon="3.44221">
        <ele>566.35</ele>
        <time>2017-01-19T08:13:11Z</time>
      </trkpt>
      <trkpt lat="43.76529" lon="3.44228">
        <ele>569.72</ele>
        <time>2017-01-19T08:13:25Z</time>
      </trkpt>
      <trkpt lat="43.76536" lon="3.44238">
        <ele>572.6</ele>
        <time>2017-01-19T08:13:41Z</time>
      </trkpt>
      <trkpt lat="43.76542" lon="3.44244">
        <ele>575.49</ele>
        <time>2017-01-19T08:13:57Z</time>
      </trkpt>
      <trkpt lat="43.76548" lon="3.44244">
        <ele>577.89</ele>
        <time>2017-01-19T08:14:10Z</time>
      </trkpt>
      <trkpt lat="43.76549" lon="3.44246">
        <ele>578.85</ele>
        <time>2017-01-19T08:14:14Z</time>
      </trkpt>
      <trkpt lat="43.76557" lon="3.44249">
        <ele>581.25</ele>
        <time>2017-01-19T08:14:28Z</time>
      </trkpt>
      <trkpt lat="43.7656" lon="3.44245">
        <ele>583.66</ele>
        <time>2017-01-19T08:14:45Z</time>
      </trkpt>
      <trkpt lat="43.76565" lon="3.44248">
        <ele>585.58</ele>
        <time>2017-01-19T08:15:03Z</time>
      </trkpt>
      <trkpt lat="43.76574" lon="3.44251">
        <ele>587.98</ele>
        <time>2017-01-19T08:15:19Z</time>
      </trkpt>
      <trkpt lat="43.76583" lon="3.44255">
        <ele>590.87</ele>
        <time>2017-01-19T08:15:35Z</time>
      </trkpt>
      <trkpt lat="43.76596" lon="3.44259">
        <ele>593.27</ele>
        <time>2017-01-19T08:15:51Z</time>
      </trkpt>
      <trkpt lat="43.76605" lon="3.44263">
        <ele>595.67</ele>
        <time>2017-01-19T08:16:05Z</time>
      </trkpt>
      <trkpt lat="43.76604" lon="3.44258">
        <ele>597.6</ele>
        <time>2017-01-19T08:16:21Z</time>
      </trkpt>
      <trkpt lat="43.76607" lon="3.44254">
        <ele>600.48</ele>
        <time>2017-01-19T08:16:36Z</time>
      </trkpt>
      <trkpt lat="43.76612" lon="3.44254">
        <ele>603.36</ele>
        <time>2017-01-19T08:16:51Z</time>
      </trkpt>
      <trkpt lat="43.76616" lon="3.44255">
        <ele>605.77</ele>
        <time>2017-01-19T08:17:06Z</time>
      </trkpt>
      <trkpt lat="43.76625" lon="3.44259">
        <ele>608.65</ele>
        <time>2017-01-19T08:17:23Z</time>
      </trkpt>
      <trkpt lat="43.76632" lon="3.44255">
        <ele>612.02</ele>
        <time>2017-01-19T08:17:40Z</time>
      </trkpt>
      <trkpt lat="43.76639" lon="3.44252">
        <ele>614.9</ele>
        <time>2017-01-19T08:17:57Z</time>
      </trkpt>
      <trkpt lat="43.76648" lon="3.44252">
        <ele>617.3</ele>
        <time>2017-01-19T08:18:14Z</time>
      </trkpt>
      <trkpt lat="43.7666" lon="3.44252">
        <ele>620.19</ele>
        <time>2017-01-19T08:18:30Z</time>
      </trkpt>
      <trkpt lat="43.76667" lon="3.44248">
        <ele>622.11</ele>
        <time>2017-01-19T08:18:45Z</time>
      </trkpt>
      <trkpt lat="43.76668" lon="3.44245">
        <ele>622.59</ele>
        <time>2017-01-19T08:18:57Z</time>
      </trkpt>
      <trkpt lat="43.76667" lon="3.44244">
        <ele>622.59</ele>
        <time>2017-01-19T08:19:19Z</time>
      </trkpt>
      <trkpt lat="43.76666" lon="3.44246">
        <ele>622.59</ele>
        <time>2017-01-19T08:19:47Z</time>
      </trkpt>
      <trkpt lat="43.76663" lon="3.44254">
        <ele>622.59</ele>
        <time>2017-01-19T08:20:13Z</time>
      </trkpt>
      <trkpt lat="43.76659" lon="3.44258">
        <ele>623.07</ele>
        <time>2017-01-19T08:20:41Z</time>
      </trkpt>
      <trkpt lat="43.76663" lon="3.44254">
        <ele>622.59</ele>
        <time>2017-01-19T08:20:54Z</time>
      </trkpt>
      <trkpt lat="43.76677" lon="3.44244">
        <ele>625.47</ele>
        <time>2017-01-19T08:21:07Z</time>
      </trkpt>
      <trkpt lat="43.76689" lon="3.44236">
        <ele>628.36</ele>
        <time>2017-01-19T08:21:23Z</time>
      </trkpt>
      <trkpt lat="43.76697" lon="3.44226">
        <ele>631.24</ele>
        <time>2017-01-19T08:21:37Z</time>
      </trkpt>
      <trkpt lat="43.76696" lon="3.44218">
        <ele>633.65</ele>
        <time>2017-01-19T08:21:51Z</time>
      </trkpt>
      <trkpt lat="43.7669" lon="3.44216">
        <ele>634.13</ele>
        <time>2017-01-19T08:22:02Z</time>
      </trkpt>
      <trkpt lat="43.7669" lon="3.44205">
        <ele>637.49</ele>
        <time>2017-01-19T08:22:16Z</time>
      </trkpt>
      <trkpt lat="43.76689" lon="3.44195">
        <ele>640.38</ele>
        <time>2017-01-19T08:22:29Z</time>
      </trkpt>
      <trkpt lat="43.76698" lon="3.44188">
        <ele>643.26</ele>
        <time>2017-01-19T08:22:46Z</time>
      </trkpt>
      <trkpt lat="43.76701" lon="3.44178">
        <ele>646.62</ele>
        <time>2017-01-19T08:23:01Z</time>
      </trkpt>
      <trkpt lat="43.76694" lon="3.44172">
        <ele>649.51</ele>
        <time>2017-01-19T08:23:17Z</time>
      </trkpt>
      <trkpt lat="43.76685" lon="3.44176">
        <ele>649.99</ele>
        <time>2017-01-19T08:23:31Z</time>
      </trkpt>
      <trkpt lat="43.76676" lon="3.44175">
        <ele>651.43</ele>
        <time>2017-01-19T08:23:45Z</time>
      </trkpt>
      <trkpt lat="43.7666" lon="3.44166">
        <ele>654.31</ele>
        <time>2017-01-19T08:24:06Z</time>
      </trkpt>
      <trkpt lat="43.76653" lon="3.44163">
        <ele>654.31</ele>
        <time>2017-01-19T08:24:18Z</time>
      </trkpt>
      <trkpt lat="43.76647" lon="3.44163">
        <ele>654.31</ele>
        <time>2017-01-19T08:24:29Z</time>
      </trkpt>
      <trkpt lat="43.76645" lon="3.44164">
        <ele>653.83</ele>
        <time>2017-01-19T08:24:42Z</time>
      </trkpt>
      <trkpt lat="43.76647" lon="3.44164">
        <ele>653.83</ele>
        <time>2017-01-19T08:24:55Z</time>
      </trkpt>
      <trkpt lat="43.76647" lon="3.44163">
        <ele>653.83</ele>
        <time>2017-01-19T08:25:13Z</time>
      </trkpt>
      <trkpt lat="43.76648" lon="3.44163">
        <ele>653.83</ele>
        <time>2017-01-19T08:25:40Z</time>
      </trkpt>
      <trkpt lat="43.76649" lon="3.44162">
        <ele>653.35</ele>
        <time>2017-01-19T08:25:54Z</time>
      </trkpt>
      <trkpt lat="43.7665" lon="3.44162">
        <ele>653.35</ele>
        <time>2017-01-19T08:26:28Z</time>
      </trkpt>
      <trkpt lat="43.76651" lon="3.44162">
        <ele>654.31</ele>
        <time>2017-01-19T08:26:52Z</time>
      </trkpt>
      <trkpt lat="43.7665" lon="3.44164">
        <ele>654.31</ele>
        <time>2017-01-19T08:27:12Z</time>
      </trkpt>
      <trkpt lat="43.76651" lon="3.44163">
        <ele>654.31</ele>
        <time>2017-01-19T08:27:33Z</time>
      </trkpt>
      <trkpt lat="43.76644" lon="3.44159">
        <ele>653.83</ele>
        <time>2017-01-19T08:27:43Z</time>
      </trkpt>
      <trkpt lat="43.76642" lon="3.44159">
        <ele>653.83</ele>
        <time>2017-01-19T08:28:00Z</time>
      </trkpt>
      <trkpt lat="43.76642" lon="3.4416">
        <ele>653.83</ele>
        <time>2017-01-19T08:28:31Z</time>
      </trkpt>
      <trkpt lat="43.76642" lon="3.44159">
        <ele>653.83</ele>
        <time>2017-01-19T08:28:57Z</time>
      </trkpt>
      <trkpt lat="43.76642" lon="3.44158">
        <ele>653.83</ele>
        <time>2017-01-19T08:29:20Z</time>
      </trkpt>
      <trkpt lat="43.76645" lon="3.44158">
        <ele>654.31</ele>
        <time>2017-01-19T08:29:40Z</time>
      </trkpt>
      <trkpt lat="43.76644" lon="3.44159">
        <ele>654.31</ele>
        <time>2017-01-19T08:29:44Z</time>
      </trkpt>
      <trkpt lat="43.76645" lon="3.44161">
        <ele>654.31</ele>
        <time>2017-01-19T08:29:58Z</time>
      </trkpt>
      <trkpt lat="43.76646" lon="3.44162">
        <ele>654.8</ele>
        <time>2017-01-19T08:29:59Z</time>
      </trkpt>
      <trkpt lat="43.76649" lon="3.44164">
        <ele>654.31</ele>
        <time>2017-01-19T08:30:13Z</time>
      </trkpt>
      <trkpt lat="43.76648" lon="3.44164">
        <ele>654.31</ele>
        <time>2017-01-19T08:30:17Z</time>
      </trkpt>
      <trkpt lat="43.76656" lon="3.44164">
        <ele>654.8</ele>
        <time>2017-01-19T08:30:30Z</time>
      </trkpt>
      <trkpt lat="43.76661" lon="3.44152">
        <ele>656.72</ele>
        <time>2017-01-19T08:30:41Z</time>
      </trkpt>
      <trkpt lat="43.76665" lon="3.44144">
        <ele>658.64</ele>
        <time>2017-01-19T08:30:51Z</time>
      </trkpt>
      <trkpt lat="43.76671" lon="3.44134">
        <ele>661.04</ele>
        <time>2017-01-19T08:31:02Z</time>
      </trkpt>
      <trkpt lat="43.76679" lon="3.44126">
        <ele>663.45</ele>
        <time>2017-01-19T08:31:14Z</time>
      </trkpt>
      <trkpt lat="43.76687" lon="3.44112">
        <ele>666.33</ele>
        <time>2017-01-19T08:31:29Z</time>
      </trkpt>
      <trkpt lat="43.7669" lon="3.4411">
        <ele>666.81</ele>
        <time>2017-01-19T08:31:33Z</time>
      </trkpt>
      <trkpt lat="43.76699" lon="3.44099">
        <ele>670.66</ele>
        <time>2017-01-19T08:31:46Z</time>
      </trkpt>
      <trkpt lat="43.76702" lon="3.44086">
        <ele>671.14</ele>
        <time>2017-01-19T08:31:58Z</time>
      </trkpt>
      <trkpt lat="43.76705" lon="3.44071">
        <ele>673.06</ele>
        <time>2017-01-19T08:32:11Z</time>
      </trkpt>
      <trkpt lat="43.76705" lon="3.44063">
        <ele>673.54</ele>
        <time>2017-01-19T08:32:27Z</time>
      </trkpt>
      <trkpt lat="43.76703" lon="3.4406">
        <ele>673.06</ele>
        <time>2017-01-19T08:32:52Z</time>
      </trkpt>
      <trkpt lat="43.76703" lon="3.44058">
        <ele>673.06</ele>
        <time>2017-01-19T08:33:25Z</time>
      </trkpt>
      <trkpt lat="43.76702" lon="3.44054">
        <ele>673.06</ele>
        <time>2017-01-19T08:33:48Z</time>
      </trkpt>
      <trkpt lat="43.76701" lon="3.44051">
        <ele>673.06</ele>
        <time>2017-01-19T08:34:12Z</time>
      </trkpt>
      <trkpt lat="43.76705" lon="3.44045">
        <ele>673.54</ele>
        <time>2017-01-19T08:34:25Z</time>
      </trkpt>
      <trkpt lat="43.76712" lon="3.44046">
        <ele>674.02</ele>
        <time>2017-01-19T08:34:41Z</time>
      </trkpt>
      <trkpt lat="43.76716" lon="3.44049">
        <ele>674.5</ele>
        <time>2017-01-19T08:35:01Z</time>
      </trkpt>
      <trkpt lat="43.76719" lon="3.44051">
        <ele>674.98</ele>
        <time>2017-01-19T08:35:22Z</time>
      </trkpt>
      <trkpt lat="43.76721" lon="3.44047">
        <ele>674.98</ele>
        <time>2017-01-19T08:35:41Z</time>
      </trkpt>
      <trkpt lat="43.76718" lon="3.44045">
        <ele>674.5</ele>
        <time>2017-01-19T08:35:55Z</time>
      </trkpt>
      <trkpt lat="43.76722" lon="3.44047">
        <ele>674.98</ele>
        <time>2017-01-19T08:36:23Z</time>
      </trkpt>
      <trkpt lat="43.76718" lon="3.44048">
        <ele>674.5</ele>
        <time>2017-01-19T08:36:46Z</time>
      </trkpt>
      <trkpt lat="43.7672" lon="3.44047">
        <ele>674.5</ele>
        <time>2017-01-19T08:37:08Z</time>
      </trkpt>
      <trkpt lat="43.76719" lon="3.44047">
        <ele>674.02</ele>
        <time>2017-01-19T08:37:30Z</time>
      </trkpt>
      <trkpt lat="43.76722" lon="3.4404">
        <ele>674.02</ele>
        <time>2017-01-19T08:37:46Z</time>
      </trkpt>
      <trkpt lat="43.76725" lon="3.44034">
        <ele>675.94</ele>
        <time>2017-01-19T08:38:01Z</time>
      </trkpt>
      <trkpt lat="43.76728" lon="3.44034">
        <ele>676.91</ele>
        <time>2017-01-19T08:38:18Z</time>
      </trkpt>
      <trkpt lat="43.76733" lon="3.44032">
        <ele>677.39</ele>
        <time>2017-01-19T08:38:32Z</time>
      </trkpt>
      <trkpt lat="43.76734" lon="3.44033">
        <ele>676.91</ele>
        <time>2017-01-19T08:38:48Z</time>
      </trkpt>
      <trkpt lat="43.76732" lon="3.44033">
        <ele>676.91</ele>
        <time>2017-01-19T08:39:10Z</time>
      </trkpt>
      <trkpt lat="43.76732" lon="3.44033">
        <ele>676.91</ele>
        <time>2017-01-19T08:39:32Z</time>
      </trkpt>
      <trkpt lat="43.7673" lon="3.44033">
        <ele>677.39</ele>
        <time>2017-01-19T08:39:39Z</time>
      </trkpt>
      <trkpt lat="43.76726" lon="3.44036">
        <ele>674.98</ele>
        <time>2017-01-19T08:39:54Z</time>
      </trkpt>
      <trkpt lat="43.76729" lon="3.44043">
        <ele>675.46</ele>
        <time>2017-01-19T08:40:11Z</time>
      </trkpt>
      <trkpt lat="43.76735" lon="3.4405">
        <ele>676.91</ele>
        <time>2017-01-19T08:40:29Z</time>
      </trkpt>
      <trkpt lat="43.76747" lon="3.44055">
        <ele>678.83</ele>
        <time>2017-01-19T08:40:48Z</time>
      </trkpt>
      <trkpt lat="43.76757" lon="3.44053">
        <ele>680.27</ele>
        <time>2017-01-19T08:41:01Z</time>
      </trkpt>
      <trkpt lat="43.76766" lon="3.44051">
        <ele>681.23</ele>
        <time>2017-01-19T08:41:13Z</time>
      </trkpt>
      <trkpt lat="43.76774" lon="3.44053">
        <ele>682.19</ele>
        <time>2017-01-19T08:41:27Z</time>
      </trkpt>
      <trkpt lat="43.76777" lon="3.4405">
        <ele>682.19</ele>
        <time>2017-01-19T08:41:41Z</time>
      </trkpt>
      <trkpt lat="43.76783" lon="3.44044">
        <ele>682.67</ele>
        <time>2017-01-19T08:41:54Z</time>
      </trkpt>
      <trkpt lat="43.76785" lon="3.44044">
        <ele>682.67</ele>
        <time>2017-01-19T08:42:06Z</time>
      </trkpt>
      <trkpt lat="43.76793" lon="3.44048">
        <ele>684.12</ele>
        <time>2017-01-19T08:42:19Z</time>
      </trkpt>
      <trkpt lat="43.76796" lon="3.4405">
        <ele>684.12</ele>
        <time>2017-01-19T08:42:31Z</time>
      </trkpt>
      <trkpt lat="43.76798" lon="3.44053">
        <ele>684.12</ele>
        <time>2017-01-19T08:42:44Z</time>
      </trkpt>
      <trkpt lat="43.76803" lon="3.44068">
        <ele>684.6</ele>
        <time>2017-01-19T08:43:00Z</time>
      </trkpt>
      <trkpt lat="43.76811" lon="3.44078">
        <ele>685.08</ele>
        <time>2017-01-19T08:43:16Z</time>
      </trkpt>
      <trkpt lat="43.76815" lon="3.44086">
        <ele>686.04</ele>
        <time>2017-01-19T08:43:30Z</time>
      </trkpt>
      <trkpt lat="43.76818" lon="3.44083">
        <ele>686.04</ele>
        <time>2017-01-19T08:43:43Z</time>
      </trkpt>
      <trkpt lat="43.76819" lon="3.44085">
        <ele>685.56</ele>
        <time>2017-01-19T08:43:58Z</time>
      </trkpt>
      <trkpt lat="43.76819" lon="3.44085">
        <ele>685.56</ele>
        <time>2017-01-19T08:44:17Z</time>
      </trkpt>
      <trkpt lat="43.76825" lon="3.44096">
        <ele>686.52</ele>
        <time>2017-01-19T08:44:34Z</time>
      </trkpt>
      <trkpt lat="43.76832" lon="3.44104">
        <ele>687.48</ele>
        <time>2017-01-19T08:44:48Z</time>
      </trkpt>
      <trkpt lat="43.76836" lon="3.44095">
        <ele>688.92</ele>
        <time>2017-01-19T08:45:02Z</time>
      </trkpt>
      <trkpt lat="43.76839" lon="3.44086">
        <ele>690.36</ele>
        <time>2017-01-19T08:45:18Z</time>
      </trkpt>
      <trkpt lat="43.76843" lon="3.44087">
        <ele>691.33</ele>
        <time>2017-01-19T08:45:31Z</time>
      </trkpt>
      <trkpt lat="43.76853" lon="3.44083">
        <ele>693.25</ele>
        <time>2017-01-19T08:45:49Z</time>
      </trkpt>
      <trkpt lat="43.76858" lon="3.44071">
        <ele>694.21</ele>
        <time>2017-01-19T08:46:04Z</time>
      </trkpt>
      <trkpt lat="43.76861" lon="3.44066">
        <ele>695.17</ele>
        <time>2017-01-19T08:46:19Z</time>
      </trkpt>
      <trkpt lat="43.76864" lon="3.44064">
        <ele>696.61</ele>
        <time>2017-01-19T08:46:32Z</time>
      </trkpt>
      <trkpt lat="43.76869" lon="3.44065">
        <ele>699.02</ele>
        <time>2017-01-19T08:46:47Z</time>
      </trkpt>
      <trkpt lat="43.76874" lon="3.44064">
        <ele>699.98</ele>
        <time>2017-01-19T08:47:02Z</time>
      </trkpt>
      <trkpt lat="43.76877" lon="3.4407">
        <ele>702.38</ele>
        <time>2017-01-19T08:47:15Z</time>
      </trkpt>
      <trkpt lat="43.76878" lon="3.44071">
        <ele>702.38</ele>
        <time>2017-01-19T08:47:35Z</time>
      </trkpt>
      <trkpt lat="43.76878" lon="3.44068">
        <ele>701.42</ele>
        <time>2017-01-19T08:47:50Z</time>
      </trkpt>
      <trkpt lat="43.7688" lon="3.44062">
        <ele>701.9</ele>
        <time>2017-01-19T08:48:03Z</time>
      </trkpt>
      <trkpt lat="43.76884" lon="3.44062">
        <ele>704.3</ele>
        <time>2017-01-19T08:48:15Z</time>
      </trkpt>
      <trkpt lat="43.76888" lon="3.44062">
        <ele>706.71</ele>
        <time>2017-01-19T08:48:28Z</time>
      </trkpt>
      <trkpt lat="43.76896" lon="3.44058">
        <ele>707.67</ele>
        <time>2017-01-19T08:48:43Z</time>
      </trkpt>
      <trkpt lat="43.76903" lon="3.44059">
        <ele>710.55</ele>
        <time>2017-01-19T08:48:58Z</time>
      </trkpt>
      <trkpt lat="43.76908" lon="3.4407">
        <ele>712.95</ele>
        <time>2017-01-19T08:49:13Z</time>
      </trkpt>
      <trkpt lat="43.76913" lon="3.44078">
        <ele>714.4</ele>
        <time>2017-01-19T08:49:31Z</time>
      </trkpt>
      <trkpt lat="43.76918" lon="3.44084">
        <ele>715.84</ele>
        <time>2017-01-19T08:49:41Z</time>
      </trkpt>
      <trkpt lat="43.7692" lon="3.44087">
        <ele>717.76</ele>
        <time>2017-01-19T08:49:55Z</time>
      </trkpt>
      <trkpt lat="43.76921" lon="3.44093">
        <ele>716.8</ele>
        <time>2017-01-19T08:50:09Z</time>
      </trkpt>
      <trkpt lat="43.76922" lon="3.44095">
        <ele>716.8</ele>
        <time>2017-01-19T08:50:33Z</time>
      </trkpt>
      <trkpt lat="43.76921" lon="3.44103">
        <ele>717.76</ele>
        <time>2017-01-19T08:50:47Z</time>
      </trkpt>
      <trkpt lat="43.76922" lon="3.44106">
        <ele>717.28</ele>
        <time>2017-01-19T08:50:56Z</time>
      </trkpt>
      <trkpt lat="43.76923" lon="3.44109">
        <ele>717.76</ele>
        <time>2017-01-19T08:51:08Z</time>
      </trkpt>
      <trkpt lat="43.76921" lon="3.44105">
        <ele>717.28</ele>
        <time>2017-01-19T08:51:25Z</time>
      </trkpt>
      <trkpt lat="43.7692" lon="3.44103">
        <ele>717.28</ele>
        <time>2017-01-19T08:51:46Z</time>
      </trkpt>
      <trkpt lat="43.76923" lon="3.44106">
        <ele>717.28</ele>
        <time>2017-01-19T08:52:00Z</time>
      </trkpt>
      <trkpt lat="43.76925" lon="3.44112">
        <ele>718.24</ele>
        <time>2017-01-19T08:52:10Z</time>
      </trkpt>
      <trkpt lat="43.7693" lon="3.44114">
        <ele>720.16</ele>
        <time>2017-01-19T08:52:22Z</time>
      </trkpt>
      <trkpt lat="43.76936" lon="3.44114">
        <ele>721.61</ele>
        <time>2017-01-19T08:52:34Z</time>
      </trkpt>
      <trkpt lat="43.76941" lon="3.44111">
        <ele>720.65</ele>
        <time>2017-01-19T08:52:46Z</time>
      </trkpt>
      <trkpt lat="43.76945" lon="3.44111">
        <ele>718.24</ele>
        <time>2017-01-19T08:52:58Z</time>
      </trkpt>
      <trkpt lat="43.76954" lon="3.44115">
        <ele>717.28</ele>
        <time>2017-01-19T08:53:09Z</time>
      </trkpt>
      <trkpt lat="43.76963" lon="3.44115">
        <ele>717.28</ele>
        <time>2017-01-19T08:53:20Z</time>
      </trkpt>
      <trkpt lat="43.7697" lon="3.44113">
        <ele>718.72</ele>
        <time>2017-01-19T08:53:32Z</time>
      </trkpt>
      <trkpt lat="43.76977" lon="3.44115">
        <ele>719.2</ele>
        <time>2017-01-19T08:53:45Z</time>
      </trkpt>
      <trkpt lat="43.76982" lon="3.44118">
        <ele>720.16</ele>
        <time>2017-01-19T08:53:59Z</time>
      </trkpt>
      <trkpt lat="43.76988" lon="3.44115">
        <ele>720.16</ele>
        <time>2017-01-19T08:54:11Z</time>
      </trkpt>
      <trkpt lat="43.76994" lon="3.44117">
        <ele>720.16</ele>
        <time>2017-01-19T08:54:24Z</time>
      </trkpt>
      <trkpt lat="43.76996" lon="3.44115">
        <ele>719.68</ele>
        <time>2017-01-19T08:54:46Z</time>
      </trkpt>
      <trkpt lat="43.76999" lon="3.44113">
        <ele>717.76</ele>
        <time>2017-01-19T08:55:00Z</time>
      </trkpt>
      <trkpt lat="43.77003" lon="3.4411">
        <ele>716.32</ele>
        <time>2017-01-19T08:55:18Z</time>
      </trkpt>
      <trkpt lat="43.77007" lon="3.44107">
        <ele>715.36</ele>
        <time>2017-01-19T08:55:33Z</time>
      </trkpt>
      <trkpt lat="43.7701" lon="3.44102">
        <ele>714.88</ele>
        <time>2017-01-19T08:55:47Z</time>
      </trkpt>
      <trkpt lat="43.77013" lon="3.44094">
        <ele>718.24</ele>
        <time>2017-01-19T08:56:03Z</time>
      </trkpt>
      <trkpt lat="43.77021" lon="3.44093">
        <ele>718.72</ele>
        <time>2017-01-19T08:56:17Z</time>
      </trkpt>
      <trkpt lat="43.77032" lon="3.44088">
        <ele>718.24</ele>
        <time>2017-01-19T08:56:33Z</time>
      </trkpt>
      <trkpt lat="43.77043" lon="3.44085">
        <ele>718.24</ele>
        <time>2017-01-19T08:56:48Z</time>
      </trkpt>
      <trkpt lat="43.77046" lon="3.44082">
        <ele>718.72</ele>
        <time>2017-01-19T08:57:05Z</time>
      </trkpt>
      <trkpt lat="43.77046" lon="3.44081">
        <ele>718.72</ele>
        <time>2017-01-19T08:57:25Z</time>
      </trkpt>
      <trkpt lat="43.77048" lon="3.44084">
        <ele>718.72</ele>
        <time>2017-01-19T08:57:58Z</time>
      </trkpt>
      <trkpt lat="43.77048" lon="3.4408">
        <ele>718.72</ele>
        <time>2017-01-19T08:58:32Z</time>
      </trkpt>
      <trkpt lat="43.77046" lon="3.44081">
        <ele>718.72</ele>
        <time>2017-01-19T08:58:50Z</time>
      </trkpt>
      <trkpt lat="43.77047" lon="3.44077">
        <ele>718.72</ele>
        <time>2017-01-19T08:59:14Z</time>
      </trkpt>
      <trkpt lat="43.77044" lon="3.44075">
        <ele>718.72</ele>
        <time>2017-01-19T08:59:52Z</time>
      </trkpt>
      <trkpt lat="43.77045" lon="3.44075">
        <ele>719.2</ele>
        <time>2017-01-19T09:00:12Z</time>
      </trkpt>
      <trkpt lat="43.77045" lon="3.44074">
        <ele>719.2</ele>
        <time>2017-01-19T09:00:33Z</time>
      </trkpt>
      <trkpt lat="43.77043" lon="3.44079">
        <ele>719.2</ele>
        <time>2017-01-19T09:00:45Z</time>
      </trkpt>
      <trkpt lat="43.77045" lon="3.44076">
        <ele>719.2</ele>
        <time>2017-01-19T09:01:04Z</time>
      </trkpt>
      <trkpt lat="43.77048" lon="3.44077">
        <ele>719.2</ele>
        <time>2017-01-19T09:01:25Z</time>
      </trkpt>
      <trkpt lat="43.77046" lon="3.44078">
        <ele>719.2</ele>
        <time>2017-01-19T09:01:44Z</time>
      </trkpt>
      <trkpt lat="43.77044" lon="3.44075">
        <ele>719.2</ele>
        <time>2017-01-19T09:01:56Z</time>
      </trkpt>
      <trkpt lat="43.77045" lon="3.44079">
        <ele>718.72</ele>
        <time>2017-01-19T09:02:16Z</time>
      </trkpt>
      <trkpt lat="43.77044" lon="3.44078">
        <ele>719.2</ele>
        <time>2017-01-19T09:02:30Z</time>
      </trkpt>
      <trkpt lat="43.77042" lon="3.44077">
        <ele>719.2</ele>
        <time>2017-01-19T09:02:51Z</time>
      </trkpt>
      <trkpt lat="43.77042" lon="3.44075">
        <ele>719.2</ele>
        <time>2017-01-19T09:03:16Z</time>
      </trkpt>
      <trkpt lat="43.77042" lon="3.44076">
        <ele>718.72</ele>
        <time>2017-01-19T09:03:33Z</time>
      </trkpt>
      <trkpt lat="43.77043" lon="3.44076">
        <ele>719.2</ele>
        <time>2017-01-19T09:03:53Z</time>
      </trkpt>
      <trkpt lat="43.77043" lon="3.44074">
        <ele>719.2</ele>
        <time>2017-01-19T09:04:16Z</time>
      </trkpt>
      <trkpt lat="43.77043" lon="3.44077">
        <ele>719.2</ele>
        <time>2017-01-19T09:04:45Z</time>
      </trkpt>
      <trkpt lat="43.77043" lon="3.44077">
        <ele>719.2</ele>
        <time>2017-01-19T09:05:03Z</time>
      </trkpt>
      <trkpt lat="43.77043" lon="3.44079">
        <ele>718.72</ele>
        <time>2017-01-19T09:05:17Z</time>
      </trkpt>
      <trkpt lat="43.77043" lon="3.44079">
        <ele>718.72</ele>
        <time>2017-01-19T09:05:40Z</time>
      </trkpt>
      <trkpt lat="43.77048" lon="3.44082">
        <ele>718.72</ele>
        <time>2017-01-19T09:06:09Z</time>
      </trkpt>
      <trkpt lat="43.77048" lon="3.44081">
        <ele>718.72</ele>
        <time>2017-01-19T09:06:22Z</time>
      </trkpt>
      <trkpt lat="43.77045" lon="3.44079">
        <ele>718.72</ele>
        <time>2017-01-19T09:06:37Z</time>
      </trkpt>
      <trkpt lat="43.77045" lon="3.44079">
        <ele>719.2</ele>
        <time>2017-01-19T09:07:01Z</time>
      </trkpt>
      <trkpt lat="43.77046" lon="3.44073">
        <ele>719.2</ele>
        <time>2017-01-19T09:07:13Z</time>
      </trkpt>
      <trkpt lat="43.77049" lon="3.44069">
        <ele>718.24</ele>
        <time>2017-01-19T09:07:25Z</time>
      </trkpt>
      <trkpt lat="43.77056" lon="3.44068">
        <ele>717.28</ele>
        <time>2017-01-19T09:07:39Z</time>
      </trkpt>
      <trkpt lat="43.77063" lon="3.4407">
        <ele>718.24</ele>
        <time>2017-01-19T09:07:53Z</time>
      </trkpt>
      <trkpt lat="43.77074" lon="3.4407">
        <ele>720.16</ele>
        <time>2017-01-19T09:08:07Z</time>
      </trkpt>
      <trkpt lat="43.77077" lon="3.44066">
        <ele>721.13</ele>
        <time>2017-01-19T09:08:21Z</time>
      </trkpt>
      <trkpt lat="43.77078" lon="3.44062">
        <ele>722.09</ele>
        <time>2017-01-19T09:08:37Z</time>
      </trkpt>
      <trkpt lat="43.77082" lon="3.44058">
        <ele>724.97</ele>
        <time>2017-01-19T09:08:51Z</time>
      </trkpt>
      <trkpt lat="43.7709" lon="3.44062">
        <ele>724.97</ele>
        <time>2017-01-19T09:09:04Z</time>
      </trkpt>
      <trkpt lat="43.77097" lon="3.44058">
        <ele>726.41</ele>
        <time>2017-01-19T09:09:18Z</time>
      </trkpt>
      <trkpt lat="43.77107" lon="3.44055">
        <ele>727.37</ele>
        <time>2017-01-19T09:09:30Z</time>
      </trkpt>
      <trkpt lat="43.77115" lon="3.44055">
        <ele>728.34</ele>
        <time>2017-01-19T09:09:43Z</time>
      </trkpt>
      <trkpt lat="43.7712" lon="3.44058">
        <ele>729.3</ele>
        <time>2017-01-19T09:09:55Z</time>
      </trkpt>
      <trkpt lat="43.77125" lon="3.44064">
        <ele>731.22</ele>
        <time>2017-01-19T09:10:10Z</time>
      </trkpt>
      <trkpt lat="43.77127" lon="3.4407">
        <ele>732.66</ele>
        <time>2017-01-19T09:10:28Z</time>
      </trkpt>
      <trkpt lat="43.7713" lon="3.44074">
        <ele>734.58</ele>
        <time>2017-01-19T09:10:40Z</time>
      </trkpt>
      <trkpt lat="43.77131" lon="3.44074">
        <ele>734.58</ele>
        <time>2017-01-19T09:10:41Z</time>
      </trkpt>
      <trkpt lat="43.77133" lon="3.44072">
        <ele>734.58</ele>
        <time>2017-01-19T09:10:44Z</time>
      </trkpt>
      <trkpt lat="43.77142" lon="3.44063">
        <ele>734.58</ele>
        <time>2017-01-19T09:10:56Z</time>
      </trkpt>
      <trkpt lat="43.77149" lon="3.4406">
        <ele>736.03</ele>
        <time>2017-01-19T09:11:09Z</time>
      </trkpt>
      <trkpt lat="43.77156" lon="3.44055">
        <ele>736.99</ele>
        <time>2017-01-19T09:11:23Z</time>
      </trkpt>
      <trkpt lat="43.77161" lon="3.44051">
        <ele>737.95</ele>
        <time>2017-01-19T09:11:34Z</time>
      </trkpt>
      <trkpt lat="43.77166" lon="3.44049">
        <ele>740.35</ele>
        <time>2017-01-19T09:11:51Z</time>
      </trkpt>
      <trkpt lat="43.77171" lon="3.44049">
        <ele>742.76</ele>
        <time>2017-01-19T09:12:10Z</time>
      </trkpt>
      <trkpt lat="43.77182" lon="3.4405">
        <ele>745.16</ele>
        <time>2017-01-19T09:12:32Z</time>
      </trkpt>
      <trkpt lat="43.7718" lon="3.44054">
        <ele>747.08</ele>
        <time>2017-01-19T09:12:43Z</time>
      </trkpt>
      <trkpt lat="43.77181" lon="3.44063">
        <ele>749.49</ele>
        <time>2017-01-19T09:12:57Z</time>
      </trkpt>
      <trkpt lat="43.77181" lon="3.44074">
        <ele>750.45</ele>
        <time>2017-01-19T09:13:10Z</time>
      </trkpt>
      <trkpt lat="43.77185" lon="3.44078">
        <ele>751.41</ele>
        <time>2017-01-19T09:13:22Z</time>
      </trkpt>
      <trkpt lat="43.77191" lon="3.44078">
        <ele>753.81</ele>
        <time>2017-01-19T09:13:36Z</time>
      </trkpt>
      <trkpt lat="43.77196" lon="3.44074">
        <ele>753.81</ele>
        <time>2017-01-19T09:13:48Z</time>
      </trkpt>
      <trkpt lat="43.77207" lon="3.4407">
        <ele>753.33</ele>
        <time>2017-01-19T09:14:05Z</time>
      </trkpt>
      <trkpt lat="43.77214" lon="3.44065">
        <ele>753.33</ele>
        <time>2017-01-19T09:14:20Z</time>
      </trkpt>
      <trkpt lat="43.77216" lon="3.4407">
        <ele>754.29</ele>
        <time>2017-01-19T09:14:29Z</time>
      </trkpt>
      <trkpt lat="43.77214" lon="3.44077">
        <ele>754.77</ele>
        <time>2017-01-19T09:14:42Z</time>
      </trkpt>
      <trkpt lat="43.77213" lon="3.4408">
        <ele>754.29</ele>
        <time>2017-01-19T09:14:59Z</time>
      </trkpt>
      <trkpt lat="43.77214" lon="3.44084">
        <ele>754.77</ele>
        <time>2017-01-19T09:15:12Z</time>
      </trkpt>
      <trkpt lat="43.77215" lon="3.44087">
        <ele>754.77</ele>
        <time>2017-01-19T09:15:28Z</time>
      </trkpt>
      <trkpt lat="43.77218" lon="3.44089">
        <ele>754.77</ele>
        <time>2017-01-19T09:15:53Z</time>
      </trkpt>
      <trkpt lat="43.77222" lon="3.44088">
        <ele>754.77</ele>
        <time>2017-01-19T09:16:16Z</time>
      </trkpt>
      <trkpt lat="43.77224" lon="3.4409">
        <ele>754.29</ele>
        <time>2017-01-19T09:16:43Z</time>
      </trkpt>
      <trkpt lat="43.77219" lon="3.44086">
        <ele>754.77</ele>
        <time>2017-01-19T09:16:56Z</time>
      </trkpt>
      <trkpt lat="43.77217" lon="3.44086">
        <ele>754.29</ele>
        <time>2017-01-19T09:17:21Z</time>
      </trkpt>
      <trkpt lat="43.77214" lon="3.44086">
        <ele>754.29</ele>
        <time>2017-01-19T09:17:47Z</time>
      </trkpt>
      <trkpt lat="43.77215" lon="3.44086">
        <ele>754.29</ele>
        <time>2017-01-19T09:18:05Z</time>
      </trkpt>
      <trkpt lat="43.77217" lon="3.44087">
        <ele>753.81</ele>
        <time>2017-01-19T09:18:22Z</time>
      </trkpt>
      <trkpt lat="43.77217" lon="3.44085">
        <ele>753.81</ele>
        <time>2017-01-19T09:18:39Z</time>
      </trkpt>
      <trkpt lat="43.77215" lon="3.44082">
        <ele>754.29</ele>
        <time>2017-01-19T09:19:02Z</time>
      </trkpt>
      <trkpt lat="43.77214" lon="3.44079">
        <ele>753.33</ele>
        <time>2017-01-19T09:19:22Z</time>
      </trkpt>
      <trkpt lat="43.77216" lon="3.44068">
        <ele>753.33</ele>
        <time>2017-01-19T09:19:33Z</time>
      </trkpt>
      <trkpt lat="43.77223" lon="3.44065">
        <ele>753.33</ele>
        <time>2017-01-19T09:19:46Z</time>
      </trkpt>
      <trkpt lat="43.77224" lon="3.44065">
        <ele>753.33</ele>
        <time>2017-01-19T09:19:47Z</time>
      </trkpt>
      <trkpt lat="43.77234" lon="3.44058">
        <ele>754.29</ele>
        <time>2017-01-19T09:19:59Z</time>
      </trkpt>
      <trkpt lat="43.77243" lon="3.4405">
        <ele>755.25</ele>
        <time>2017-01-19T09:20:13Z</time>
      </trkpt>
      <trkpt lat="43.77249" lon="3.44044">
        <ele>756.21</ele>
        <time>2017-01-19T09:20:25Z</time>
      </trkpt>
      <trkpt lat="43.7726" lon="3.44045">
        <ele>755.73</ele>
        <time>2017-01-19T09:20:37Z</time>
      </trkpt>
      <trkpt lat="43.77269" lon="3.44052">
        <ele>757.18</ele>
        <time>2017-01-19T09:20:51Z</time>
      </trkpt>
      <trkpt lat="43.77278" lon="3.4406">
        <ele>759.1</ele>
        <time>2017-01-19T09:21:07Z</time>
      </trkpt>
      <trkpt lat="43.77287" lon="3.44068">
        <ele>761.02</ele>
        <time>2017-01-19T09:21:22Z</time>
      </trkpt>
      <trkpt lat="43.77288" lon="3.44069">
        <ele>761.02</ele>
        <time>2017-01-19T09:21:24Z</time>
      </trkpt>
      <trkpt lat="43.77293" lon="3.44078">
        <ele>761.5</ele>
        <time>2017-01-19T09:21:40Z</time>
      </trkpt>
      <trkpt lat="43.77299" lon="3.44098">
        <ele>763.42</ele>
        <time>2017-01-19T09:22:02Z</time>
      </trkpt>
      <trkpt lat="43.77303" lon="3.44116">
        <ele>763.42</ele>
        <time>2017-01-19T09:22:16Z</time>
      </trkpt>
      <trkpt lat="43.77306" lon="3.44132">
        <ele>764.39</ele>
        <time>2017-01-19T09:22:30Z</time>
      </trkpt>
      <trkpt lat="43.77308" lon="3.44142">
        <ele>764.39</ele>
        <time>2017-01-19T09:22:39Z</time>
      </trkpt>
      <trkpt lat="43.77307" lon="3.44151">
        <ele>765.83</ele>
        <time>2017-01-19T09:22:49Z</time>
      </trkpt>
      <trkpt lat="43.77314" lon="3.44155">
        <ele>765.35</ele>
        <time>2017-01-19T09:23:01Z</time>
      </trkpt>
      <trkpt lat="43.77325" lon="3.44157">
        <ele>763.42</ele>
        <time>2017-01-19T09:23:17Z</time>
      </trkpt>
      <trkpt lat="43.77333" lon="3.4417">
        <ele>763.42</ele>
        <time>2017-01-19T09:23:32Z</time>
      </trkpt>
      <trkpt lat="43.77338" lon="3.44171">
        <ele>762.46</ele>
        <time>2017-01-19T09:23:40Z</time>
      </trkpt>
      <trkpt lat="43.77339" lon="3.44169">
        <ele>761.98</ele>
        <time>2017-01-19T09:23:42Z</time>
      </trkpt>
      <trkpt lat="43.77347" lon="3.44164">
        <ele>760.06</ele>
        <time>2017-01-19T09:23:57Z</time>
      </trkpt>
      <trkpt lat="43.77356" lon="3.44161">
        <ele>758.14</ele>
        <time>2017-01-19T09:24:09Z</time>
      </trkpt>
      <trkpt lat="43.77364" lon="3.4417">
        <ele>758.14</ele>
        <time>2017-01-19T09:24:23Z</time>
      </trkpt>
      <trkpt lat="43.77369" lon="3.44179">
        <ele>757.66</ele>
        <time>2017-01-19T09:24:36Z</time>
      </trkpt>
      <trkpt lat="43.7737" lon="3.44187">
        <ele>758.14</ele>
        <time>2017-01-19T09:24:49Z</time>
      </trkpt>
      <trkpt lat="43.77372" lon="3.44193">
        <ele>758.62</ele>
        <time>2017-01-19T09:25:05Z</time>
      </trkpt>
      <trkpt lat="43.7737" lon="3.44205">
        <ele>760.54</ele>
        <time>2017-01-19T09:25:21Z</time>
      </trkpt>
      <trkpt lat="43.77363" lon="3.44216">
        <ele>761.98</ele>
        <time>2017-01-19T09:25:35Z</time>
      </trkpt>
      <trkpt lat="43.77361" lon="3.44223">
        <ele>762.94</ele>
        <time>2017-01-19T09:25:47Z</time>
      </trkpt>
      <trkpt lat="43.77361" lon="3.44232">
        <ele>763.9</ele>
        <time>2017-01-19T09:26:01Z</time>
      </trkpt>
      <trkpt lat="43.77363" lon="3.44236">
        <ele>764.39</ele>
        <time>2017-01-19T09:26:18Z</time>
      </trkpt>
      <trkpt lat="43.7736" lon="3.44237">
        <ele>764.39</ele>
        <time>2017-01-19T09:26:35Z</time>
      </trkpt>
      <trkpt lat="43.77347" lon="3.44246">
        <ele>766.31</ele>
        <time>2017-01-19T09:26:52Z</time>
      </trkpt>
      <trkpt lat="43.77349" lon="3.44259">
        <ele>767.27</ele>
        <time>2017-01-19T09:27:07Z</time>
      </trkpt>
      <trkpt lat="43.77349" lon="3.4427">
        <ele>768.71</ele>
        <time>2017-01-19T09:27:19Z</time>
      </trkpt>
      <trkpt lat="43.77343" lon="3.44284">
        <ele>769.67</ele>
        <time>2017-01-19T09:27:32Z</time>
      </trkpt>
      <trkpt lat="43.77343" lon="3.44285">
        <ele>769.67</ele>
        <time>2017-01-19T09:27:33Z</time>
      </trkpt>
      <trkpt lat="43.77343" lon="3.44297">
        <ele>770.15</ele>
        <time>2017-01-19T09:27:41Z</time>
      </trkpt>
      <trkpt lat="43.77348" lon="3.4431">
        <ele>770.15</ele>
        <time>2017-01-19T09:27:52Z</time>
      </trkpt>
      <trkpt lat="43.77357" lon="3.44329">
        <ele>770.63</ele>
        <time>2017-01-19T09:28:08Z</time>
      </trkpt>
      <trkpt lat="43.77359" lon="3.44331">
        <ele>770.63</ele>
        <time>2017-01-19T09:28:11Z</time>
      </trkpt>
      <trkpt lat="43.77363" lon="3.44334">
        <ele>770.63</ele>
        <time>2017-01-19T09:28:15Z</time>
      </trkpt>
      <trkpt lat="43.77379" lon="3.44336">
        <ele>771.11</ele>
        <time>2017-01-19T09:28:31Z</time>
      </trkpt>
      <trkpt lat="43.77383" lon="3.44335">
        <ele>771.11</ele>
        <time>2017-01-19T09:28:36Z</time>
      </trkpt>
      <trkpt lat="43.774" lon="3.44337">
        <ele>771.6</ele>
        <time>2017-01-19T09:28:53Z</time>
      </trkpt>
      <trkpt lat="43.77415" lon="3.44341">
        <ele>771.11</ele>
        <time>2017-01-19T09:29:08Z</time>
      </trkpt>
      <trkpt lat="43.77433" lon="3.44348">
        <ele>770.63</ele>
        <time>2017-01-19T09:29:25Z</time>
      </trkpt>
      <trkpt lat="43.77438" lon="3.44348">
        <ele>770.15</ele>
        <time>2017-01-19T09:29:30Z</time>
      </trkpt>
      <trkpt lat="43.77459" lon="3.44354">
        <ele>769.67</ele>
        <time>2017-01-19T09:29:49Z</time>
      </trkpt>
      <trkpt lat="43.77478" lon="3.44369">
        <ele>768.71</ele>
        <time>2017-01-19T09:30:07Z</time>
      </trkpt>
      <trkpt lat="43.77496" lon="3.44383">
        <ele>769.19</ele>
        <time>2017-01-19T09:30:24Z</time>
      </trkpt>
      <trkpt lat="43.77513" lon="3.44392">
        <ele>769.67</ele>
        <time>2017-01-19T09:30:41Z</time>
      </trkpt>
      <trkpt lat="43.77523" lon="3.44394">
        <ele>770.15</ele>
        <time>2017-01-19T09:30:52Z</time>
      </trkpt>
      <trkpt lat="43.77534" lon="3.44397">
        <ele>771.11</ele>
        <time>2017-01-19T09:31:07Z</time>
      </trkpt>
      <trkpt lat="43.77534" lon="3.44399">
        <ele>771.11</ele>
        <time>2017-01-19T09:31:16Z</time>
      </trkpt>
      <trkpt lat="43.77534" lon="3.44401">
        <ele>771.11</ele>
        <time>2017-01-19T09:31:34Z</time>
      </trkpt>
      <trkpt lat="43.77534" lon="3.44407">
        <ele>771.11</ele>
        <time>2017-01-19T09:31:41Z</time>
      </trkpt>
      <trkpt lat="43.77525" lon="3.44432">
        <ele>770.63</ele>
        <time>2017-01-19T09:32:00Z</time>
      </trkpt>
      <trkpt lat="43.77522" lon="3.44458">
        <ele>770.15</ele>
        <time>2017-01-19T09:32:18Z</time>
      </trkpt>
      <trkpt lat="43.77523" lon="3.44489">
        <ele>769.67</ele>
        <time>2017-01-19T09:32:36Z</time>
      </trkpt>
      <trkpt lat="43.77523" lon="3.44518">
        <ele>768.71</ele>
        <time>2017-01-19T09:32:54Z</time>
      </trkpt>
      <trkpt lat="43.77517" lon="3.44541">
        <ele>767.75</ele>
        <time>2017-01-19T09:33:08Z</time>
      </trkpt>
      <trkpt lat="43.77515" lon="3.44549">
        <ele>767.75</ele>
        <time>2017-01-19T09:33:13Z</time>
      </trkpt>
      <trkpt lat="43.77512" lon="3.44564">
        <ele>767.27</ele>
        <time>2017-01-19T09:33:22Z</time>
      </trkpt>
      <trkpt lat="43.77512" lon="3.4457">
        <ele>767.27</ele>
        <time>2017-01-19T09:33:26Z</time>
      </trkpt>
      <trkpt lat="43.77513" lon="3.44583">
        <ele>767.27</ele>
        <time>2017-01-19T09:33:33Z</time>
      </trkpt>
      <trkpt lat="43.77514" lon="3.44587">
        <ele>767.75</ele>
        <time>2017-01-19T09:33:35Z</time>
      </trkpt>
      <trkpt lat="43.77514" lon="3.44594">
        <ele>767.27</ele>
        <time>2017-01-19T09:33:39Z</time>
      </trkpt>
      <trkpt lat="43.77513" lon="3.44615">
        <ele>768.23</ele>
        <time>2017-01-19T09:33:52Z</time>
      </trkpt>
      <trkpt lat="43.77513" lon="3.44639">
        <ele>769.19</ele>
        <time>2017-01-19T09:34:07Z</time>
      </trkpt>
      <trkpt lat="43.77507" lon="3.44657">
        <ele>769.67</ele>
        <time>2017-01-19T09:34:20Z</time>
      </trkpt>
      <trkpt lat="43.77501" lon="3.44674">
        <ele>770.15</ele>
        <time>2017-01-19T09:34:32Z</time>
      </trkpt>
      <trkpt lat="43.77493" lon="3.44694">
        <ele>770.63</ele>
        <time>2017-01-19T09:34:47Z</time>
      </trkpt>
      <trkpt lat="43.77485" lon="3.44721">
        <ele>771.11</ele>
        <time>2017-01-19T09:35:06Z</time>
      </trkpt>
      <trkpt lat="43.77477" lon="3.44748">
        <ele>771.11</ele>
        <time>2017-01-19T09:35:24Z</time>
      </trkpt>
      <trkpt lat="43.77469" lon="3.44774">
        <ele>769.67</ele>
        <time>2017-01-19T09:35:42Z</time>
      </trkpt>
      <trkpt lat="43.77462" lon="3.44804">
        <ele>768.23</ele>
        <time>2017-01-19T09:36:00Z</time>
      </trkpt>
      <trkpt lat="43.77463" lon="3.44835">
        <ele>768.23</ele>
        <time>2017-01-19T09:36:17Z</time>
      </trkpt>
      <trkpt lat="43.77463" lon="3.44836">
        <ele>768.23</ele>
        <time>2017-01-19T09:36:18Z</time>
      </trkpt>
      <trkpt lat="43.77468" lon="3.44861">
        <ele>767.27</ele>
        <time>2017-01-19T09:36:35Z</time>
      </trkpt>
      <trkpt lat="43.77473" lon="3.44872">
        <ele>766.79</ele>
        <time>2017-01-19T09:36:45Z</time>
      </trkpt>
      <trkpt lat="43.77477" lon="3.44892">
        <ele>764.87</ele>
        <time>2017-01-19T09:36:58Z</time>
      </trkpt>
      <trkpt lat="43.77475" lon="3.44901">
        <ele>763.42</ele>
        <time>2017-01-19T09:37:05Z</time>
      </trkpt>
      <trkpt lat="43.7747" lon="3.44921">
        <ele>761.02</ele>
        <time>2017-01-19T09:37:21Z</time>
      </trkpt>
      <trkpt lat="43.7747" lon="3.44941">
        <ele>759.58</ele>
        <time>2017-01-19T09:37:37Z</time>
      </trkpt>
      <trkpt lat="43.77465" lon="3.44963">
        <ele>757.18</ele>
        <time>2017-01-19T09:37:55Z</time>
      </trkpt>
      <trkpt lat="43.77457" lon="3.44984">
        <ele>754.77</ele>
        <time>2017-01-19T09:38:09Z</time>
      </trkpt>
      <trkpt lat="43.77456" lon="3.4499">
        <ele>754.29</ele>
        <time>2017-01-19T09:38:13Z</time>
      </trkpt>
      <trkpt lat="43.7745" lon="3.45004">
        <ele>751.89</ele>
        <time>2017-01-19T09:38:28Z</time>
      </trkpt>
      <trkpt lat="43.7745" lon="3.4501">
        <ele>751.41</ele>
        <time>2017-01-19T09:38:33Z</time>
      </trkpt>
      <trkpt lat="43.77446" lon="3.45042">
        <ele>749.97</ele>
        <time>2017-01-19T09:38:51Z</time>
      </trkpt>
      <trkpt lat="43.77436" lon="3.45065">
        <ele>750.45</ele>
        <time>2017-01-19T09:39:07Z</time>
      </trkpt>
      <trkpt lat="43.77425" lon="3.45083">
        <ele>751.41</ele>
        <time>2017-01-19T09:39:22Z</time>
      </trkpt>
      <trkpt lat="43.77417" lon="3.45101">
        <ele>752.37</ele>
        <time>2017-01-19T09:39:34Z</time>
      </trkpt>
      <trkpt lat="43.77416" lon="3.45103">
        <ele>751.89</ele>
        <time>2017-01-19T09:39:35Z</time>
      </trkpt>
      <trkpt lat="43.77414" lon="3.4512">
        <ele>752.85</ele>
        <time>2017-01-19T09:39:47Z</time>
      </trkpt>
      <trkpt lat="43.77413" lon="3.4513">
        <ele>753.81</ele>
        <time>2017-01-19T09:39:55Z</time>
      </trkpt>
      <trkpt lat="43.77411" lon="3.45133">
        <ele>753.33</ele>
        <time>2017-01-19T09:39:57Z</time>
      </trkpt>
      <trkpt lat="43.77409" lon="3.4514">
        <ele>753.81</ele>
        <time>2017-01-19T09:40:02Z</time>
      </trkpt>
      <trkpt lat="43.77408" lon="3.45146">
        <ele>752.85</ele>
        <time>2017-01-19T09:40:06Z</time>
      </trkpt>
      <trkpt lat="43.774" lon="3.45163">
        <ele>750.93</ele>
        <time>2017-01-19T09:40:19Z</time>
      </trkpt>
      <trkpt lat="43.77396" lon="3.45174">
        <ele>750.93</ele>
        <time>2017-01-19T09:40:27Z</time>
      </trkpt>
      <trkpt lat="43.77394" lon="3.45181">
        <ele>750.93</ele>
        <time>2017-01-19T09:40:33Z</time>
      </trkpt>
      <trkpt lat="43.77392" lon="3.45196">
        <ele>752.37</ele>
        <time>2017-01-19T09:40:43Z</time>
      </trkpt>
      <trkpt lat="43.77392" lon="3.45207">
        <ele>752.85</ele>
        <time>2017-01-19T09:40:49Z</time>
      </trkpt>
      <trkpt lat="43.77394" lon="3.45229">
        <ele>754.29</ele>
        <time>2017-01-19T09:41:05Z</time>
      </trkpt>
      <trkpt lat="43.77396" lon="3.45248">
        <ele>755.73</ele>
        <time>2017-01-19T09:41:20Z</time>
      </trkpt>
      <trkpt lat="43.77394" lon="3.4527">
        <ele>758.14</ele>
        <time>2017-01-19T09:41:36Z</time>
      </trkpt>
      <trkpt lat="43.77387" lon="3.45284">
        <ele>758.62</ele>
        <time>2017-01-19T09:41:48Z</time>
      </trkpt>
      <trkpt lat="43.77379" lon="3.45306">
        <ele>757.18</ele>
        <time>2017-01-19T09:42:06Z</time>
      </trkpt>
      <trkpt lat="43.7738" lon="3.45313">
        <ele>757.18</ele>
        <time>2017-01-19T09:42:11Z</time>
      </trkpt>
      <trkpt lat="43.77371" lon="3.45336">
        <ele>756.69</ele>
        <time>2017-01-19T09:42:29Z</time>
      </trkpt>
      <trkpt lat="43.77361" lon="3.45348">
        <ele>757.18</ele>
        <time>2017-01-19T09:42:40Z</time>
      </trkpt>
      <trkpt lat="43.77349" lon="3.45373">
        <ele>758.62</ele>
        <time>2017-01-19T09:42:59Z</time>
      </trkpt>
      <trkpt lat="43.77341" lon="3.45393">
        <ele>759.58</ele>
        <time>2017-01-19T09:43:14Z</time>
      </trkpt>
      <trkpt lat="43.77336" lon="3.45402">
        <ele>760.06</ele>
        <time>2017-01-19T09:43:21Z</time>
      </trkpt>
      <trkpt lat="43.77324" lon="3.45426">
        <ele>757.66</ele>
        <time>2017-01-19T09:43:39Z</time>
      </trkpt>
      <trkpt lat="43.77308" lon="3.45447">
        <ele>756.21</ele>
        <time>2017-01-19T09:43:58Z</time>
      </trkpt>
      <trkpt lat="43.77288" lon="3.45457">
        <ele>753.81</ele>
        <time>2017-01-19T09:44:15Z</time>
      </trkpt>
      <trkpt lat="43.7728" lon="3.45459">
        <ele>753.33</ele>
        <time>2017-01-19T09:44:29Z</time>
      </trkpt>
      <trkpt lat="43.77279" lon="3.45459">
        <ele>753.33</ele>
        <time>2017-01-19T09:44:33Z</time>
      </trkpt>
      <trkpt lat="43.77276" lon="3.45464">
        <ele>752.37</ele>
        <time>2017-01-19T09:44:39Z</time>
      </trkpt>
      <trkpt lat="43.77274" lon="3.4547">
        <ele>751.41</ele>
        <time>2017-01-19T09:44:44Z</time>
      </trkpt>
      <trkpt lat="43.7727" lon="3.45481">
        <ele>750.45</ele>
        <time>2017-01-19T09:44:53Z</time>
      </trkpt>
      <trkpt lat="43.77267" lon="3.45484">
        <ele>749.97</ele>
        <time>2017-01-19T09:44:57Z</time>
      </trkpt>
      <trkpt lat="43.77257" lon="3.45493">
        <ele>749</ele>
        <time>2017-01-19T09:45:07Z</time>
      </trkpt>
      <trkpt lat="43.77238" lon="3.45507">
        <ele>748.52</ele>
        <time>2017-01-19T09:45:25Z</time>
      </trkpt>
      <trkpt lat="43.77221" lon="3.45522">
        <ele>747.56</ele>
        <time>2017-01-19T09:45:41Z</time>
      </trkpt>
      <trkpt lat="43.77216" lon="3.45528">
        <ele>747.08</ele>
        <time>2017-01-19T09:45:47Z</time>
      </trkpt>
      <trkpt lat="43.7721" lon="3.45539">
        <ele>745.16</ele>
        <time>2017-01-19T09:45:56Z</time>
      </trkpt>
      <trkpt lat="43.77197" lon="3.45561">
        <ele>743.72</ele>
        <time>2017-01-19T09:46:12Z</time>
      </trkpt>
      <trkpt lat="43.77184" lon="3.45578">
        <ele>741.31</ele>
        <time>2017-01-19T09:46:28Z</time>
      </trkpt>
      <trkpt lat="43.77167" lon="3.45587">
        <ele>738.91</ele>
        <time>2017-01-19T09:46:43Z</time>
      </trkpt>
      <trkpt lat="43.77149" lon="3.45592">
        <ele>737.47</ele>
        <time>2017-01-19T09:46:58Z</time>
      </trkpt>
      <trkpt lat="43.77139" lon="3.45592">
        <ele>735.55</ele>
        <time>2017-01-19T09:47:05Z</time>
      </trkpt>
      <trkpt lat="43.77129" lon="3.45589">
        <ele>734.58</ele>
        <time>2017-01-19T09:47:13Z</time>
      </trkpt>
      <trkpt lat="43.77123" lon="3.45588">
        <ele>733.62</ele>
        <time>2017-01-19T09:47:18Z</time>
      </trkpt>
      <trkpt lat="43.77105" lon="3.45588">
        <ele>731.7</ele>
        <time>2017-01-19T09:47:32Z</time>
      </trkpt>
      <trkpt lat="43.77099" lon="3.45589">
        <ele>731.22</ele>
        <time>2017-01-19T09:47:37Z</time>
      </trkpt>
      <trkpt lat="43.77093" lon="3.45591">
        <ele>730.74</ele>
        <time>2017-01-19T09:47:43Z</time>
      </trkpt>
      <trkpt lat="43.7709" lon="3.45591">
        <ele>730.74</ele>
        <time>2017-01-19T09:47:46Z</time>
      </trkpt>
      <trkpt lat="43.77086" lon="3.45593">
        <ele>730.74</ele>
        <time>2017-01-19T09:47:50Z</time>
      </trkpt>
      <trkpt lat="43.77071" lon="3.45604">
        <ele>726.89</ele>
        <time>2017-01-19T09:48:07Z</time>
      </trkpt>
      <trkpt lat="43.77068" lon="3.45613">
        <ele>725.93</ele>
        <time>2017-01-19T09:48:14Z</time>
      </trkpt>
      <trkpt lat="43.77068" lon="3.4562">
        <ele>725.45</ele>
        <time>2017-01-19T09:48:19Z</time>
      </trkpt>
      <trkpt lat="43.77061" lon="3.4564">
        <ele>723.53</ele>
        <time>2017-01-19T09:48:33Z</time>
      </trkpt>
      <trkpt lat="43.7705" lon="3.45654">
        <ele>722.57</ele>
        <time>2017-01-19T09:48:46Z</time>
      </trkpt>
      <trkpt lat="43.77032" lon="3.45665">
        <ele>721.61</ele>
        <time>2017-01-19T09:49:03Z</time>
      </trkpt>
      <trkpt lat="43.77023" lon="3.45665">
        <ele>721.61</ele>
        <time>2017-01-19T09:49:11Z</time>
      </trkpt>
      <trkpt lat="43.77004" lon="3.45674">
        <ele>720.65</ele>
        <time>2017-01-19T09:49:28Z</time>
      </trkpt>
      <trkpt lat="43.76999" lon="3.45672">
        <ele>720.65</ele>
        <time>2017-01-19T09:49:33Z</time>
      </trkpt>
      <trkpt lat="43.76976" lon="3.45661">
        <ele>720.16</ele>
        <time>2017-01-19T09:49:51Z</time>
      </trkpt>
      <trkpt lat="43.76957" lon="3.4565">
        <ele>720.65</ele>
        <time>2017-01-19T09:50:08Z</time>
      </trkpt>
      <trkpt lat="43.76939" lon="3.45644">
        <ele>720.16</ele>
        <time>2017-01-19T09:50:25Z</time>
      </trkpt>
      <trkpt lat="43.76926" lon="3.45646">
        <ele>719.2</ele>
        <time>2017-01-19T09:50:38Z</time>
      </trkpt>
      <trkpt lat="43.76921" lon="3.45643">
        <ele>719.2</ele>
        <time>2017-01-19T09:50:42Z</time>
      </trkpt>
      <trkpt lat="43.76907" lon="3.45619">
        <ele>719.68</ele>
        <time>2017-01-19T09:51:03Z</time>
      </trkpt>
      <trkpt lat="43.76901" lon="3.45613">
        <ele>718.72</ele>
        <time>2017-01-19T09:51:09Z</time>
      </trkpt>
      <trkpt lat="43.76884" lon="3.45597">
        <ele>718.24</ele>
        <time>2017-01-19T09:51:26Z</time>
      </trkpt>
      <trkpt lat="43.76867" lon="3.45589">
        <ele>716.8</ele>
        <time>2017-01-19T09:51:39Z</time>
      </trkpt>
      <trkpt lat="43.76861" lon="3.4559">
        <ele>715.84</ele>
        <time>2017-01-19T09:51:44Z</time>
      </trkpt>
      <trkpt lat="43.76843" lon="3.45596">
        <ele>713.44</ele>
        <time>2017-01-19T09:52:01Z</time>
      </trkpt>
      <trkpt lat="43.76832" lon="3.45608">
        <ele>711.03</ele>
        <time>2017-01-19T09:52:16Z</time>
      </trkpt>
      <trkpt lat="43.76815" lon="3.45622">
        <ele>709.59</ele>
        <time>2017-01-19T09:52:34Z</time>
      </trkpt>
      <trkpt lat="43.76814" lon="3.45622">
        <ele>709.59</ele>
        <time>2017-01-19T09:52:35Z</time>
      </trkpt>
      <trkpt lat="43.76798" lon="3.45624">
        <ele>707.67</ele>
        <time>2017-01-19T09:52:52Z</time>
      </trkpt>
      <trkpt lat="43.76782" lon="3.45628">
        <ele>706.71</ele>
        <time>2017-01-19T09:53:07Z</time>
      </trkpt>
      <trkpt lat="43.76776" lon="3.4563">
        <ele>706.71</ele>
        <time>2017-01-19T09:53:12Z</time>
      </trkpt>
      <trkpt lat="43.7675" lon="3.45625">
        <ele>705.75</ele>
        <time>2017-01-19T09:53:32Z</time>
      </trkpt>
      <trkpt lat="43.7673" lon="3.4562">
        <ele>704.78</ele>
        <time>2017-01-19T09:53:49Z</time>
      </trkpt>
      <trkpt lat="43.76716" lon="3.45613">
        <ele>703.82</ele>
        <time>2017-01-19T09:54:02Z</time>
      </trkpt>
      <trkpt lat="43.76695" lon="3.45607">
        <ele>702.86</ele>
        <time>2017-01-19T09:54:19Z</time>
      </trkpt>
      <trkpt lat="43.76676" lon="3.45602">
        <ele>701.42</ele>
        <time>2017-01-19T09:54:34Z</time>
      </trkpt>
      <trkpt lat="43.76657" lon="3.45601">
        <ele>700.46</ele>
        <time>2017-01-19T09:54:50Z</time>
      </trkpt>
      <trkpt lat="43.76641" lon="3.45599">
        <ele>699.5</ele>
        <time>2017-01-19T09:55:05Z</time>
      </trkpt>
      <trkpt lat="43.76629" lon="3.45606">
        <ele>698.53</ele>
        <time>2017-01-19T09:55:17Z</time>
      </trkpt>
      <trkpt lat="43.76623" lon="3.45608">
        <ele>697.57</ele>
        <time>2017-01-19T09:55:22Z</time>
      </trkpt>
      <trkpt lat="43.76613" lon="3.45613">
        <ele>697.09</ele>
        <time>2017-01-19T09:55:32Z</time>
      </trkpt>
      <trkpt lat="43.76593" lon="3.45616">
        <ele>696.13</ele>
        <time>2017-01-19T09:55:49Z</time>
      </trkpt>
      <trkpt lat="43.76569" lon="3.45615">
        <ele>694.69</ele>
        <time>2017-01-19T09:56:08Z</time>
      </trkpt>
      <trkpt lat="43.76551" lon="3.45617">
        <ele>693.73</ele>
        <time>2017-01-19T09:56:23Z</time>
      </trkpt>
      <trkpt lat="43.76534" lon="3.45612">
        <ele>693.25</ele>
        <time>2017-01-19T09:56:38Z</time>
      </trkpt>
      <trkpt lat="43.76512" lon="3.45605">
        <ele>692.29</ele>
        <time>2017-01-19T09:56:57Z</time>
      </trkpt>
      <trkpt lat="43.76494" lon="3.45602">
        <ele>691.33</ele>
        <time>2017-01-19T09:57:11Z</time>
      </trkpt>
      <trkpt lat="43.76468" lon="3.45607">
        <ele>690.84</ele>
        <time>2017-01-19T09:57:31Z</time>
      </trkpt>
      <trkpt lat="43.76446" lon="3.456">
        <ele>690.84</ele>
        <time>2017-01-19T09:57:49Z</time>
      </trkpt>
      <trkpt lat="43.76436" lon="3.456">
        <ele>690.36</ele>
        <time>2017-01-19T09:57:59Z</time>
      </trkpt>
      <trkpt lat="43.76417" lon="3.45596">
        <ele>690.36</ele>
        <time>2017-01-19T09:58:17Z</time>
      </trkpt>
      <trkpt lat="43.76394" lon="3.4559">
        <ele>690.36</ele>
        <time>2017-01-19T09:58:34Z</time>
      </trkpt>
      <trkpt lat="43.76374" lon="3.45588">
        <ele>690.36</ele>
        <time>2017-01-19T09:58:51Z</time>
      </trkpt>
      <trkpt lat="43.76356" lon="3.45586">
        <ele>689.88</ele>
        <time>2017-01-19T09:59:07Z</time>
      </trkpt>
      <trkpt lat="43.76333" lon="3.45585">
        <ele>689.88</ele>
        <time>2017-01-19T09:59:25Z</time>
      </trkpt>
      <trkpt lat="43.76313" lon="3.45571">
        <ele>689.4</ele>
        <time>2017-01-19T09:59:41Z</time>
      </trkpt>
      <trkpt lat="43.76298" lon="3.45559">
        <ele>688.92</ele>
        <time>2017-01-19T09:59:57Z</time>
      </trkpt>
      <trkpt lat="43.76279" lon="3.45549">
        <ele>688.92</ele>
        <time>2017-01-19T10:00:15Z</time>
      </trkpt>
      <trkpt lat="43.76274" lon="3.45542">
        <ele>688.92</ele>
        <time>2017-01-19T10:00:23Z</time>
      </trkpt>
      <trkpt lat="43.76275" lon="3.45539">
        <ele>688.92</ele>
        <time>2017-01-19T10:00:25Z</time>
      </trkpt>
      <trkpt lat="43.7628" lon="3.4553">
        <ele>689.88</ele>
        <time>2017-01-19T10:00:38Z</time>
      </trkpt>
      <trkpt lat="43.76287" lon="3.45525">
        <ele>690.84</ele>
        <time>2017-01-19T10:00:52Z</time>
      </trkpt>
      <trkpt lat="43.76286" lon="3.4551">
        <ele>688.92</ele>
        <time>2017-01-19T10:01:07Z</time>
      </trkpt>
      <trkpt lat="43.76283" lon="3.45497">
        <ele>688.92</ele>
        <time>2017-01-19T10:01:23Z</time>
      </trkpt>
      <trkpt lat="43.76277" lon="3.45493">
        <ele>688.92</ele>
        <time>2017-01-19T10:01:43Z</time>
      </trkpt>
      <trkpt lat="43.76265" lon="3.45492">
        <ele>689.88</ele>
        <time>2017-01-19T10:01:59Z</time>
      </trkpt>
      <trkpt lat="43.76256" lon="3.45488">
        <ele>689.88</ele>
        <time>2017-01-19T10:02:13Z</time>
      </trkpt>
      <trkpt lat="43.76244" lon="3.45473">
        <ele>689.4</ele>
        <time>2017-01-19T10:02:29Z</time>
      </trkpt>
      <trkpt lat="43.76241" lon="3.45462">
        <ele>688.44</ele>
        <time>2017-01-19T10:02:48Z</time>
      </trkpt>
      <trkpt lat="43.76242" lon="3.45463">
        <ele>688.44</ele>
        <time>2017-01-19T10:03:20Z</time>
      </trkpt>
      <trkpt lat="43.76243" lon="3.45465">
        <ele>688.44</ele>
        <time>2017-01-19T10:03:53Z</time>
      </trkpt>
      <trkpt lat="43.76242" lon="3.45465">
        <ele>688.44</ele>
        <time>2017-01-19T10:04:30Z</time>
      </trkpt>
      <trkpt lat="43.76242" lon="3.45463">
        <ele>689.88</ele>
        <time>2017-01-19T10:05:02Z</time>
      </trkpt>
      <trkpt lat="43.76244" lon="3.45465">
        <ele>688.92</ele>
        <time>2017-01-19T10:05:22Z</time>
      </trkpt>
      <trkpt lat="43.76244" lon="3.45465">
        <ele>688.92</ele>
        <time>2017-01-19T10:05:36Z</time>
      </trkpt>
      <trkpt lat="43.76244" lon="3.45468">
        <ele>688.92</ele>
        <time>2017-01-19T10:06:01Z</time>
      </trkpt>
      <trkpt lat="43.76245" lon="3.45471">
        <ele>689.4</ele>
        <time>2017-01-19T10:06:13Z</time>
      </trkpt>
      <trkpt lat="43.76241" lon="3.45475">
        <ele>689.4</ele>
        <time>2017-01-19T10:06:24Z</time>
      </trkpt>
      <trkpt lat="43.76234" lon="3.45479">
        <ele>689.88</ele>
        <time>2017-01-19T10:06:39Z</time>
      </trkpt>
      <trkpt lat="43.76227" lon="3.45482">
        <ele>690.36</ele>
        <time>2017-01-19T10:06:53Z</time>
      </trkpt>
      <trkpt lat="43.76217" lon="3.45488">
        <ele>690.84</ele>
        <time>2017-01-19T10:07:07Z</time>
      </trkpt>
      <trkpt lat="43.76214" lon="3.45487">
        <ele>691.33</ele>
        <time>2017-01-19T10:07:11Z</time>
      </trkpt>
      <trkpt lat="43.76202" lon="3.45485">
        <ele>691.33</ele>
        <time>2017-01-19T10:07:25Z</time>
      </trkpt>
      <trkpt lat="43.76199" lon="3.45484">
        <ele>690.36</ele>
        <time>2017-01-19T10:07:29Z</time>
      </trkpt>
      <trkpt lat="43.7619" lon="3.45488">
        <ele>690.36</ele>
        <time>2017-01-19T10:07:36Z</time>
      </trkpt>
      <trkpt lat="43.76179" lon="3.45488">
        <ele>689.4</ele>
        <time>2017-01-19T10:07:50Z</time>
      </trkpt>
      <trkpt lat="43.76173" lon="3.45491">
        <ele>689.4</ele>
        <time>2017-01-19T10:07:56Z</time>
      </trkpt>
      <trkpt lat="43.76161" lon="3.45491">
        <ele>688.92</ele>
        <time>2017-01-19T10:08:08Z</time>
      </trkpt>
      <trkpt lat="43.76152" lon="3.45482">
        <ele>689.4</ele>
        <time>2017-01-19T10:08:20Z</time>
      </trkpt>
      <trkpt lat="43.76146" lon="3.45476">
        <ele>688.92</ele>
        <time>2017-01-19T10:08:34Z</time>
      </trkpt>
      <trkpt lat="43.76138" lon="3.45473">
        <ele>688.44</ele>
        <time>2017-01-19T10:08:45Z</time>
      </trkpt>
      <trkpt lat="43.76128" lon="3.45472">
        <ele>688.44</ele>
        <time>2017-01-19T10:08:59Z</time>
      </trkpt>
      <trkpt lat="43.76125" lon="3.45479">
        <ele>688.44</ele>
        <time>2017-01-19T10:09:12Z</time>
      </trkpt>
      <trkpt lat="43.76115" lon="3.45482">
        <ele>687.96</ele>
        <time>2017-01-19T10:09:26Z</time>
      </trkpt>
      <trkpt lat="43.76104" lon="3.4549">
        <ele>687.96</ele>
        <time>2017-01-19T10:09:42Z</time>
      </trkpt>
      <trkpt lat="43.76103" lon="3.4549">
        <ele>687.96</ele>
        <time>2017-01-19T10:09:43Z</time>
      </trkpt>
      <trkpt lat="43.76096" lon="3.45481">
        <ele>687.96</ele>
        <time>2017-01-19T10:09:57Z</time>
      </trkpt>
      <trkpt lat="43.76089" lon="3.45479">
        <ele>687.48</ele>
        <time>2017-01-19T10:10:08Z</time>
      </trkpt>
      <trkpt lat="43.76083" lon="3.45472">
        <ele>687</ele>
        <time>2017-01-19T10:10:19Z</time>
      </trkpt>
      <trkpt lat="43.7608" lon="3.4547">
        <ele>687</ele>
        <time>2017-01-19T10:10:40Z</time>
      </trkpt>
      <trkpt lat="43.76076" lon="3.45469">
        <ele>687</ele>
        <time>2017-01-19T10:10:57Z</time>
      </trkpt>
      <trkpt lat="43.76072" lon="3.45476">
        <ele>686.04</ele>
        <time>2017-01-19T10:11:09Z</time>
      </trkpt>
      <trkpt lat="43.7607" lon="3.45482">
        <ele>686.04</ele>
        <time>2017-01-19T10:11:24Z</time>
      </trkpt>
      <trkpt lat="43.7607" lon="3.45488">
        <ele>686.52</ele>
        <time>2017-01-19T10:11:36Z</time>
      </trkpt>
      <trkpt lat="43.76068" lon="3.45491">
        <ele>686.52</ele>
        <time>2017-01-19T10:11:47Z</time>
      </trkpt>
      <trkpt lat="43.76067" lon="3.45492">
        <ele>686.52</ele>
        <time>2017-01-19T10:11:48Z</time>
      </trkpt>
      <trkpt lat="43.76065" lon="3.45492">
        <ele>685.56</ele>
        <time>2017-01-19T10:11:50Z</time>
      </trkpt>
      <trkpt lat="43.76055" lon="3.45495">
        <ele>687</ele>
        <time>2017-01-19T10:12:04Z</time>
      </trkpt>
      <trkpt lat="43.7605" lon="3.45493">
        <ele>687.48</ele>
        <time>2017-01-19T10:12:17Z</time>
      </trkpt>
      <trkpt lat="43.76041" lon="3.45488">
        <ele>687.48</ele>
        <time>2017-01-19T10:12:28Z</time>
      </trkpt>
      <trkpt lat="43.7603" lon="3.45475">
        <ele>687.48</ele>
        <time>2017-01-19T10:12:41Z</time>
      </trkpt>
      <trkpt lat="43.76025" lon="3.45469">
        <ele>687</ele>
        <time>2017-01-19T10:12:51Z</time>
      </trkpt>
      <trkpt lat="43.76023" lon="3.45469">
        <ele>686.52</ele>
        <time>2017-01-19T10:12:53Z</time>
      </trkpt>
      <trkpt lat="43.7602" lon="3.4547">
        <ele>686.52</ele>
        <time>2017-01-19T10:12:56Z</time>
      </trkpt>
      <trkpt lat="43.76013" lon="3.45467">
        <ele>686.04</ele>
        <time>2017-01-19T10:13:11Z</time>
      </trkpt>
      <trkpt lat="43.76006" lon="3.45465">
        <ele>685.08</ele>
        <time>2017-01-19T10:13:23Z</time>
      </trkpt>
      <trkpt lat="43.76002" lon="3.45468">
        <ele>686.04</ele>
        <time>2017-01-19T10:13:29Z</time>
      </trkpt>
      <trkpt lat="43.75992" lon="3.45467">
        <ele>685.56</ele>
        <time>2017-01-19T10:13:45Z</time>
      </trkpt>
      <trkpt lat="43.75983" lon="3.45464">
        <ele>685.08</ele>
        <time>2017-01-19T10:13:59Z</time>
      </trkpt>
      <trkpt lat="43.7598" lon="3.45464">
        <ele>685.56</ele>
        <time>2017-01-19T10:14:18Z</time>
      </trkpt>
      <trkpt lat="43.75974" lon="3.45465">
        <ele>685.08</ele>
        <time>2017-01-19T10:14:34Z</time>
      </trkpt>
      <trkpt lat="43.75969" lon="3.45467">
        <ele>685.08</ele>
        <time>2017-01-19T10:14:51Z</time>
      </trkpt>
      <trkpt lat="43.75965" lon="3.45465">
        <ele>684.6</ele>
        <time>2017-01-19T10:15:02Z</time>
      </trkpt>
      <trkpt lat="43.75954" lon="3.4546">
        <ele>683.63</ele>
        <time>2017-01-19T10:15:15Z</time>
      </trkpt>
      <trkpt lat="43.7595" lon="3.4546">
        <ele>682.19</ele>
        <time>2017-01-19T10:15:26Z</time>
      </trkpt>
      <trkpt lat="43.7595" lon="3.45457">
        <ele>681.71</ele>
        <time>2017-01-19T10:15:29Z</time>
      </trkpt>
      <trkpt lat="43.75945" lon="3.45451">
        <ele>680.27</ele>
        <time>2017-01-19T10:15:36Z</time>
      </trkpt>
      <trkpt lat="43.75937" lon="3.45448">
        <ele>680.27</ele>
        <time>2017-01-19T10:15:46Z</time>
      </trkpt>
      <trkpt lat="43.75929" lon="3.45451">
        <ele>680.75</ele>
        <time>2017-01-19T10:15:59Z</time>
      </trkpt>
      <trkpt lat="43.75924" lon="3.45455">
        <ele>681.23</ele>
        <time>2017-01-19T10:16:14Z</time>
      </trkpt>
      <trkpt lat="43.75917" lon="3.45459">
        <ele>682.19</ele>
        <time>2017-01-19T10:16:29Z</time>
      </trkpt>
      <trkpt lat="43.7591" lon="3.45466">
        <ele>683.63</ele>
        <time>2017-01-19T10:16:43Z</time>
      </trkpt>
      <trkpt lat="43.75908" lon="3.45482">
        <ele>685.56</ele>
        <time>2017-01-19T10:16:59Z</time>
      </trkpt>
      <trkpt lat="43.75903" lon="3.45491">
        <ele>686.04</ele>
        <time>2017-01-19T10:17:14Z</time>
      </trkpt>
      <trkpt lat="43.7589" lon="3.45491">
        <ele>687</ele>
        <time>2017-01-19T10:17:27Z</time>
      </trkpt>
      <trkpt lat="43.75881" lon="3.45487">
        <ele>689.4</ele>
        <time>2017-01-19T10:17:43Z</time>
      </trkpt>
      <trkpt lat="43.75867" lon="3.45482">
        <ele>689.88</ele>
        <time>2017-01-19T10:17:59Z</time>
      </trkpt>
      <trkpt lat="43.75854" lon="3.45482">
        <ele>689.4</ele>
        <time>2017-01-19T10:18:15Z</time>
      </trkpt>
      <trkpt lat="43.75842" lon="3.4549">
        <ele>689.4</ele>
        <time>2017-01-19T10:18:30Z</time>
      </trkpt>
      <trkpt lat="43.75836" lon="3.45496">
        <ele>688.92</ele>
        <time>2017-01-19T10:18:36Z</time>
      </trkpt>
      <trkpt lat="43.75828" lon="3.4551">
        <ele>690.36</ele>
        <time>2017-01-19T10:18:51Z</time>
      </trkpt>
      <trkpt lat="43.75819" lon="3.45517">
        <ele>690.84</ele>
        <time>2017-01-19T10:19:02Z</time>
      </trkpt>
      <trkpt lat="43.75811" lon="3.45508">
        <ele>690.36</ele>
        <time>2017-01-19T10:19:13Z</time>
      </trkpt>
      <trkpt lat="43.75808" lon="3.45502">
        <ele>690.84</ele>
        <time>2017-01-19T10:19:17Z</time>
      </trkpt>
      <trkpt lat="43.75799" lon="3.45492">
        <ele>690.84</ele>
        <time>2017-01-19T10:19:29Z</time>
      </trkpt>
      <trkpt lat="43.7579" lon="3.4548">
        <ele>690.84</ele>
        <time>2017-01-19T10:19:41Z</time>
      </trkpt>
      <trkpt lat="43.75786" lon="3.45471">
        <ele>689.4</ele>
        <time>2017-01-19T10:19:54Z</time>
      </trkpt>
      <trkpt lat="43.75777" lon="3.45461">
        <ele>687.96</ele>
        <time>2017-01-19T10:20:10Z</time>
      </trkpt>
      <trkpt lat="43.75765" lon="3.45452">
        <ele>686.04</ele>
        <time>2017-01-19T10:20:26Z</time>
      </trkpt>
      <trkpt lat="43.75763" lon="3.45438">
        <ele>683.63</ele>
        <time>2017-01-19T10:20:42Z</time>
      </trkpt>
      <trkpt lat="43.7577" lon="3.45429">
        <ele>682.19</ele>
        <time>2017-01-19T10:20:57Z</time>
      </trkpt>
      <trkpt lat="43.75767" lon="3.45422">
        <ele>680.75</ele>
        <time>2017-01-19T10:21:09Z</time>
      </trkpt>
      <trkpt lat="43.7576" lon="3.4542">
        <ele>679.31</ele>
        <time>2017-01-19T10:21:20Z</time>
      </trkpt>
      <trkpt lat="43.75752" lon="3.45427">
        <ele>677.87</ele>
        <time>2017-01-19T10:21:33Z</time>
      </trkpt>
      <trkpt lat="43.75748" lon="3.45434">
        <ele>675.94</ele>
        <time>2017-01-19T10:21:45Z</time>
      </trkpt>
      <trkpt lat="43.75739" lon="3.45437">
        <ele>674.5</ele>
        <time>2017-01-19T10:21:57Z</time>
      </trkpt>
      <trkpt lat="43.75731" lon="3.45435">
        <ele>673.06</ele>
        <time>2017-01-19T10:22:11Z</time>
      </trkpt>
      <trkpt lat="43.75724" lon="3.45431">
        <ele>671.14</ele>
        <time>2017-01-19T10:22:26Z</time>
      </trkpt>
      <trkpt lat="43.75724" lon="3.45422">
        <ele>668.73</ele>
        <time>2017-01-19T10:22:42Z</time>
      </trkpt>
      <trkpt lat="43.75728" lon="3.45421">
        <ele>667.29</ele>
        <time>2017-01-19T10:22:56Z</time>
      </trkpt>
      <trkpt lat="43.75728" lon="3.45421">
        <ele>667.77</ele>
        <time>2017-01-19T10:23:18Z</time>
      </trkpt>
      <trkpt lat="43.7573" lon="3.45421">
        <ele>667.29</ele>
        <time>2017-01-19T10:23:45Z</time>
      </trkpt>
      <trkpt lat="43.75731" lon="3.45418">
        <ele>667.29</ele>
        <time>2017-01-19T10:23:55Z</time>
      </trkpt>
      <trkpt lat="43.75731" lon="3.45416">
        <ele>667.29</ele>
        <time>2017-01-19T10:24:06Z</time>
      </trkpt>
      <trkpt lat="43.75737" lon="3.45408">
        <ele>664.89</ele>
        <time>2017-01-19T10:24:18Z</time>
      </trkpt>
      <trkpt lat="43.75743" lon="3.45399">
        <ele>661.52</ele>
        <time>2017-01-19T10:24:33Z</time>
      </trkpt>
      <trkpt lat="43.75749" lon="3.45388">
        <ele>660.08</ele>
        <time>2017-01-19T10:24:46Z</time>
      </trkpt>
      <trkpt lat="43.75755" lon="3.45385">
        <ele>658.64</ele>
        <time>2017-01-19T10:24:56Z</time>
      </trkpt>
      <trkpt lat="43.75762" lon="3.45382">
        <ele>657.68</ele>
        <time>2017-01-19T10:25:06Z</time>
      </trkpt>
      <trkpt lat="43.75769" lon="3.45376">
        <ele>657.68</ele>
        <time>2017-01-19T10:25:19Z</time>
      </trkpt>
      <trkpt lat="43.75774" lon="3.45371">
        <ele>656.72</ele>
        <time>2017-01-19T10:25:32Z</time>
      </trkpt>
      <trkpt lat="43.75781" lon="3.45368">
        <ele>655.28</ele>
        <time>2017-01-19T10:25:47Z</time>
      </trkpt>
      <trkpt lat="43.75785" lon="3.45365">
        <ele>653.83</ele>
        <time>2017-01-19T10:26:00Z</time>
      </trkpt>
      <trkpt lat="43.75785" lon="3.45364">
        <ele>653.83</ele>
        <time>2017-01-19T10:26:17Z</time>
      </trkpt>
      <trkpt lat="43.75783" lon="3.45361">
        <ele>653.35</ele>
        <time>2017-01-19T10:26:36Z</time>
      </trkpt>
      <trkpt lat="43.75782" lon="3.45359">
        <ele>653.35</ele>
        <time>2017-01-19T10:27:07Z</time>
      </trkpt>
      <trkpt lat="43.7578" lon="3.4536">
        <ele>652.87</ele>
        <time>2017-01-19T10:27:31Z</time>
      </trkpt>
      <trkpt lat="43.75776" lon="3.45359">
        <ele>651.43</ele>
        <time>2017-01-19T10:27:50Z</time>
      </trkpt>
      <trkpt lat="43.75766" lon="3.45357">
        <ele>648.55</ele>
        <time>2017-01-19T10:28:04Z</time>
      </trkpt>
      <trkpt lat="43.75757" lon="3.4536">
        <ele>647.1</ele>
        <time>2017-01-19T10:28:13Z</time>
      </trkpt>
      <trkpt lat="43.75747" lon="3.45365">
        <ele>645.18</ele>
        <time>2017-01-19T10:28:25Z</time>
      </trkpt>
      <trkpt lat="43.75736" lon="3.4537">
        <ele>642.78</ele>
        <time>2017-01-19T10:28:40Z</time>
      </trkpt>
      <trkpt lat="43.75723" lon="3.45375">
        <ele>641.34</ele>
        <time>2017-01-19T10:28:54Z</time>
      </trkpt>
      <trkpt lat="43.75709" lon="3.45372">
        <ele>639.89</ele>
        <time>2017-01-19T10:29:13Z</time>
      </trkpt>
      <trkpt lat="43.75702" lon="3.45374">
        <ele>638.45</ele>
        <time>2017-01-19T10:29:30Z</time>
      </trkpt>
      <trkpt lat="43.75698" lon="3.45372">
        <ele>637.49</ele>
        <time>2017-01-19T10:29:44Z</time>
      </trkpt>
      <trkpt lat="43.75686" lon="3.45364">
        <ele>634.61</ele>
        <time>2017-01-19T10:29:58Z</time>
      </trkpt>
      <trkpt lat="43.75673" lon="3.45368">
        <ele>635.09</ele>
        <time>2017-01-19T10:30:15Z</time>
      </trkpt>
      <trkpt lat="43.75656" lon="3.45368">
        <ele>633.65</ele>
        <time>2017-01-19T10:30:34Z</time>
      </trkpt>
      <trkpt lat="43.75644" lon="3.45373">
        <ele>632.2</ele>
        <time>2017-01-19T10:30:52Z</time>
      </trkpt>
      <trkpt lat="43.75631" lon="3.45365">
        <ele>630.28</ele>
        <time>2017-01-19T10:31:10Z</time>
      </trkpt>
      <trkpt lat="43.75619" lon="3.45353">
        <ele>630.28</ele>
        <time>2017-01-19T10:31:27Z</time>
      </trkpt>
      <trkpt lat="43.75603" lon="3.45352">
        <ele>629.32</ele>
        <time>2017-01-19T10:31:46Z</time>
      </trkpt>
      <trkpt lat="43.75588" lon="3.45343">
        <ele>631.24</ele>
        <time>2017-01-19T10:32:05Z</time>
      </trkpt>
      <trkpt lat="43.75588" lon="3.45325">
        <ele>629.8</ele>
        <time>2017-01-19T10:32:23Z</time>
      </trkpt>
      <trkpt lat="43.75585" lon="3.45311">
        <ele>629.8</ele>
        <time>2017-01-19T10:32:40Z</time>
      </trkpt>
      <trkpt lat="43.75577" lon="3.45301">
        <ele>628.36</ele>
        <time>2017-01-19T10:32:57Z</time>
      </trkpt>
      <trkpt lat="43.75566" lon="3.453">
        <ele>627.4</ele>
        <time>2017-01-19T10:33:14Z</time>
      </trkpt>
      <trkpt lat="43.75549" lon="3.45303">
        <ele>625.47</ele>
        <time>2017-01-19T10:33:32Z</time>
      </trkpt>
      <trkpt lat="43.75538" lon="3.45312">
        <ele>624.51</ele>
        <time>2017-01-19T10:33:49Z</time>
      </trkpt>
      <trkpt lat="43.75526" lon="3.45319">
        <ele>623.55</ele>
        <time>2017-01-19T10:34:05Z</time>
      </trkpt>
      <trkpt lat="43.75505" lon="3.4532">
        <ele>621.15</ele>
        <time>2017-01-19T10:34:26Z</time>
      </trkpt>
      <trkpt lat="43.75493" lon="3.45329">
        <ele>619.23</ele>
        <time>2017-01-19T10:34:46Z</time>
      </trkpt>
      <trkpt lat="43.75479" lon="3.45328">
        <ele>620.67</ele>
        <time>2017-01-19T10:35:07Z</time>
      </trkpt>
      <trkpt lat="43.75467" lon="3.45302">
        <ele>619.71</ele>
        <time>2017-01-19T10:35:26Z</time>
      </trkpt>
      <trkpt lat="43.75461" lon="3.45285">
        <ele>619.71</ele>
        <time>2017-01-19T10:35:42Z</time>
      </trkpt>
      <trkpt lat="43.75458" lon="3.45265">
        <ele>618.26</ele>
        <time>2017-01-19T10:36:03Z</time>
      </trkpt>
      <trkpt lat="43.75457" lon="3.45236">
        <ele>617.3</ele>
        <time>2017-01-19T10:36:23Z</time>
      </trkpt>
      <trkpt lat="43.75452" lon="3.45215">
        <ele>617.78</ele>
        <time>2017-01-19T10:36:43Z</time>
      </trkpt>
      <trkpt lat="43.75442" lon="3.45207">
        <ele>617.78</ele>
        <time>2017-01-19T10:37:01Z</time>
      </trkpt>
      <trkpt lat="43.75431" lon="3.45196">
        <ele>615.86</ele>
        <time>2017-01-19T10:37:18Z</time>
      </trkpt>
      <trkpt lat="43.75419" lon="3.45179">
        <ele>612.98</ele>
        <time>2017-01-19T10:37:38Z</time>
      </trkpt>
      <trkpt lat="43.7541" lon="3.45173">
        <ele>611.54</ele>
        <time>2017-01-19T10:37:53Z</time>
      </trkpt>
      <trkpt lat="43.75394" lon="3.45159">
        <ele>611.06</ele>
        <time>2017-01-19T10:38:15Z</time>
      </trkpt>
      <trkpt lat="43.75379" lon="3.45151">
        <ele>612.02</ele>
        <time>2017-01-19T10:38:35Z</time>
      </trkpt>
      <trkpt lat="43.75367" lon="3.45154">
        <ele>610.57</ele>
        <time>2017-01-19T10:38:54Z</time>
      </trkpt>
      <trkpt lat="43.75357" lon="3.45165">
        <ele>611.54</ele>
        <time>2017-01-19T10:39:11Z</time>
      </trkpt>
      <trkpt lat="43.75347" lon="3.45181">
        <ele>612.5</ele>
        <time>2017-01-19T10:39:32Z</time>
      </trkpt>
      <trkpt lat="43.75338" lon="3.45196">
        <ele>610.09</ele>
        <time>2017-01-19T10:39:51Z</time>
      </trkpt>
      <trkpt lat="43.75325" lon="3.45207">
        <ele>608.17</ele>
        <time>2017-01-19T10:40:12Z</time>
      </trkpt>
      <trkpt lat="43.75298" lon="3.45193">
        <ele>606.73</ele>
        <time>2017-01-19T10:40:31Z</time>
      </trkpt>
      <trkpt lat="43.75283" lon="3.45174">
        <ele>607.21</ele>
        <time>2017-01-19T10:40:50Z</time>
      </trkpt>
      <trkpt lat="43.75273" lon="3.4516">
        <ele>609.13</ele>
        <time>2017-01-19T10:41:06Z</time>
      </trkpt>
      <trkpt lat="43.75261" lon="3.45145">
        <ele>610.09</ele>
        <time>2017-01-19T10:41:25Z</time>
      </trkpt>
      <trkpt lat="43.75249" lon="3.45136">
        <ele>612.02</ele>
        <time>2017-01-19T10:41:43Z</time>
      </trkpt>
      <trkpt lat="43.75244" lon="3.45126">
        <ele>612.5</ele>
        <time>2017-01-19T10:41:57Z</time>
      </trkpt>
      <trkpt lat="43.75231" lon="3.45111">
        <ele>610.57</ele>
        <time>2017-01-19T10:42:17Z</time>
      </trkpt>
      <trkpt lat="43.75223" lon="3.45103">
        <ele>610.09</ele>
        <time>2017-01-19T10:42:34Z</time>
      </trkpt>
      <trkpt lat="43.75222" lon="3.45103">
        <ele>610.09</ele>
        <time>2017-01-19T10:43:09Z</time>
      </trkpt>
      <trkpt lat="43.7522" lon="3.451">
        <ele>610.57</ele>
        <time>2017-01-19T10:43:31Z</time>
      </trkpt>
      <trkpt lat="43.7522" lon="3.451">
        <ele>610.57</ele>
        <time>2017-01-19T10:43:45Z</time>
      </trkpt>
      <trkpt lat="43.75211" lon="3.45101">
        <ele>609.61</ele>
        <time>2017-01-19T10:44:05Z</time>
      </trkpt>
      <trkpt lat="43.75204" lon="3.45095">
        <ele>607.69</ele>
        <time>2017-01-19T10:44:19Z</time>
      </trkpt>
      <trkpt lat="43.75199" lon="3.45087">
        <ele>605.29</ele>
        <time>2017-01-19T10:44:33Z</time>
      </trkpt>
      <trkpt lat="43.75195" lon="3.45078">
        <ele>602.88</ele>
        <time>2017-01-19T10:44:47Z</time>
      </trkpt>
      <trkpt lat="43.75188" lon="3.45063">
        <ele>601.44</ele>
        <time>2017-01-19T10:45:00Z</time>
      </trkpt>
      <trkpt lat="43.75185" lon="3.45061">
        <ele>600.48</ele>
        <time>2017-01-19T10:45:13Z</time>
      </trkpt>
      <trkpt lat="43.7518" lon="3.45056">
        <ele>599.52</ele>
        <time>2017-01-19T10:45:25Z</time>
      </trkpt>
      <trkpt lat="43.75173" lon="3.45048">
        <ele>598.08</ele>
        <time>2017-01-19T10:45:40Z</time>
      </trkpt>
      <trkpt lat="43.75165" lon="3.45047">
        <ele>597.12</ele>
        <time>2017-01-19T10:45:55Z</time>
      </trkpt>
      <trkpt lat="43.75157" lon="3.45044">
        <ele>595.19</ele>
        <time>2017-01-19T10:46:09Z</time>
      </trkpt>
      <trkpt lat="43.75151" lon="3.4504">
        <ele>593.75</ele>
        <time>2017-01-19T10:46:21Z</time>
      </trkpt>
      <trkpt lat="43.75143" lon="3.45039">
        <ele>593.27</ele>
        <time>2017-01-19T10:46:33Z</time>
      </trkpt>
      <trkpt lat="43.75141" lon="3.45037">
        <ele>593.27</ele>
        <time>2017-01-19T10:46:50Z</time>
      </trkpt>
      <trkpt lat="43.75128" lon="3.45031">
        <ele>589.91</ele>
        <time>2017-01-19T10:47:05Z</time>
      </trkpt>
      <trkpt lat="43.75127" lon="3.45031">
        <ele>589.43</ele>
        <time>2017-01-19T10:47:06Z</time>
      </trkpt>
      <trkpt lat="43.75118" lon="3.45027">
        <ele>587.98</ele>
        <time>2017-01-19T10:47:20Z</time>
      </trkpt>
      <trkpt lat="43.75106" lon="3.4502">
        <ele>586.54</ele>
        <time>2017-01-19T10:47:32Z</time>
      </trkpt>
      <trkpt lat="43.75094" lon="3.4501">
        <ele>587.02</ele>
        <time>2017-01-19T10:47:48Z</time>
      </trkpt>
      <trkpt lat="43.75081" lon="3.45001">
        <ele>587.5</ele>
        <time>2017-01-19T10:48:02Z</time>
      </trkpt>
      <trkpt lat="43.75067" lon="3.44991">
        <ele>587.02</ele>
        <time>2017-01-19T10:48:19Z</time>
      </trkpt>
      <trkpt lat="43.75066" lon="3.44989">
        <ele>586.54</ele>
        <time>2017-01-19T10:48:20Z</time>
      </trkpt>
      <trkpt lat="43.75054" lon="3.44975">
        <ele>585.58</ele>
        <time>2017-01-19T10:48:36Z</time>
      </trkpt>
      <trkpt lat="43.7505" lon="3.4497">
        <ele>585.1</ele>
        <time>2017-01-19T10:48:47Z</time>
      </trkpt>
      <trkpt lat="43.75041" lon="3.44965">
        <ele>583.66</ele>
        <time>2017-01-19T10:49:00Z</time>
      </trkpt>
      <trkpt lat="43.75037" lon="3.44964">
        <ele>583.18</ele>
        <time>2017-01-19T10:49:04Z</time>
      </trkpt>
      <trkpt lat="43.75025" lon="3.44968">
        <ele>582.7</ele>
        <time>2017-01-19T10:49:19Z</time>
      </trkpt>
      <trkpt lat="43.75011" lon="3.44966">
        <ele>580.29</ele>
        <time>2017-01-19T10:49:35Z</time>
      </trkpt>
      <trkpt lat="43.74996" lon="3.4496">
        <ele>577.89</ele>
        <time>2017-01-19T10:49:54Z</time>
      </trkpt>
      <trkpt lat="43.74984" lon="3.44959">
        <ele>575.49</ele>
        <time>2017-01-19T10:50:10Z</time>
      </trkpt>
      <trkpt lat="43.74986" lon="3.44947">
        <ele>574.04</ele>
        <time>2017-01-19T10:50:26Z</time>
      </trkpt>
      <trkpt lat="43.74991" lon="3.44934">
        <ele>571.64</ele>
        <time>2017-01-19T10:50:42Z</time>
      </trkpt>
      <trkpt lat="43.74989" lon="3.44925">
        <ele>569.72</ele>
        <time>2017-01-19T10:50:57Z</time>
      </trkpt>
      <trkpt lat="43.74987" lon="3.44911">
        <ele>567.8</ele>
        <time>2017-01-19T10:51:13Z</time>
      </trkpt>
      <trkpt lat="43.74985" lon="3.44906">
        <ele>566.83</ele>
        <time>2017-01-19T10:51:30Z</time>
      </trkpt>
      <trkpt lat="43.74983" lon="3.44905">
        <ele>566.83</ele>
        <time>2017-01-19T10:51:36Z</time>
      </trkpt>
      <trkpt lat="43.74981" lon="3.449">
        <ele>566.35</ele>
        <time>2017-01-19T10:51:42Z</time>
      </trkpt>
      <trkpt lat="43.7498" lon="3.44893">
        <ele>565.39</ele>
        <time>2017-01-19T10:51:46Z</time>
      </trkpt>
      <trkpt lat="43.74977" lon="3.44885">
        <ele>564.43</ele>
        <time>2017-01-19T10:51:52Z</time>
      </trkpt>
      <trkpt lat="43.74965" lon="3.44875">
        <ele>561.55</ele>
        <time>2017-01-19T10:52:07Z</time>
      </trkpt>
      <trkpt lat="43.74963" lon="3.44868">
        <ele>561.55</ele>
        <time>2017-01-19T10:52:12Z</time>
      </trkpt>
      <trkpt lat="43.7496" lon="3.44862">
        <ele>561.07</ele>
        <time>2017-01-19T10:52:17Z</time>
      </trkpt>
      <trkpt lat="43.74949" lon="3.44852">
        <ele>561.55</ele>
        <time>2017-01-19T10:52:32Z</time>
      </trkpt>
      <trkpt lat="43.74944" lon="3.44842">
        <ele>561.07</ele>
        <time>2017-01-19T10:52:46Z</time>
      </trkpt>
      <trkpt lat="43.74944" lon="3.44836">
        <ele>560.59</ele>
        <time>2017-01-19T10:53:00Z</time>
      </trkpt>
      <trkpt lat="43.74942" lon="3.44828">
        <ele>559.14</ele>
        <time>2017-01-19T10:53:31Z</time>
      </trkpt>
      <trkpt lat="43.74933" lon="3.44815">
        <ele>559.62</ele>
        <time>2017-01-19T10:53:48Z</time>
      </trkpt>
      <trkpt lat="43.74928" lon="3.44799">
        <ele>558.66</ele>
        <time>2017-01-19T10:54:03Z</time>
      </trkpt>
      <trkpt lat="43.74935" lon="3.44782">
        <ele>557.22</ele>
        <time>2017-01-19T10:54:19Z</time>
      </trkpt>
      <trkpt lat="43.7494" lon="3.44769">
        <ele>555.78</ele>
        <time>2017-01-19T10:54:32Z</time>
      </trkpt>
      <trkpt lat="43.74935" lon="3.4476">
        <ele>555.78</ele>
        <time>2017-01-19T10:54:43Z</time>
      </trkpt>
      <trkpt lat="43.74935" lon="3.44748">
        <ele>555.3</ele>
        <time>2017-01-19T10:54:55Z</time>
      </trkpt>
      <trkpt lat="43.74939" lon="3.44737">
        <ele>554.34</ele>
        <time>2017-01-19T10:55:08Z</time>
      </trkpt>
      <trkpt lat="43.74942" lon="3.44725">
        <ele>552.9</ele>
        <time>2017-01-19T10:55:22Z</time>
      </trkpt>
      <trkpt lat="43.74943" lon="3.44718">
        <ele>552.41</ele>
        <time>2017-01-19T10:55:27Z</time>
      </trkpt>
      <trkpt lat="43.74935" lon="3.44697">
        <ele>551.93</ele>
        <time>2017-01-19T10:55:44Z</time>
      </trkpt>
      <trkpt lat="43.74928" lon="3.44689">
        <ele>551.45</ele>
        <time>2017-01-19T10:55:58Z</time>
      </trkpt>
      <trkpt lat="43.74917" lon="3.44674">
        <ele>550.49</ele>
        <time>2017-01-19T10:56:13Z</time>
      </trkpt>
      <trkpt lat="43.74909" lon="3.44666">
        <ele>549.53</ele>
        <time>2017-01-19T10:56:27Z</time>
      </trkpt>
      <trkpt lat="43.74903" lon="3.44655">
        <ele>548.09</ele>
        <time>2017-01-19T10:56:41Z</time>
      </trkpt>
      <trkpt lat="43.74894" lon="3.44646">
        <ele>545.69</ele>
        <time>2017-01-19T10:56:57Z</time>
      </trkpt>
      <trkpt lat="43.74886" lon="3.44637">
        <ele>544.72</ele>
        <time>2017-01-19T10:57:14Z</time>
      </trkpt>
      <trkpt lat="43.7488" lon="3.44632">
        <ele>543.76</ele>
        <time>2017-01-19T10:57:27Z</time>
      </trkpt>
      <trkpt lat="43.74872" lon="3.44623">
        <ele>543.28</ele>
        <time>2017-01-19T10:57:43Z</time>
      </trkpt>
      <trkpt lat="43.74871" lon="3.44615">
        <ele>541.84</ele>
        <time>2017-01-19T10:57:53Z</time>
      </trkpt>
      <trkpt lat="43.74864" lon="3.44609">
        <ele>540.4</ele>
        <time>2017-01-19T10:58:03Z</time>
      </trkpt>
      <trkpt lat="43.74858" lon="3.44598">
        <ele>538.48</ele>
        <time>2017-01-19T10:58:21Z</time>
      </trkpt>
      <trkpt lat="43.74856" lon="3.44593">
        <ele>537.03</ele>
        <time>2017-01-19T10:58:28Z</time>
      </trkpt>
      <trkpt lat="43.74846" lon="3.4458">
        <ele>535.59</ele>
        <time>2017-01-19T10:58:43Z</time>
      </trkpt>
      <trkpt lat="43.74837" lon="3.44561">
        <ele>533.19</ele>
        <time>2017-01-19T10:59:03Z</time>
      </trkpt>
      <trkpt lat="43.74833" lon="3.44543">
        <ele>530.3</ele>
        <time>2017-01-19T10:59:25Z</time>
      </trkpt>
      <trkpt lat="43.74835" lon="3.44528">
        <ele>527.42</ele>
        <time>2017-01-19T10:59:42Z</time>
      </trkpt>
      <trkpt lat="43.74835" lon="3.44516">
        <ele>524.06</ele>
        <time>2017-01-19T11:00:04Z</time>
      </trkpt>
      <trkpt lat="43.74834" lon="3.44496">
        <ele>520.69</ele>
        <time>2017-01-19T11:00:27Z</time>
      </trkpt>
      <trkpt lat="43.74833" lon="3.44479">
        <ele>519.73</ele>
        <time>2017-01-19T11:00:47Z</time>
      </trkpt>
      <trkpt lat="43.74832" lon="3.44472">
        <ele>519.73</ele>
        <time>2017-01-19T11:01:12Z</time>
      </trkpt>
      <trkpt lat="43.74834" lon="3.44471">
        <ele>518.77</ele>
        <time>2017-01-19T11:01:27Z</time>
      </trkpt>
      <trkpt lat="43.74833" lon="3.44472">
        <ele>519.25</ele>
        <time>2017-01-19T11:01:34Z</time>
      </trkpt>
      <trkpt lat="43.74829" lon="3.44453">
        <ele>517.81</ele>
        <time>2017-01-19T11:01:44Z</time>
      </trkpt>
      <trkpt lat="43.74827" lon="3.44446">
        <ele>517.33</ele>
        <time>2017-01-19T11:01:49Z</time>
      </trkpt>
      <trkpt lat="43.74825" lon="3.4444">
        <ele>516.85</ele>
        <time>2017-01-19T11:01:53Z</time>
      </trkpt>
      <trkpt lat="43.74824" lon="3.44431">
        <ele>516.85</ele>
        <time>2017-01-19T11:02:07Z</time>
      </trkpt>
      <trkpt lat="43.74825" lon="3.44428">
        <ele>516.85</ele>
        <time>2017-01-19T11:02:22Z</time>
      </trkpt>
      <trkpt lat="43.74824" lon="3.44427">
        <ele>516.85</ele>
        <time>2017-01-19T11:02:35Z</time>
      </trkpt>
      <trkpt lat="43.74824" lon="3.44428">
        <ele>516.37</ele>
        <time>2017-01-19T11:02:49Z</time>
      </trkpt>
      <trkpt lat="43.74827" lon="3.44432">
        <ele>516.37</ele>
        <time>2017-01-19T11:03:05Z</time>
      </trkpt>
      <trkpt lat="43.74827" lon="3.44431">
        <ele>516.85</ele>
        <time>2017-01-19T11:03:23Z</time>
      </trkpt>
      <trkpt lat="43.74827" lon="3.44432">
        <ele>516.37</ele>
        <time>2017-01-19T11:03:29Z</time>
      </trkpt>
      <trkpt lat="43.74829" lon="3.44442">
        <ele>517.33</ele>
        <time>2017-01-19T11:03:35Z</time>
      </trkpt>
      <trkpt lat="43.74831" lon="3.4445">
        <ele>517.81</ele>
        <time>2017-01-19T11:03:40Z</time>
      </trkpt>
      <trkpt lat="43.74839" lon="3.44457">
        <ele>516.37</ele>
        <time>2017-01-19T11:03:47Z</time>
      </trkpt>
      <trkpt lat="43.74841" lon="3.4446">
        <ele>515.4</ele>
        <time>2017-01-19T11:04:00Z</time>
      </trkpt>
      <trkpt lat="43.74846" lon="3.44458">
        <ele>515.88</ele>
        <time>2017-01-19T11:04:22Z</time>
      </trkpt>
      <trkpt lat="43.74844" lon="3.44459">
        <ele>515.88</ele>
        <time>2017-01-19T11:05:02Z</time>
      </trkpt>
      <trkpt lat="43.74846" lon="3.4446">
        <ele>515.88</ele>
        <time>2017-01-19T11:05:10Z</time>
      </trkpt>
      <trkpt lat="43.74831" lon="3.44449">
        <ele>517.33</ele>
        <time>2017-01-19T11:05:24Z</time>
      </trkpt>
      <trkpt lat="43.7483" lon="3.44448">
        <ele>517.33</ele>
        <time>2017-01-19T11:05:25Z</time>
      </trkpt>
      <trkpt lat="43.74828" lon="3.4444">
        <ele>517.33</ele>
        <time>2017-01-19T11:05:31Z</time>
      </trkpt>
      <trkpt lat="43.74827" lon="3.44432">
        <ele>517.33</ele>
        <time>2017-01-19T11:05:47Z</time>
      </trkpt>
      <trkpt lat="43.74826" lon="3.4443">
        <ele>516.37</ele>
        <time>2017-01-19T11:06:02Z</time>
      </trkpt>
      <trkpt lat="43.74826" lon="3.4443">
        <ele>515.88</ele>
        <time>2017-01-19T11:06:21Z</time>
      </trkpt>
      <trkpt lat="43.74826" lon="3.4443">
        <ele>515.88</ele>
        <time>2017-01-19T11:06:39Z</time>
      </trkpt>
      <trkpt lat="43.74826" lon="3.4443">
        <ele>515.88</ele>
        <time>2017-01-19T11:07:07Z</time>
      </trkpt>
      <trkpt lat="43.74826" lon="3.44429">
        <ele>515.88</ele>
        <time>2017-01-19T11:07:31Z</time>
      </trkpt>
      <trkpt lat="43.74826" lon="3.4443">
        <ele>516.37</ele>
        <time>2017-01-19T11:07:53Z</time>
      </trkpt>
      <trkpt lat="43.74827" lon="3.44431">
        <ele>516.37</ele>
        <time>2017-01-19T11:08:16Z</time>
      </trkpt>
      <trkpt lat="43.74827" lon="3.44431">
        <ele>516.37</ele>
        <time>2017-01-19T11:08:38Z</time>
      </trkpt>
      <trkpt lat="43.74827" lon="3.44431">
        <ele>516.85</ele>
        <time>2017-01-19T11:09:03Z</time>
      </trkpt>
      <trkpt lat="43.74831" lon="3.44427">
        <ele>516.85</ele>
        <time>2017-01-19T11:09:38Z</time>
      </trkpt>
      <trkpt lat="43.74829" lon="3.44428">
        <ele>517.33</ele>
        <time>2017-01-19T11:10:08Z</time>
      </trkpt>
      <trkpt lat="43.74826" lon="3.44426">
        <ele>517.33</ele>
        <time>2017-01-19T11:10:40Z</time>
      </trkpt>
      <trkpt lat="43.74828" lon="3.4443">
        <ele>517.81</ele>
        <time>2017-01-19T11:11:15Z</time>
      </trkpt>
      <trkpt lat="43.74829" lon="3.44431">
        <ele>517.81</ele>
        <time>2017-01-19T11:11:53Z</time>
      </trkpt>
      <trkpt lat="43.74829" lon="3.44429">
        <ele>517.81</ele>
        <time>2017-01-19T11:12:29Z</time>
      </trkpt>
      <trkpt lat="43.74828" lon="3.4443">
        <ele>517.81</ele>
        <time>2017-01-19T11:12:58Z</time>
      </trkpt>
      <trkpt lat="43.74827" lon="3.4443">
        <ele>518.29</ele>
        <time>2017-01-19T11:13:21Z</time>
      </trkpt>
      <trkpt lat="43.74826" lon="3.44429">
        <ele>518.29</ele>
        <time>2017-01-19T11:13:42Z</time>
      </trkpt>
      <trkpt lat="43.74825" lon="3.44427">
        <ele>518.77</ele>
        <time>2017-01-19T11:14:02Z</time>
      </trkpt>
      <trkpt lat="43.74824" lon="3.44427">
        <ele>518.29</ele>
        <time>2017-01-19T11:14:29Z</time>
      </trkpt>
      <trkpt lat="43.74825" lon="3.44427">
        <ele>518.77</ele>
        <time>2017-01-19T11:14:53Z</time>
      </trkpt>
      <trkpt lat="43.74824" lon="3.44427">
        <ele>518.77</ele>
        <time>2017-01-19T11:15:22Z</time>
      </trkpt>
      <trkpt lat="43.74825" lon="3.44426">
        <ele>518.77</ele>
        <time>2017-01-19T11:15:48Z</time>
      </trkpt>
      <trkpt lat="43.74824" lon="3.44427">
        <ele>518.77</ele>
        <time>2017-01-19T11:16:17Z</time>
      </trkpt>
      <trkpt lat="43.74824" lon="3.44427">
        <ele>518.77</ele>
        <time>2017-01-19T11:16:49Z</time>
      </trkpt>
      <trkpt lat="43.74823" lon="3.44428">
        <ele>518.77</ele>
        <time>2017-01-19T11:17:14Z</time>
      </trkpt>
      <trkpt lat="43.74823" lon="3.44427">
        <ele>519.25</ele>
        <time>2017-01-19T11:17:45Z</time>
      </trkpt>
      <trkpt lat="43.74825" lon="3.44428">
        <ele>519.25</ele>
        <time>2017-01-19T11:18:09Z</time>
      </trkpt>
      <trkpt lat="43.74825" lon="3.44427">
        <ele>519.25</ele>
        <time>2017-01-19T11:18:35Z</time>
      </trkpt>
      <trkpt lat="43.74829" lon="3.44429">
        <ele>519.73</ele>
        <time>2017-01-19T11:19:09Z</time>
      </trkpt>
      <trkpt lat="43.74826" lon="3.44429">
        <ele>519.73</ele>
        <time>2017-01-19T11:19:37Z</time>
      </trkpt>
      <trkpt lat="43.74826" lon="3.44429">
        <ele>519.73</ele>
        <time>2017-01-19T11:20:01Z</time>
      </trkpt>
      <trkpt lat="43.74826" lon="3.4443">
        <ele>519.73</ele>
        <time>2017-01-19T11:20:26Z</time>
      </trkpt>
      <trkpt lat="43.74827" lon="3.44431">
        <ele>520.21</ele>
        <time>2017-01-19T11:20:56Z</time>
      </trkpt>
      <trkpt lat="43.74826" lon="3.44429">
        <ele>520.21</ele>
        <time>2017-01-19T11:21:14Z</time>
      </trkpt>
      <trkpt lat="43.74826" lon="3.44429">
        <ele>520.21</ele>
        <time>2017-01-19T11:21:40Z</time>
      </trkpt>
      <trkpt lat="43.74825" lon="3.44429">
        <ele>520.21</ele>
        <time>2017-01-19T11:22:04Z</time>
      </trkpt>
      <trkpt lat="43.74826" lon="3.44428">
        <ele>520.21</ele>
        <time>2017-01-19T11:22:31Z</time>
      </trkpt>
      <trkpt lat="43.74827" lon="3.44429">
        <ele>520.69</ele>
        <time>2017-01-19T11:23:07Z</time>
      </trkpt>
      <trkpt lat="43.74826" lon="3.44428">
        <ele>520.69</ele>
        <time>2017-01-19T11:23:38Z</time>
      </trkpt>
      <trkpt lat="43.74826" lon="3.44429">
        <ele>520.21</ele>
        <time>2017-01-19T11:24:08Z</time>
      </trkpt>
      <trkpt lat="43.74824" lon="3.44428">
        <ele>520.69</ele>
        <time>2017-01-19T11:24:37Z</time>
      </trkpt>
      <trkpt lat="43.74826" lon="3.44426">
        <ele>520.69</ele>
        <time>2017-01-19T11:25:03Z</time>
      </trkpt>
      <trkpt lat="43.74825" lon="3.44427">
        <ele>520.69</ele>
        <time>2017-01-19T11:25:36Z</time>
      </trkpt>
      <trkpt lat="43.74824" lon="3.44427">
        <ele>520.69</ele>
        <time>2017-01-19T11:26:15Z</time>
      </trkpt>
      <trkpt lat="43.74827" lon="3.4443">
        <ele>520.69</ele>
        <time>2017-01-19T11:26:46Z</time>
      </trkpt>
      <trkpt lat="43.74826" lon="3.44431">
        <ele>520.69</ele>
        <time>2017-01-19T11:27:05Z</time>
      </trkpt>
      <trkpt lat="43.74827" lon="3.44429">
        <ele>520.69</ele>
        <time>2017-01-19T11:27:30Z</time>
      </trkpt>
      <trkpt lat="43.74826" lon="3.44432">
        <ele>522.13</ele>
        <time>2017-01-19T11:27:42Z</time>
      </trkpt>
      <trkpt lat="43.74826" lon="3.44431">
        <ele>521.65</ele>
        <time>2017-01-19T11:27:54Z</time>
      </trkpt>
      <trkpt lat="43.74825" lon="3.44431">
        <ele>521.65</ele>
        <time>2017-01-19T11:28:09Z</time>
      </trkpt>
      <trkpt lat="43.74825" lon="3.4443">
        <ele>521.17</ele>
        <time>2017-01-19T11:28:32Z</time>
      </trkpt>
      <trkpt lat="43.74825" lon="3.44432">
        <ele>521.17</ele>
        <time>2017-01-19T11:28:55Z</time>
      </trkpt>
      <trkpt lat="43.74824" lon="3.44432">
        <ele>521.17</ele>
        <time>2017-01-19T11:29:14Z</time>
      </trkpt>
      <trkpt lat="43.74824" lon="3.44433">
        <ele>521.17</ele>
        <time>2017-01-19T11:29:39Z</time>
      </trkpt>
      <trkpt lat="43.74825" lon="3.44431">
        <ele>521.65</ele>
        <time>2017-01-19T11:30:09Z</time>
      </trkpt>
      <trkpt lat="43.74825" lon="3.44431">
        <ele>521.17</ele>
        <time>2017-01-19T11:30:42Z</time>
      </trkpt>
      <trkpt lat="43.74824" lon="3.44434">
        <ele>521.65</ele>
        <time>2017-01-19T11:31:14Z</time>
      </trkpt>
      <trkpt lat="43.74824" lon="3.44435">
        <ele>521.65</ele>
        <time>2017-01-19T11:31:55Z</time>
      </trkpt>
      <trkpt lat="43.74821" lon="3.44434">
        <ele>521.65</ele>
        <time>2017-01-19T11:32:27Z</time>
      </trkpt>
      <trkpt lat="43.74823" lon="3.44434">
        <ele>521.65</ele>
        <time>2017-01-19T11:32:48Z</time>
      </trkpt>
      <trkpt lat="43.74825" lon="3.4443">
        <ele>522.61</ele>
        <time>2017-01-19T11:33:08Z</time>
      </trkpt>
      <trkpt lat="43.74827" lon="3.44423">
        <ele>522.61</ele>
        <time>2017-01-19T11:33:41Z</time>
      </trkpt>
      <trkpt lat="43.74826" lon="3.44427">
        <ele>522.61</ele>
        <time>2017-01-19T11:34:02Z</time>
      </trkpt>
      <trkpt lat="43.74824" lon="3.44431">
        <ele>522.61</ele>
        <time>2017-01-19T11:34:19Z</time>
      </trkpt>
      <trkpt lat="43.74825" lon="3.44428">
        <ele>522.61</ele>
        <time>2017-01-19T11:34:32Z</time>
      </trkpt>
      <trkpt lat="43.74826" lon="3.44429">
        <ele>521.65</ele>
        <time>2017-01-19T11:34:56Z</time>
      </trkpt>
      <trkpt lat="43.74826" lon="3.44433">
        <ele>522.13</ele>
        <time>2017-01-19T11:35:13Z</time>
      </trkpt>
      <trkpt lat="43.74822" lon="3.44434">
        <ele>522.13</ele>
        <time>2017-01-19T11:35:40Z</time>
      </trkpt>
      <trkpt lat="43.74825" lon="3.44432">
        <ele>522.61</ele>
        <time>2017-01-19T11:35:57Z</time>
      </trkpt>
      <trkpt lat="43.74825" lon="3.44429">
        <ele>522.61</ele>
        <time>2017-01-19T11:36:15Z</time>
      </trkpt>
      <trkpt lat="43.74825" lon="3.44431">
        <ele>522.61</ele>
        <time>2017-01-19T11:36:30Z</time>
      </trkpt>
      <trkpt lat="43.74825" lon="3.4443">
        <ele>522.61</ele>
        <time>2017-01-19T11:36:44Z</time>
      </trkpt>
      <trkpt lat="43.74824" lon="3.44431">
        <ele>523.09</ele>
        <time>2017-01-19T11:36:58Z</time>
      </trkpt>
      <trkpt lat="43.74824" lon="3.44431">
        <ele>523.09</ele>
        <time>2017-01-19T11:37:22Z</time>
      </trkpt>
      <trkpt lat="43.74823" lon="3.44429">
        <ele>523.58</ele>
        <time>2017-01-19T11:37:52Z</time>
      </trkpt>
      <trkpt lat="43.74826" lon="3.44428">
        <ele>523.09</ele>
        <time>2017-01-19T11:38:19Z</time>
      </trkpt>
      <trkpt lat="43.74826" lon="3.44428">
        <ele>523.09</ele>
        <time>2017-01-19T11:38:49Z</time>
      </trkpt>
      <trkpt lat="43.74829" lon="3.44427">
        <ele>523.09</ele>
        <time>2017-01-19T11:39:34Z</time>
      </trkpt>
      <trkpt lat="43.74825" lon="3.44428">
        <ele>523.58</ele>
        <time>2017-01-19T11:40:04Z</time>
      </trkpt>
      <trkpt lat="43.74822" lon="3.44428">
        <ele>523.09</ele>
        <time>2017-01-19T11:40:24Z</time>
      </trkpt>
      <trkpt lat="43.7482" lon="3.44424">
        <ele>523.09</ele>
        <time>2017-01-19T11:40:38Z</time>
      </trkpt>
      <trkpt lat="43.74817" lon="3.44421">
        <ele>522.61</ele>
        <time>2017-01-19T11:40:42Z</time>
      </trkpt>
      <trkpt lat="43.74811" lon="3.44413">
        <ele>522.13</ele>
        <time>2017-01-19T11:40:52Z</time>
      </trkpt>
      <trkpt lat="43.7481" lon="3.44411">
        <ele>522.13</ele>
        <time>2017-01-19T11:40:54Z</time>
      </trkpt>
      <trkpt lat="43.74807" lon="3.4441">
        <ele>522.13</ele>
        <time>2017-01-19T11:40:57Z</time>
      </trkpt>
      <trkpt lat="43.74791" lon="3.44397">
        <ele>521.17</ele>
        <time>2017-01-19T11:41:15Z</time>
      </trkpt>
      <trkpt lat="43.74776" lon="3.44385">
        <ele>520.21</ele>
        <time>2017-01-19T11:41:32Z</time>
      </trkpt>
      <trkpt lat="43.7476" lon="3.44368">
        <ele>519.73</ele>
        <time>2017-01-19T11:41:48Z</time>
      </trkpt>
      <trkpt lat="43.74757" lon="3.44365">
        <ele>519.25</ele>
        <time>2017-01-19T11:41:51Z</time>
      </trkpt>
      <trkpt lat="43.74752" lon="3.44361">
        <ele>519.25</ele>
        <time>2017-01-19T11:41:56Z</time>
      </trkpt>
      <trkpt lat="43.74743" lon="3.44355">
        <ele>518.29</ele>
        <time>2017-01-19T11:42:04Z</time>
      </trkpt>
      <trkpt lat="43.74729" lon="3.4435">
        <ele>517.33</ele>
        <time>2017-01-19T11:42:16Z</time>
      </trkpt>
      <trkpt lat="43.74726" lon="3.44349">
        <ele>516.85</ele>
        <time>2017-01-19T11:42:19Z</time>
      </trkpt>
      <trkpt lat="43.74719" lon="3.44345">
        <ele>516.37</ele>
        <time>2017-01-19T11:42:25Z</time>
      </trkpt>
      <trkpt lat="43.74691" lon="3.4433">
        <ele>513.96</ele>
        <time>2017-01-19T11:42:48Z</time>
      </trkpt>
      <trkpt lat="43.7467" lon="3.44319">
        <ele>512.52</ele>
        <time>2017-01-19T11:43:06Z</time>
      </trkpt>
      <trkpt lat="43.74648" lon="3.44316">
        <ele>511.08</ele>
        <time>2017-01-19T11:43:22Z</time>
      </trkpt>
      <trkpt lat="43.74632" lon="3.44324">
        <ele>510.6</ele>
        <time>2017-01-19T11:43:33Z</time>
      </trkpt>
      <trkpt lat="43.74629" lon="3.44324">
        <ele>510.12</ele>
        <time>2017-01-19T11:43:35Z</time>
      </trkpt>
      <trkpt lat="43.74621" lon="3.44328">
        <ele>509.64</ele>
        <time>2017-01-19T11:43:42Z</time>
      </trkpt>
      <trkpt lat="43.74612" lon="3.44337">
        <ele>509.16</ele>
        <time>2017-01-19T11:43:52Z</time>
      </trkpt>
      <trkpt lat="43.7461" lon="3.44352">
        <ele>510.12</ele>
        <time>2017-01-19T11:44:09Z</time>
      </trkpt>
      <trkpt lat="43.74612" lon="3.44368">
        <ele>513.48</ele>
        <time>2017-01-19T11:44:27Z</time>
      </trkpt>
      <trkpt lat="43.74617" lon="3.44382">
        <ele>516.37</ele>
        <time>2017-01-19T11:44:42Z</time>
      </trkpt>
      <trkpt lat="43.74619" lon="3.44405">
        <ele>520.21</ele>
        <time>2017-01-19T11:45:00Z</time>
      </trkpt>
      <trkpt lat="43.74608" lon="3.44419">
        <ele>519.73</ele>
        <time>2017-01-19T11:45:17Z</time>
      </trkpt>
      <trkpt lat="43.74601" lon="3.4443">
        <ele>520.21</ele>
        <time>2017-01-19T11:45:31Z</time>
      </trkpt>
      <trkpt lat="43.74591" lon="3.44444">
        <ele>521.65</ele>
        <time>2017-01-19T11:45:46Z</time>
      </trkpt>
      <trkpt lat="43.74574" lon="3.44464">
        <ele>523.09</ele>
        <time>2017-01-19T11:46:04Z</time>
      </trkpt>
      <trkpt lat="43.74563" lon="3.44471">
        <ele>524.06</ele>
        <time>2017-01-19T11:46:14Z</time>
      </trkpt>
      <trkpt lat="43.74542" lon="3.44481">
        <ele>525.98</ele>
        <time>2017-01-19T11:46:38Z</time>
      </trkpt>
      <trkpt lat="43.74529" lon="3.44493">
        <ele>527.42</ele>
        <time>2017-01-19T11:46:53Z</time>
      </trkpt>
      <trkpt lat="43.74518" lon="3.44507">
        <ele>528.38</ele>
        <time>2017-01-19T11:47:11Z</time>
      </trkpt>
      <trkpt lat="43.74518" lon="3.44502">
        <ele>528.38</ele>
        <time>2017-01-19T11:47:29Z</time>
      </trkpt>
      <trkpt lat="43.74515" lon="3.4451">
        <ele>528.86</ele>
        <time>2017-01-19T11:47:48Z</time>
      </trkpt>
      <trkpt lat="43.7451" lon="3.44528">
        <ele>530.79</ele>
        <time>2017-01-19T11:48:04Z</time>
      </trkpt>
      <trkpt lat="43.74504" lon="3.44554">
        <ele>533.19</ele>
        <time>2017-01-19T11:48:23Z</time>
      </trkpt>
      <trkpt lat="43.74495" lon="3.44583">
        <ele>534.15</ele>
        <time>2017-01-19T11:48:41Z</time>
      </trkpt>
      <trkpt lat="43.74494" lon="3.44601">
        <ele>536.07</ele>
        <time>2017-01-19T11:48:54Z</time>
      </trkpt>
      <trkpt lat="43.74497" lon="3.44615">
        <ele>536.07</ele>
        <time>2017-01-19T11:49:10Z</time>
      </trkpt>
      <trkpt lat="43.745" lon="3.44631">
        <ele>537.99</ele>
        <time>2017-01-19T11:49:23Z</time>
      </trkpt>
      <trkpt lat="43.74504" lon="3.44654">
        <ele>539.44</ele>
        <time>2017-01-19T11:49:38Z</time>
      </trkpt>
      <trkpt lat="43.74506" lon="3.44662">
        <ele>539.92</ele>
        <time>2017-01-19T11:49:43Z</time>
      </trkpt>
      <trkpt lat="43.74511" lon="3.44678">
        <ele>541.36</ele>
        <time>2017-01-19T11:49:55Z</time>
      </trkpt>
      <trkpt lat="43.74516" lon="3.447">
        <ele>542.8</ele>
        <time>2017-01-19T11:50:10Z</time>
      </trkpt>
      <trkpt lat="43.74522" lon="3.44722">
        <ele>545.2</ele>
        <time>2017-01-19T11:50:27Z</time>
      </trkpt>
      <trkpt lat="43.74523" lon="3.44739">
        <ele>546.17</ele>
        <time>2017-01-19T11:50:38Z</time>
      </trkpt>
      <trkpt lat="43.74522" lon="3.4476">
        <ele>546.17</ele>
        <time>2017-01-19T11:50:53Z</time>
      </trkpt>
      <trkpt lat="43.74521" lon="3.44772">
        <ele>547.13</ele>
        <time>2017-01-19T11:51:01Z</time>
      </trkpt>
      <trkpt lat="43.7452" lon="3.44781">
        <ele>547.61</ele>
        <time>2017-01-19T11:51:07Z</time>
      </trkpt>
      <trkpt lat="43.74527" lon="3.44795">
        <ele>549.53</ele>
        <time>2017-01-19T11:51:22Z</time>
      </trkpt>
      <trkpt lat="43.74528" lon="3.44812">
        <ele>550.49</ele>
        <time>2017-01-19T11:51:35Z</time>
      </trkpt>
      <trkpt lat="43.7453" lon="3.44826">
        <ele>551.45</ele>
        <time>2017-01-19T11:51:46Z</time>
      </trkpt>
      <trkpt lat="43.74533" lon="3.44839">
        <ele>552.41</ele>
        <time>2017-01-19T11:51:56Z</time>
      </trkpt>
      <trkpt lat="43.74534" lon="3.4484">
        <ele>551.93</ele>
        <time>2017-01-19T11:52:15Z</time>
      </trkpt>
      <trkpt lat="43.74535" lon="3.44839">
        <ele>551.93</ele>
        <time>2017-01-19T11:52:32Z</time>
      </trkpt>
      <trkpt lat="43.74534" lon="3.4484">
        <ele>551.93</ele>
        <time>2017-01-19T11:52:44Z</time>
      </trkpt>
      <trkpt lat="43.74534" lon="3.44839">
        <ele>552.41</ele>
        <time>2017-01-19T11:52:57Z</time>
      </trkpt>
      <trkpt lat="43.74531" lon="3.44838">
        <ele>551.93</ele>
        <time>2017-01-19T11:53:20Z</time>
      </trkpt>
      <trkpt lat="43.74527" lon="3.44839">
        <ele>551.93</ele>
        <time>2017-01-19T11:53:34Z</time>
      </trkpt>
      <trkpt lat="43.74534" lon="3.44846">
        <ele>552.9</ele>
        <time>2017-01-19T11:53:57Z</time>
      </trkpt>
      <trkpt lat="43.74537" lon="3.4485">
        <ele>553.86</ele>
        <time>2017-01-19T11:54:02Z</time>
      </trkpt>
      <trkpt lat="43.74539" lon="3.44853">
        <ele>553.86</ele>
        <time>2017-01-19T11:54:06Z</time>
      </trkpt>
      <trkpt lat="43.74541" lon="3.44858">
        <ele>554.82</ele>
        <time>2017-01-19T11:54:10Z</time>
      </trkpt>
      <trkpt lat="43.74542" lon="3.44866">
        <ele>555.3</ele>
        <time>2017-01-19T11:54:16Z</time>
      </trkpt>
      <trkpt lat="43.74541" lon="3.44869">
        <ele>555.3</ele>
        <time>2017-01-19T11:54:18Z</time>
      </trkpt>
      <trkpt lat="43.74548" lon="3.44885">
        <ele>557.7</ele>
        <time>2017-01-19T11:54:33Z</time>
      </trkpt>
      <trkpt lat="43.74563" lon="3.44901">
        <ele>559.62</ele>
        <time>2017-01-19T11:54:51Z</time>
      </trkpt>
      <trkpt lat="43.74566" lon="3.44908">
        <ele>560.11</ele>
        <time>2017-01-19T11:54:56Z</time>
      </trkpt>
      <trkpt lat="43.74573" lon="3.44923">
        <ele>560.11</ele>
        <time>2017-01-19T11:55:08Z</time>
      </trkpt>
      <trkpt lat="43.74576" lon="3.44927">
        <ele>560.59</ele>
        <time>2017-01-19T11:55:12Z</time>
      </trkpt>
      <trkpt lat="43.74588" lon="3.44935">
        <ele>561.55</ele>
        <time>2017-01-19T11:55:26Z</time>
      </trkpt>
      <trkpt lat="43.74605" lon="3.44933">
        <ele>562.51</ele>
        <time>2017-01-19T11:55:44Z</time>
      </trkpt>
      <trkpt lat="43.74623" lon="3.44931">
        <ele>563.95</ele>
        <time>2017-01-19T11:56:04Z</time>
      </trkpt>
      <trkpt lat="43.74644" lon="3.44929">
        <ele>565.39</ele>
        <time>2017-01-19T11:56:23Z</time>
      </trkpt>
      <trkpt lat="43.74665" lon="3.4493">
        <ele>566.83</ele>
        <time>2017-01-19T11:56:42Z</time>
      </trkpt>
      <trkpt lat="43.74684" lon="3.44935">
        <ele>568.76</ele>
        <time>2017-01-19T11:56:59Z</time>
      </trkpt>
      <trkpt lat="43.74707" lon="3.44945">
        <ele>570.68</ele>
        <time>2017-01-19T11:57:20Z</time>
      </trkpt>
      <trkpt lat="43.74726" lon="3.44958">
        <ele>573.08</ele>
        <time>2017-01-19T11:57:41Z</time>
      </trkpt>
      <trkpt lat="43.7474" lon="3.44981">
        <ele>575.01</ele>
        <time>2017-01-19T11:58:01Z</time>
      </trkpt>
      <trkpt lat="43.74748" lon="3.45">
        <ele>576.45</ele>
        <time>2017-01-19T11:58:17Z</time>
      </trkpt>
      <trkpt lat="43.74744" lon="3.44985">
        <ele>577.89</ele>
        <time>2017-01-19T11:58:32Z</time>
      </trkpt>
      <trkpt lat="43.74744" lon="3.44983">
        <ele>578.37</ele>
        <time>2017-01-19T11:58:34Z</time>
      </trkpt>
      <trkpt lat="43.7474" lon="3.44961">
        <ele>579.81</ele>
        <time>2017-01-19T11:58:50Z</time>
      </trkpt>
      <trkpt lat="43.74744" lon="3.44962">
        <ele>581.25</ele>
        <time>2017-01-19T11:58:58Z</time>
      </trkpt>
      <trkpt lat="43.74754" lon="3.4498">
        <ele>583.18</ele>
        <time>2017-01-19T11:59:15Z</time>
      </trkpt>
      <trkpt lat="43.74762" lon="3.44999">
        <ele>584.62</ele>
        <time>2017-01-19T11:59:33Z</time>
      </trkpt>
      <trkpt lat="43.74772" lon="3.45028">
        <ele>587.5</ele>
        <time>2017-01-19T11:59:55Z</time>
      </trkpt>
      <trkpt lat="43.74764" lon="3.45052">
        <ele>589.91</ele>
        <time>2017-01-19T12:00:15Z</time>
      </trkpt>
      <trkpt lat="43.74772" lon="3.4506">
        <ele>592.79</ele>
        <time>2017-01-19T12:00:33Z</time>
      </trkpt>
      <trkpt lat="43.74784" lon="3.45067">
        <ele>595.67</ele>
        <time>2017-01-19T12:00:50Z</time>
      </trkpt>
      <trkpt lat="43.74779" lon="3.45073">
        <ele>597.6</ele>
        <time>2017-01-19T12:01:04Z</time>
      </trkpt>
      <trkpt lat="43.74783" lon="3.4507">
        <ele>598.08</ele>
        <time>2017-01-19T12:01:25Z</time>
      </trkpt>
      <trkpt lat="43.74795" lon="3.45073">
        <ele>600.48</ele>
        <time>2017-01-19T12:01:40Z</time>
      </trkpt>
      <trkpt lat="43.74796" lon="3.45078">
        <ele>602.88</ele>
        <time>2017-01-19T12:01:58Z</time>
      </trkpt>
      <trkpt lat="43.74782" lon="3.45083">
        <ele>602.4</ele>
        <time>2017-01-19T12:02:15Z</time>
      </trkpt>
      <trkpt lat="43.74767" lon="3.45085">
        <ele>602.4</ele>
        <time>2017-01-19T12:02:30Z</time>
      </trkpt>
      <trkpt lat="43.74756" lon="3.45097">
        <ele>603.36</ele>
        <time>2017-01-19T12:02:47Z</time>
      </trkpt>
      <trkpt lat="43.74756" lon="3.45095">
        <ele>603.36</ele>
        <time>2017-01-19T12:02:59Z</time>
      </trkpt>
      <trkpt lat="43.7476" lon="3.45092">
        <ele>603.36</ele>
        <time>2017-01-19T12:03:36Z</time>
      </trkpt>
      <trkpt lat="43.74758" lon="3.45089">
        <ele>603.85</ele>
        <time>2017-01-19T12:03:57Z</time>
      </trkpt>
      <trkpt lat="43.74761" lon="3.45102">
        <ele>604.81</ele>
        <time>2017-01-19T12:04:09Z</time>
      </trkpt>
      <trkpt lat="43.74765" lon="3.45117">
        <ele>606.25</ele>
        <time>2017-01-19T12:04:22Z</time>
      </trkpt>
      <trkpt lat="43.74771" lon="3.45137">
        <ele>608.65</ele>
        <time>2017-01-19T12:04:38Z</time>
      </trkpt>
      <trkpt lat="43.74777" lon="3.45139">
        <ele>611.54</ele>
        <time>2017-01-19T12:04:52Z</time>
      </trkpt>
      <trkpt lat="43.74781" lon="3.45136">
        <ele>613.94</ele>
        <time>2017-01-19T12:05:10Z</time>
      </trkpt>
      <trkpt lat="43.74789" lon="3.45135">
        <ele>617.3</ele>
        <time>2017-01-19T12:05:23Z</time>
      </trkpt>
      <trkpt lat="43.74788" lon="3.45145">
        <ele>618.26</ele>
        <time>2017-01-19T12:05:36Z</time>
      </trkpt>
      <trkpt lat="43.74786" lon="3.45155">
        <ele>618.26</ele>
        <time>2017-01-19T12:05:46Z</time>
      </trkpt>
      <trkpt lat="43.74784" lon="3.4518">
        <ele>618.75</ele>
        <time>2017-01-19T12:06:04Z</time>
      </trkpt>
      <trkpt lat="43.74785" lon="3.45207">
        <ele>618.75</ele>
        <time>2017-01-19T12:06:24Z</time>
      </trkpt>
      <trkpt lat="43.74786" lon="3.45252">
        <ele>620.19</ele>
        <time>2017-01-19T12:06:49Z</time>
      </trkpt>
      <trkpt lat="43.7479" lon="3.45287">
        <ele>622.11</ele>
        <time>2017-01-19T12:07:13Z</time>
      </trkpt>
      <trkpt lat="43.74788" lon="3.45297">
        <ele>622.11</ele>
        <time>2017-01-19T12:07:18Z</time>
      </trkpt>
      <trkpt lat="43.7479" lon="3.45327">
        <ele>623.07</ele>
        <time>2017-01-19T12:07:35Z</time>
      </trkpt>
      <trkpt lat="43.74792" lon="3.45343">
        <ele>622.59</ele>
        <time>2017-01-19T12:07:46Z</time>
      </trkpt>
      <trkpt lat="43.74802" lon="3.45379">
        <ele>622.59</ele>
        <time>2017-01-19T12:08:06Z</time>
      </trkpt>
      <trkpt lat="43.74807" lon="3.45408">
        <ele>623.07</ele>
        <time>2017-01-19T12:08:23Z</time>
      </trkpt>
      <trkpt lat="43.74804" lon="3.45445">
        <ele>624.03</ele>
        <time>2017-01-19T12:08:45Z</time>
      </trkpt>
      <trkpt lat="43.74811" lon="3.45469">
        <ele>625.96</ele>
        <time>2017-01-19T12:09:06Z</time>
      </trkpt>
      <trkpt lat="43.74814" lon="3.45512">
        <ele>627.4</ele>
        <time>2017-01-19T12:09:31Z</time>
      </trkpt>
      <trkpt lat="43.74802" lon="3.45547">
        <ele>626.92</ele>
        <time>2017-01-19T12:09:51Z</time>
      </trkpt>
      <trkpt lat="43.74787" lon="3.45568">
        <ele>626.44</ele>
        <time>2017-01-19T12:10:08Z</time>
      </trkpt>
      <trkpt lat="43.74781" lon="3.45585">
        <ele>626.92</ele>
        <time>2017-01-19T12:10:22Z</time>
      </trkpt>
      <trkpt lat="43.74775" lon="3.45621">
        <ele>627.88</ele>
        <time>2017-01-19T12:10:46Z</time>
      </trkpt>
      <trkpt lat="43.74755" lon="3.45651">
        <ele>628.84</ele>
        <time>2017-01-19T12:11:07Z</time>
      </trkpt>
      <trkpt lat="43.7474" lon="3.45675">
        <ele>630.28</ele>
        <time>2017-01-19T12:11:27Z</time>
      </trkpt>
      <trkpt lat="43.74736" lon="3.45679">
        <ele>630.28</ele>
        <time>2017-01-19T12:11:30Z</time>
      </trkpt>
      <trkpt lat="43.74718" lon="3.45697">
        <ele>631.72</ele>
        <time>2017-01-19T12:11:49Z</time>
      </trkpt>
      <trkpt lat="43.74693" lon="3.45707">
        <ele>633.17</ele>
        <time>2017-01-19T12:12:10Z</time>
      </trkpt>
      <trkpt lat="43.74669" lon="3.45717">
        <ele>634.13</ele>
        <time>2017-01-19T12:12:30Z</time>
      </trkpt>
      <trkpt lat="43.74648" lon="3.45725">
        <ele>635.57</ele>
        <time>2017-01-19T12:12:48Z</time>
      </trkpt>
      <trkpt lat="43.74626" lon="3.45728">
        <ele>636.53</ele>
        <time>2017-01-19T12:13:06Z</time>
      </trkpt>
      <trkpt lat="43.74603" lon="3.45739">
        <ele>637.97</ele>
        <time>2017-01-19T12:13:28Z</time>
      </trkpt>
      <trkpt lat="43.74581" lon="3.45745">
        <ele>638.93</ele>
        <time>2017-01-19T12:13:47Z</time>
      </trkpt>
      <trkpt lat="43.74554" lon="3.45738">
        <ele>639.41</ele>
        <time>2017-01-19T12:14:06Z</time>
      </trkpt>
      <trkpt lat="43.74541" lon="3.45732">
        <ele>640.38</ele>
        <time>2017-01-19T12:14:14Z</time>
      </trkpt>
      <trkpt lat="43.74518" lon="3.45726">
        <ele>641.82</ele>
        <time>2017-01-19T12:14:35Z</time>
      </trkpt>
      <trkpt lat="43.74494" lon="3.4572">
        <ele>643.26</ele>
        <time>2017-01-19T12:14:58Z</time>
      </trkpt>
      <trkpt lat="43.7447" lon="3.45707">
        <ele>645.18</ele>
        <time>2017-01-19T12:15:20Z</time>
      </trkpt>
      <trkpt lat="43.74446" lon="3.45691">
        <ele>646.62</ele>
        <time>2017-01-19T12:15:42Z</time>
      </trkpt>
      <trkpt lat="43.74428" lon="3.45685">
        <ele>647.59</ele>
        <time>2017-01-19T12:16:01Z</time>
      </trkpt>
      <trkpt lat="43.74413" lon="3.45708">
        <ele>648.55</ele>
        <time>2017-01-19T12:16:21Z</time>
      </trkpt>
      <trkpt lat="43.74403" lon="3.45719">
        <ele>648.55</ele>
        <time>2017-01-19T12:16:33Z</time>
      </trkpt>
      <trkpt lat="43.74379" lon="3.4574">
        <ele>648.55</ele>
        <time>2017-01-19T12:16:56Z</time>
      </trkpt>
      <trkpt lat="43.74358" lon="3.45741">
        <ele>649.03</ele>
        <time>2017-01-19T12:17:10Z</time>
      </trkpt>
      <trkpt lat="43.74341" lon="3.45728">
        <ele>649.99</ele>
        <time>2017-01-19T12:17:29Z</time>
      </trkpt>
      <trkpt lat="43.74324" lon="3.4571">
        <ele>650.95</ele>
        <time>2017-01-19T12:17:50Z</time>
      </trkpt>
      <trkpt lat="43.74309" lon="3.45697">
        <ele>652.39</ele>
        <time>2017-01-19T12:18:07Z</time>
      </trkpt>
      <trkpt lat="43.74287" lon="3.45669">
        <ele>652.87</ele>
        <time>2017-01-19T12:18:26Z</time>
      </trkpt>
      <trkpt lat="43.74268" lon="3.45648">
        <ele>653.83</ele>
        <time>2017-01-19T12:18:49Z</time>
      </trkpt>
      <trkpt lat="43.74246" lon="3.45634">
        <ele>655.76</ele>
        <time>2017-01-19T12:19:12Z</time>
      </trkpt>
      <trkpt lat="43.74228" lon="3.4562">
        <ele>656.72</ele>
        <time>2017-01-19T12:19:30Z</time>
      </trkpt>
      <trkpt lat="43.74202" lon="3.45605">
        <ele>657.68</ele>
        <time>2017-01-19T12:19:50Z</time>
      </trkpt>
      <trkpt lat="43.74182" lon="3.45604">
        <ele>659.6</ele>
        <time>2017-01-19T12:20:08Z</time>
      </trkpt>
      <trkpt lat="43.74177" lon="3.45605">
        <ele>660.08</ele>
        <time>2017-01-19T12:20:14Z</time>
      </trkpt>
      <trkpt lat="43.74162" lon="3.45606">
        <ele>657.68</ele>
        <time>2017-01-19T12:20:31Z</time>
      </trkpt>
      <trkpt lat="43.74145" lon="3.45612">
        <ele>655.76</ele>
        <time>2017-01-19T12:20:50Z</time>
      </trkpt>
      <trkpt lat="43.74127" lon="3.45617">
        <ele>652.87</ele>
        <time>2017-01-19T12:21:12Z</time>
      </trkpt>
      <trkpt lat="43.74104" lon="3.45621">
        <ele>651.91</ele>
        <time>2017-01-19T12:21:29Z</time>
      </trkpt>
      <trkpt lat="43.74095" lon="3.45619">
        <ele>651.91</ele>
        <time>2017-01-19T12:21:51Z</time>
      </trkpt>
      <trkpt lat="43.74086" lon="3.45626">
        <ele>650.95</ele>
        <time>2017-01-19T12:22:10Z</time>
      </trkpt>
      <trkpt lat="43.74066" lon="3.45626">
        <ele>649.51</ele>
        <time>2017-01-19T12:22:24Z</time>
      </trkpt>
      <trkpt lat="43.74051" lon="3.45625">
        <ele>647.1</ele>
        <time>2017-01-19T12:22:42Z</time>
      </trkpt>
      <trkpt lat="43.74027" lon="3.45627">
        <ele>645.18</ele>
        <time>2017-01-19T12:23:00Z</time>
      </trkpt>
      <trkpt lat="43.74007" lon="3.4563">
        <ele>643.26</ele>
        <time>2017-01-19T12:23:15Z</time>
      </trkpt>
      <trkpt lat="43.73985" lon="3.45626">
        <ele>641.82</ele>
        <time>2017-01-19T12:23:32Z</time>
      </trkpt>
      <trkpt lat="43.73971" lon="3.45617">
        <ele>639.89</ele>
        <time>2017-01-19T12:23:45Z</time>
      </trkpt>
      <trkpt lat="43.7395" lon="3.45608">
        <ele>637.97</ele>
        <time>2017-01-19T12:24:04Z</time>
      </trkpt>
      <trkpt lat="43.7393" lon="3.45599">
        <ele>636.05</ele>
        <time>2017-01-19T12:24:20Z</time>
      </trkpt>
      <trkpt lat="43.7391" lon="3.45589">
        <ele>634.13</ele>
        <time>2017-01-19T12:24:39Z</time>
      </trkpt>
      <trkpt lat="43.7389" lon="3.45582">
        <ele>632.2</ele>
        <time>2017-01-19T12:24:56Z</time>
      </trkpt>
      <trkpt lat="43.73872" lon="3.4557">
        <ele>629.8</ele>
        <time>2017-01-19T12:25:13Z</time>
      </trkpt>
      <trkpt lat="43.73858" lon="3.4556">
        <ele>628.84</ele>
        <time>2017-01-19T12:25:27Z</time>
      </trkpt>
      <trkpt lat="43.73842" lon="3.45553">
        <ele>626.92</ele>
        <time>2017-01-19T12:25:44Z</time>
      </trkpt>
      <trkpt lat="43.73827" lon="3.45547">
        <ele>624.99</ele>
        <time>2017-01-19T12:25:59Z</time>
      </trkpt>
      <trkpt lat="43.73813" lon="3.45538">
        <ele>623.55</ele>
        <time>2017-01-19T12:26:13Z</time>
      </trkpt>
      <trkpt lat="43.73798" lon="3.45536">
        <ele>621.63</ele>
        <time>2017-01-19T12:26:30Z</time>
      </trkpt>
      <trkpt lat="43.7378" lon="3.45528">
        <ele>619.71</ele>
        <time>2017-01-19T12:26:46Z</time>
      </trkpt>
      <trkpt lat="43.73775" lon="3.45526">
        <ele>618.75</ele>
        <time>2017-01-19T12:26:51Z</time>
      </trkpt>
      <trkpt lat="43.73765" lon="3.45525">
        <ele>617.78</ele>
        <time>2017-01-19T12:27:03Z</time>
      </trkpt>
      <trkpt lat="43.7376" lon="3.45525">
        <ele>617.3</ele>
        <time>2017-01-19T12:27:14Z</time>
      </trkpt>
      <trkpt lat="43.73758" lon="3.45523">
        <ele>617.3</ele>
        <time>2017-01-19T12:27:46Z</time>
      </trkpt>
      <trkpt lat="43.73759" lon="3.45528">
        <ele>617.3</ele>
        <time>2017-01-19T12:28:09Z</time>
      </trkpt>
      <trkpt lat="43.73756" lon="3.45527">
        <ele>617.3</ele>
        <time>2017-01-19T12:28:31Z</time>
      </trkpt>
      <trkpt lat="43.73755" lon="3.45529">
        <ele>617.3</ele>
        <time>2017-01-19T12:28:45Z</time>
      </trkpt>
      <trkpt lat="43.73759" lon="3.45531">
        <ele>617.3</ele>
        <time>2017-01-19T12:29:11Z</time>
      </trkpt>
      <trkpt lat="43.73761" lon="3.45532">
        <ele>617.78</ele>
        <time>2017-01-19T12:29:36Z</time>
      </trkpt>
      <trkpt lat="43.73759" lon="3.45531">
        <ele>617.78</ele>
        <time>2017-01-19T12:30:01Z</time>
      </trkpt>
      <trkpt lat="43.73758" lon="3.45533">
        <ele>617.3</ele>
        <time>2017-01-19T12:30:19Z</time>
      </trkpt>
      <trkpt lat="43.73755" lon="3.45535">
        <ele>617.3</ele>
        <time>2017-01-19T12:30:43Z</time>
      </trkpt>
      <trkpt lat="43.73752" lon="3.45534">
        <ele>617.3</ele>
        <time>2017-01-19T12:31:05Z</time>
      </trkpt>
      <trkpt lat="43.73753" lon="3.45542">
        <ele>617.3</ele>
        <time>2017-01-19T12:31:27Z</time>
      </trkpt>
      <trkpt lat="43.73753" lon="3.45543">
        <ele>617.3</ele>
        <time>2017-01-19T12:31:28Z</time>
      </trkpt>
      <trkpt lat="43.73749" lon="3.45561">
        <ele>615.38</ele>
        <time>2017-01-19T12:31:44Z</time>
      </trkpt>
      <trkpt lat="43.73747" lon="3.45569">
        <ele>614.42</ele>
        <time>2017-01-19T12:31:51Z</time>
      </trkpt>
      <trkpt lat="43.73743" lon="3.45587">
        <ele>613.46</ele>
        <time>2017-01-19T12:32:02Z</time>
      </trkpt>
      <trkpt lat="43.73739" lon="3.45614">
        <ele>611.06</ele>
        <time>2017-01-19T12:32:20Z</time>
      </trkpt>
      <trkpt lat="43.73734" lon="3.45647">
        <ele>608.65</ele>
        <time>2017-01-19T12:32:39Z</time>
      </trkpt>
      <trkpt lat="43.73732" lon="3.45671">
        <ele>606.25</ele>
        <time>2017-01-19T12:32:55Z</time>
      </trkpt>
      <trkpt lat="43.73729" lon="3.45701">
        <ele>603.85</ele>
        <time>2017-01-19T12:33:13Z</time>
      </trkpt>
      <trkpt lat="43.73727" lon="3.45726">
        <ele>601.92</ele>
        <time>2017-01-19T12:33:29Z</time>
      </trkpt>
      <trkpt lat="43.73729" lon="3.45751">
        <ele>600</ele>
        <time>2017-01-19T12:33:44Z</time>
      </trkpt>
      <trkpt lat="43.73735" lon="3.45781">
        <ele>597.6</ele>
        <time>2017-01-19T12:34:03Z</time>
      </trkpt>
      <trkpt lat="43.73737" lon="3.45813">
        <ele>595.67</ele>
        <time>2017-01-19T12:34:22Z</time>
      </trkpt>
      <trkpt lat="43.7373" lon="3.45849">
        <ele>593.27</ele>
        <time>2017-01-19T12:34:41Z</time>
      </trkpt>
      <trkpt lat="43.73729" lon="3.45856">
        <ele>592.79</ele>
        <time>2017-01-19T12:34:45Z</time>
      </trkpt>
      <trkpt lat="43.73726" lon="3.45873">
        <ele>591.35</ele>
        <time>2017-01-19T12:34:57Z</time>
      </trkpt>
      <trkpt lat="43.73724" lon="3.45899">
        <ele>589.43</ele>
        <time>2017-01-19T12:35:11Z</time>
      </trkpt>
      <trkpt lat="43.73724" lon="3.45904">
        <ele>588.95</ele>
        <time>2017-01-19T12:35:15Z</time>
      </trkpt>
      <trkpt lat="43.73722" lon="3.4591">
        <ele>587.98</ele>
        <time>2017-01-19T12:35:19Z</time>
      </trkpt>
      <trkpt lat="43.73719" lon="3.45917">
        <ele>587.98</ele>
        <time>2017-01-19T12:35:23Z</time>
      </trkpt>
      <trkpt lat="43.73718" lon="3.45923">
        <ele>588.46</ele>
        <time>2017-01-19T12:35:38Z</time>
      </trkpt>
      <trkpt lat="43.73723" lon="3.45944">
        <ele>589.43</ele>
        <time>2017-01-19T12:35:54Z</time>
      </trkpt>
      <trkpt lat="43.73723" lon="3.45948">
        <ele>589.43</ele>
        <time>2017-01-19T12:35:56Z</time>
      </trkpt>
      <trkpt lat="43.73723" lon="3.45951">
        <ele>589.43</ele>
        <time>2017-01-19T12:35:58Z</time>
      </trkpt>
      <trkpt lat="43.73724" lon="3.45958">
        <ele>589.91</ele>
        <time>2017-01-19T12:36:02Z</time>
      </trkpt>
      <trkpt lat="43.73726" lon="3.45961">
        <ele>590.39</ele>
        <time>2017-01-19T12:36:04Z</time>
      </trkpt>
      <trkpt lat="43.73726" lon="3.45984">
        <ele>591.35</ele>
        <time>2017-01-19T12:36:18Z</time>
      </trkpt>
      <trkpt lat="43.73725" lon="3.46001">
        <ele>592.31</ele>
        <time>2017-01-19T12:36:28Z</time>
      </trkpt>
      <trkpt lat="43.73724" lon="3.46005">
        <ele>592.31</ele>
        <time>2017-01-19T12:36:31Z</time>
      </trkpt>
      <trkpt lat="43.73719" lon="3.4603">
        <ele>593.75</ele>
        <time>2017-01-19T12:36:47Z</time>
      </trkpt>
      <trkpt lat="43.73718" lon="3.46054">
        <ele>594.71</ele>
        <time>2017-01-19T12:37:02Z</time>
      </trkpt>
      <trkpt lat="43.73718" lon="3.46083">
        <ele>596.15</ele>
        <time>2017-01-19T12:37:20Z</time>
      </trkpt>
      <trkpt lat="43.7371" lon="3.46117">
        <ele>597.6</ele>
        <time>2017-01-19T12:37:41Z</time>
      </trkpt>
      <trkpt lat="43.73703" lon="3.46144">
        <ele>599.04</ele>
        <time>2017-01-19T12:38:00Z</time>
      </trkpt>
      <trkpt lat="43.73696" lon="3.46171">
        <ele>600.48</ele>
        <time>2017-01-19T12:38:17Z</time>
      </trkpt>
      <trkpt lat="43.7369" lon="3.46193">
        <ele>601.92</ele>
        <time>2017-01-19T12:38:32Z</time>
      </trkpt>
      <trkpt lat="43.7368" lon="3.46229">
        <ele>603.36</ele>
        <time>2017-01-19T12:38:53Z</time>
      </trkpt>
      <trkpt lat="43.73671" lon="3.46268">
        <ele>605.29</ele>
        <time>2017-01-19T12:39:17Z</time>
      </trkpt>
      <trkpt lat="43.73661" lon="3.46289">
        <ele>606.73</ele>
        <time>2017-01-19T12:39:34Z</time>
      </trkpt>
      <trkpt lat="43.73657" lon="3.46299">
        <ele>607.21</ele>
        <time>2017-01-19T12:39:41Z</time>
      </trkpt>
      <trkpt lat="43.73654" lon="3.46322">
        <ele>608.65</ele>
        <time>2017-01-19T12:39:56Z</time>
      </trkpt>
      <trkpt lat="43.73664" lon="3.46338">
        <ele>610.57</ele>
        <time>2017-01-19T12:40:10Z</time>
      </trkpt>
      <trkpt lat="43.73672" lon="3.46352">
        <ele>613.46</ele>
        <time>2017-01-19T12:40:25Z</time>
      </trkpt>
      <trkpt lat="43.73671" lon="3.46363">
        <ele>616.82</ele>
        <time>2017-01-19T12:40:36Z</time>
      </trkpt>
      <trkpt lat="43.73675" lon="3.46375">
        <ele>618.26</ele>
        <time>2017-01-19T12:40:49Z</time>
      </trkpt>
      <trkpt lat="43.73678" lon="3.46376">
        <ele>617.78</ele>
        <time>2017-01-19T12:41:01Z</time>
      </trkpt>
      <trkpt lat="43.73681" lon="3.46378">
        <ele>618.26</ele>
        <time>2017-01-19T12:41:10Z</time>
      </trkpt>
      <trkpt lat="43.73699" lon="3.46381">
        <ele>617.3</ele>
        <time>2017-01-19T12:41:27Z</time>
      </trkpt>
      <trkpt lat="43.73711" lon="3.46386">
        <ele>616.34</ele>
        <time>2017-01-19T12:41:41Z</time>
      </trkpt>
      <trkpt lat="43.73714" lon="3.46383">
        <ele>616.34</ele>
        <time>2017-01-19T12:42:00Z</time>
      </trkpt>
      <trkpt lat="43.73713" lon="3.46384">
        <ele>616.34</ele>
        <time>2017-01-19T12:42:27Z</time>
      </trkpt>
      <trkpt lat="43.73712" lon="3.46383">
        <ele>616.82</ele>
        <time>2017-01-19T12:42:55Z</time>
      </trkpt>
      <trkpt lat="43.73712" lon="3.46381">
        <ele>616.82</ele>
        <time>2017-01-19T12:43:29Z</time>
      </trkpt>
      <trkpt lat="43.73713" lon="3.46385">
        <ele>617.3</ele>
        <time>2017-01-19T12:43:58Z</time>
      </trkpt>
      <trkpt lat="43.73712" lon="3.46385">
        <ele>617.3</ele>
        <time>2017-01-19T12:44:21Z</time>
      </trkpt>
      <trkpt lat="43.73713" lon="3.46386">
        <ele>617.3</ele>
        <time>2017-01-19T12:44:24Z</time>
      </trkpt>
      <trkpt lat="43.73717" lon="3.46389">
        <ele>616.82</ele>
        <time>2017-01-19T12:44:28Z</time>
      </trkpt>
      <trkpt lat="43.73726" lon="3.46393">
        <ele>615.86</ele>
        <time>2017-01-19T12:44:37Z</time>
      </trkpt>
      <trkpt lat="43.73731" lon="3.46392">
        <ele>615.38</ele>
        <time>2017-01-19T12:44:41Z</time>
      </trkpt>
      <trkpt lat="43.73735" lon="3.46392">
        <ele>614.9</ele>
        <time>2017-01-19T12:44:46Z</time>
      </trkpt>
      <trkpt lat="43.73754" lon="3.46394">
        <ele>615.38</ele>
        <time>2017-01-19T12:45:02Z</time>
      </trkpt>
      <trkpt lat="43.73756" lon="3.46397">
        <ele>614.9</ele>
        <time>2017-01-19T12:45:05Z</time>
      </trkpt>
      <trkpt lat="43.73772" lon="3.46413">
        <ele>613.94</ele>
        <time>2017-01-19T12:45:19Z</time>
      </trkpt>
      <trkpt lat="43.73777" lon="3.46421">
        <ele>613.94</ele>
        <time>2017-01-19T12:45:33Z</time>
      </trkpt>
      <trkpt lat="43.73787" lon="3.46431">
        <ele>612.98</ele>
        <time>2017-01-19T12:45:52Z</time>
      </trkpt>
      <trkpt lat="43.73801" lon="3.46452">
        <ele>612.98</ele>
        <time>2017-01-19T12:46:10Z</time>
      </trkpt>
      <trkpt lat="43.73816" lon="3.46465">
        <ele>613.94</ele>
        <time>2017-01-19T12:46:28Z</time>
      </trkpt>
      <trkpt lat="43.73829" lon="3.46484">
        <ele>611.54</ele>
        <time>2017-01-19T12:46:45Z</time>
      </trkpt>
      <trkpt lat="43.73834" lon="3.46497">
        <ele>609.61</ele>
        <time>2017-01-19T12:46:55Z</time>
      </trkpt>
      <trkpt lat="43.73838" lon="3.46524">
        <ele>608.65</ele>
        <time>2017-01-19T12:47:08Z</time>
      </trkpt>
      <trkpt lat="43.73839" lon="3.46532">
        <ele>608.17</ele>
        <time>2017-01-19T12:47:12Z</time>
      </trkpt>
      <trkpt lat="43.73845" lon="3.46563">
        <ele>607.69</ele>
        <time>2017-01-19T12:47:29Z</time>
      </trkpt>
      <trkpt lat="43.73857" lon="3.46582">
        <ele>607.69</ele>
        <time>2017-01-19T12:47:42Z</time>
      </trkpt>
      <trkpt lat="43.73875" lon="3.46597">
        <ele>608.17</ele>
        <time>2017-01-19T12:48:00Z</time>
      </trkpt>
      <trkpt lat="43.73878" lon="3.46598">
        <ele>607.69</ele>
        <time>2017-01-19T12:48:03Z</time>
      </trkpt>
      <trkpt lat="43.73897" lon="3.46618">
        <ele>605.29</ele>
        <time>2017-01-19T12:48:22Z</time>
      </trkpt>
      <trkpt lat="43.73903" lon="3.46623">
        <ele>605.29</ele>
        <time>2017-01-19T12:48:29Z</time>
      </trkpt>
      <trkpt lat="43.73917" lon="3.46635">
        <ele>603.85</ele>
        <time>2017-01-19T12:48:43Z</time>
      </trkpt>
      <trkpt lat="43.73933" lon="3.46647">
        <ele>602.4</ele>
        <time>2017-01-19T12:48:58Z</time>
      </trkpt>
      <trkpt lat="43.7395" lon="3.4666">
        <ele>602.4</ele>
        <time>2017-01-19T12:49:15Z</time>
      </trkpt>
      <trkpt lat="43.73963" lon="3.46678">
        <ele>600.96</ele>
        <time>2017-01-19T12:49:31Z</time>
      </trkpt>
      <trkpt lat="43.73976" lon="3.46696">
        <ele>600.48</ele>
        <time>2017-01-19T12:49:46Z</time>
      </trkpt>
      <trkpt lat="43.73985" lon="3.4672">
        <ele>600.96</ele>
        <time>2017-01-19T12:50:00Z</time>
      </trkpt>
      <trkpt lat="43.73986" lon="3.46744">
        <ele>602.4</ele>
        <time>2017-01-19T12:50:13Z</time>
      </trkpt>
      <trkpt lat="43.73988" lon="3.46764">
        <ele>604.33</ele>
        <time>2017-01-19T12:50:28Z</time>
      </trkpt>
      <trkpt lat="43.73992" lon="3.46776">
        <ele>606.25</ele>
        <time>2017-01-19T12:50:40Z</time>
      </trkpt>
      <trkpt lat="43.73997" lon="3.46789">
        <ele>608.17</ele>
        <time>2017-01-19T12:50:56Z</time>
      </trkpt>
      <trkpt lat="43.74001" lon="3.46796">
        <ele>608.65</ele>
        <time>2017-01-19T12:51:11Z</time>
      </trkpt>
      <trkpt lat="43.74001" lon="3.46793">
        <ele>608.65</ele>
        <time>2017-01-19T12:51:36Z</time>
      </trkpt>
      <trkpt lat="43.74" lon="3.46794">
        <ele>608.65</ele>
        <time>2017-01-19T12:51:50Z</time>
      </trkpt>
      <trkpt lat="43.74005" lon="3.46798">
        <ele>609.13</ele>
        <time>2017-01-19T12:52:07Z</time>
      </trkpt>
      <trkpt lat="43.74012" lon="3.46798">
        <ele>608.17</ele>
        <time>2017-01-19T12:52:22Z</time>
      </trkpt>
      <trkpt lat="43.74021" lon="3.46787">
        <ele>606.25</ele>
        <time>2017-01-19T12:52:37Z</time>
      </trkpt>
      <trkpt lat="43.74023" lon="3.46785">
        <ele>606.25</ele>
        <time>2017-01-19T12:52:39Z</time>
      </trkpt>
      <trkpt lat="43.74027" lon="3.46772">
        <ele>605.29</ele>
        <time>2017-01-19T12:52:50Z</time>
      </trkpt>
      <trkpt lat="43.74034" lon="3.46752">
        <ele>603.85</ele>
        <time>2017-01-19T12:53:06Z</time>
      </trkpt>
      <trkpt lat="43.74043" lon="3.46734">
        <ele>602.88</ele>
        <time>2017-01-19T12:53:21Z</time>
      </trkpt>
      <trkpt lat="43.74058" lon="3.46722">
        <ele>602.88</ele>
        <time>2017-01-19T12:53:36Z</time>
      </trkpt>
      <trkpt lat="43.74067" lon="3.4671">
        <ele>604.81</ele>
        <time>2017-01-19T12:53:52Z</time>
      </trkpt>
      <trkpt lat="43.74072" lon="3.46684">
        <ele>607.69</ele>
        <time>2017-01-19T12:54:14Z</time>
      </trkpt>
      <trkpt lat="43.74079" lon="3.46659">
        <ele>609.13</ele>
        <time>2017-01-19T12:54:34Z</time>
      </trkpt>
      <trkpt lat="43.74076" lon="3.46647">
        <ele>610.57</ele>
        <time>2017-01-19T12:54:50Z</time>
      </trkpt>
      <trkpt lat="43.74075" lon="3.46638">
        <ele>612.02</ele>
        <time>2017-01-19T12:55:03Z</time>
      </trkpt>
      <trkpt lat="43.74076" lon="3.46632">
        <ele>612.5</ele>
        <time>2017-01-19T12:55:15Z</time>
      </trkpt>
      <trkpt lat="43.74076" lon="3.46621">
        <ele>614.42</ele>
        <time>2017-01-19T12:55:32Z</time>
      </trkpt>
      <trkpt lat="43.74073" lon="3.46608">
        <ele>617.3</ele>
        <time>2017-01-19T12:55:49Z</time>
      </trkpt>
      <trkpt lat="43.74069" lon="3.46594">
        <ele>620.19</ele>
        <time>2017-01-19T12:56:05Z</time>
      </trkpt>
      <trkpt lat="43.74066" lon="3.46573">
        <ele>620.67</ele>
        <time>2017-01-19T12:56:22Z</time>
      </trkpt>
      <trkpt lat="43.74071" lon="3.46571">
        <ele>623.55</ele>
        <time>2017-01-19T12:56:40Z</time>
      </trkpt>
      <trkpt lat="43.74082" lon="3.46587">
        <ele>626.44</ele>
        <time>2017-01-19T12:57:01Z</time>
      </trkpt>
      <trkpt lat="43.74096" lon="3.46596">
        <ele>628.36</ele>
        <time>2017-01-19T12:57:20Z</time>
      </trkpt>
      <trkpt lat="43.74109" lon="3.46608">
        <ele>630.76</ele>
        <time>2017-01-19T12:57:40Z</time>
      </trkpt>
      <trkpt lat="43.74119" lon="3.46622">
        <ele>632.2</ele>
        <time>2017-01-19T12:57:58Z</time>
      </trkpt>
      <trkpt lat="43.74125" lon="3.46619">
        <ele>634.61</ele>
        <time>2017-01-19T12:58:14Z</time>
      </trkpt>
      <trkpt lat="43.74119" lon="3.46604">
        <ele>637.01</ele>
        <time>2017-01-19T12:58:31Z</time>
      </trkpt>
      <trkpt lat="43.74113" lon="3.46585">
        <ele>639.89</ele>
        <time>2017-01-19T12:58:49Z</time>
      </trkpt>
      <trkpt lat="43.74113" lon="3.4657">
        <ele>642.78</ele>
        <time>2017-01-19T12:59:11Z</time>
      </trkpt>
      <trkpt lat="43.74124" lon="3.46582">
        <ele>644.7</ele>
        <time>2017-01-19T12:59:27Z</time>
      </trkpt>
      <trkpt lat="43.74132" lon="3.46587">
        <ele>647.1</ele>
        <time>2017-01-19T12:59:41Z</time>
      </trkpt>
      <trkpt lat="43.74129" lon="3.46573">
        <ele>648.07</ele>
        <time>2017-01-19T12:59:57Z</time>
      </trkpt>
      <trkpt lat="43.7412" lon="3.46547">
        <ele>649.51</ele>
        <time>2017-01-19T13:00:19Z</time>
      </trkpt>
      <trkpt lat="43.74118" lon="3.46537">
        <ele>649.99</ele>
        <time>2017-01-19T13:00:41Z</time>
      </trkpt>
      <trkpt lat="43.74113" lon="3.46507">
        <ele>652.39</ele>
        <time>2017-01-19T13:01:02Z</time>
      </trkpt>
      <trkpt lat="43.74108" lon="3.46475">
        <ele>652.39</ele>
        <time>2017-01-19T13:01:25Z</time>
      </trkpt>
      <trkpt lat="43.74093" lon="3.46451">
        <ele>654.8</ele>
        <time>2017-01-19T13:01:46Z</time>
      </trkpt>
      <trkpt lat="43.7408" lon="3.46436">
        <ele>657.68</ele>
        <time>2017-01-19T13:02:05Z</time>
      </trkpt>
      <trkpt lat="43.74067" lon="3.46419">
        <ele>661.04</ele>
        <time>2017-01-19T13:02:24Z</time>
      </trkpt>
      <trkpt lat="43.74078" lon="3.46413">
        <ele>662.97</ele>
        <time>2017-01-19T13:02:43Z</time>
      </trkpt>
      <trkpt lat="43.74096" lon="3.4641">
        <ele>664.89</ele>
        <time>2017-01-19T13:03:01Z</time>
      </trkpt>
      <trkpt lat="43.74117" lon="3.46417">
        <ele>665.85</ele>
        <time>2017-01-19T13:03:22Z</time>
      </trkpt>
      <trkpt lat="43.74134" lon="3.46417">
        <ele>667.29</ele>
        <time>2017-01-19T13:03:40Z</time>
      </trkpt>
      <trkpt lat="43.74153" lon="3.46421">
        <ele>669.22</ele>
        <time>2017-01-19T13:03:59Z</time>
      </trkpt>
      <trkpt lat="43.74166" lon="3.46425">
        <ele>672.58</ele>
        <time>2017-01-19T13:04:20Z</time>
      </trkpt>
      <trkpt lat="43.74171" lon="3.46437">
        <ele>672.58</ele>
        <time>2017-01-19T13:04:43Z</time>
      </trkpt>
      <trkpt lat="43.7417" lon="3.46439">
        <ele>672.58</ele>
        <time>2017-01-19T13:05:05Z</time>
      </trkpt>
      <trkpt lat="43.74168" lon="3.46438">
        <ele>672.58</ele>
        <time>2017-01-19T13:05:40Z</time>
      </trkpt>
      <trkpt lat="43.7417" lon="3.46441">
        <ele>673.06</ele>
        <time>2017-01-19T13:06:10Z</time>
      </trkpt>
      <trkpt lat="43.74169" lon="3.46436">
        <ele>673.54</ele>
        <time>2017-01-19T13:06:50Z</time>
      </trkpt>
      <trkpt lat="43.74165" lon="3.4643">
        <ele>674.02</ele>
        <time>2017-01-19T13:07:21Z</time>
      </trkpt>
      <trkpt lat="43.74166" lon="3.46442">
        <ele>674.02</ele>
        <time>2017-01-19T13:07:37Z</time>
      </trkpt>
      <trkpt lat="43.74167" lon="3.46441">
        <ele>674.5</ele>
        <time>2017-01-19T13:07:58Z</time>
      </trkpt>
      <trkpt lat="43.74171" lon="3.46426">
        <ele>676.42</ele>
        <time>2017-01-19T13:08:10Z</time>
      </trkpt>
      <trkpt lat="43.74169" lon="3.46411">
        <ele>678.35</ele>
        <time>2017-01-19T13:08:25Z</time>
      </trkpt>
      <trkpt lat="43.74158" lon="3.46387">
        <ele>681.23</ele>
        <time>2017-01-19T13:08:47Z</time>
      </trkpt>
      <trkpt lat="43.74169" lon="3.46388">
        <ele>683.63</ele>
        <time>2017-01-19T13:09:04Z</time>
      </trkpt>
      <trkpt lat="43.74184" lon="3.464">
        <ele>684.6</ele>
        <time>2017-01-19T13:09:20Z</time>
      </trkpt>
      <trkpt lat="43.74192" lon="3.46415">
        <ele>686.52</ele>
        <time>2017-01-19T13:09:35Z</time>
      </trkpt>
      <trkpt lat="43.74199" lon="3.46425">
        <ele>688.92</ele>
        <time>2017-01-19T13:09:49Z</time>
      </trkpt>
      <trkpt lat="43.74207" lon="3.46431">
        <ele>690.36</ele>
        <time>2017-01-19T13:10:05Z</time>
      </trkpt>
      <trkpt lat="43.74222" lon="3.46424">
        <ele>691.33</ele>
        <time>2017-01-19T13:10:24Z</time>
      </trkpt>
      <trkpt lat="43.74237" lon="3.46415">
        <ele>690.84</ele>
        <time>2017-01-19T13:10:42Z</time>
      </trkpt>
      <trkpt lat="43.74238" lon="3.4641">
        <ele>691.33</ele>
        <time>2017-01-19T13:11:02Z</time>
      </trkpt>
      <trkpt lat="43.74241" lon="3.46405">
        <ele>691.81</ele>
        <time>2017-01-19T13:11:21Z</time>
      </trkpt>
      <trkpt lat="43.74241" lon="3.46396">
        <ele>692.77</ele>
        <time>2017-01-19T13:11:34Z</time>
      </trkpt>
      <trkpt lat="43.74242" lon="3.4638">
        <ele>694.21</ele>
        <time>2017-01-19T13:11:48Z</time>
      </trkpt>
      <trkpt lat="43.74237" lon="3.46364">
        <ele>695.65</ele>
        <time>2017-01-19T13:12:02Z</time>
      </trkpt>
      <trkpt lat="43.74233" lon="3.46345">
        <ele>696.13</ele>
        <time>2017-01-19T13:12:17Z</time>
      </trkpt>
      <trkpt lat="43.74231" lon="3.46342">
        <ele>696.61</ele>
        <time>2017-01-19T13:12:19Z</time>
      </trkpt>
      <trkpt lat="43.74225" lon="3.4632">
        <ele>698.53</ele>
        <time>2017-01-19T13:12:36Z</time>
      </trkpt>
      <trkpt lat="43.74217" lon="3.46313">
        <ele>700.46</ele>
        <time>2017-01-19T13:12:53Z</time>
      </trkpt>
      <trkpt lat="43.74206" lon="3.46316">
        <ele>702.38</ele>
        <time>2017-01-19T13:13:07Z</time>
      </trkpt>
      <trkpt lat="43.74198" lon="3.46309">
        <ele>704.3</ele>
        <time>2017-01-19T13:13:24Z</time>
      </trkpt>
      <trkpt lat="43.74193" lon="3.463">
        <ele>706.71</ele>
        <time>2017-01-19T13:13:39Z</time>
      </trkpt>
      <trkpt lat="43.74183" lon="3.46295">
        <ele>709.59</ele>
        <time>2017-01-19T13:13:56Z</time>
      </trkpt>
      <trkpt lat="43.74171" lon="3.46293">
        <ele>710.55</ele>
        <time>2017-01-19T13:14:12Z</time>
      </trkpt>
      <trkpt lat="43.74164" lon="3.46292">
        <ele>711.99</ele>
        <time>2017-01-19T13:14:20Z</time>
      </trkpt>
      <trkpt lat="43.74154" lon="3.46293">
        <ele>713.44</ele>
        <time>2017-01-19T13:14:34Z</time>
      </trkpt>
      <trkpt lat="43.74144" lon="3.46286">
        <ele>714.88</ele>
        <time>2017-01-19T13:14:49Z</time>
      </trkpt>
      <trkpt lat="43.74142" lon="3.46287">
        <ele>714.88</ele>
        <time>2017-01-19T13:14:51Z</time>
      </trkpt>
      <trkpt lat="43.74139" lon="3.46289">
        <ele>715.36</ele>
        <time>2017-01-19T13:14:54Z</time>
      </trkpt>
      <trkpt lat="43.74126" lon="3.46287">
        <ele>716.32</ele>
        <time>2017-01-19T13:15:09Z</time>
      </trkpt>
      <trkpt lat="43.74119" lon="3.46279">
        <ele>717.76</ele>
        <time>2017-01-19T13:15:18Z</time>
      </trkpt>
      <trkpt lat="43.74111" lon="3.46272">
        <ele>718.72</ele>
        <time>2017-01-19T13:15:29Z</time>
      </trkpt>
      <trkpt lat="43.7411" lon="3.46272">
        <ele>718.72</ele>
        <time>2017-01-19T13:15:48Z</time>
      </trkpt>
      <trkpt lat="43.74111" lon="3.46272">
        <ele>718.24</ele>
        <time>2017-01-19T13:16:19Z</time>
      </trkpt>
      <trkpt lat="43.74108" lon="3.46274">
        <ele>718.72</ele>
        <time>2017-01-19T13:16:35Z</time>
      </trkpt>
      <trkpt lat="43.741" lon="3.46268">
        <ele>719.2</ele>
        <time>2017-01-19T13:16:45Z</time>
      </trkpt>
      <trkpt lat="43.74097" lon="3.46264">
        <ele>719.68</ele>
        <time>2017-01-19T13:16:51Z</time>
      </trkpt>
      <trkpt lat="43.74097" lon="3.46253">
        <ele>721.13</ele>
        <time>2017-01-19T13:17:02Z</time>
      </trkpt>
      <trkpt lat="43.74101" lon="3.46243">
        <ele>721.61</ele>
        <time>2017-01-19T13:17:11Z</time>
      </trkpt>
      <trkpt lat="43.74105" lon="3.46229">
        <ele>724.01</ele>
        <time>2017-01-19T13:17:25Z</time>
      </trkpt>
      <trkpt lat="43.74116" lon="3.46212">
        <ele>726.89</ele>
        <time>2017-01-19T13:17:41Z</time>
      </trkpt>
      <trkpt lat="43.74124" lon="3.462">
        <ele>727.37</ele>
        <time>2017-01-19T13:17:59Z</time>
      </trkpt>
      <trkpt lat="43.74128" lon="3.46189">
        <ele>727.86</ele>
        <time>2017-01-19T13:18:18Z</time>
      </trkpt>
      <trkpt lat="43.74127" lon="3.46187">
        <ele>727.37</ele>
        <time>2017-01-19T13:18:45Z</time>
      </trkpt>
      <trkpt lat="43.74128" lon="3.46191">
        <ele>727.37</ele>
        <time>2017-01-19T13:19:07Z</time>
      </trkpt>
      <trkpt lat="43.7413" lon="3.46198">
        <ele>726.89</ele>
        <time>2017-01-19T13:19:34Z</time>
      </trkpt>
      <trkpt lat="43.74124" lon="3.46195">
        <ele>726.89</ele>
        <time>2017-01-19T13:19:57Z</time>
      </trkpt>
      <trkpt lat="43.74121" lon="3.46194">
        <ele>727.37</ele>
        <time>2017-01-19T13:20:20Z</time>
      </trkpt>
      <trkpt lat="43.74123" lon="3.46195">
        <ele>727.37</ele>
        <time>2017-01-19T13:20:42Z</time>
      </trkpt>
      <trkpt lat="43.74121" lon="3.46196">
        <ele>727.37</ele>
        <time>2017-01-19T13:20:56Z</time>
      </trkpt>
      <trkpt lat="43.74122" lon="3.46192">
        <ele>727.86</ele>
        <time>2017-01-19T13:21:17Z</time>
      </trkpt>
      <trkpt lat="43.7412" lon="3.46192">
        <ele>727.86</ele>
        <time>2017-01-19T13:21:39Z</time>
      </trkpt>
      <trkpt lat="43.74128" lon="3.46193">
        <ele>727.86</ele>
        <time>2017-01-19T13:22:01Z</time>
      </trkpt>
      <trkpt lat="43.74126" lon="3.46188">
        <ele>729.78</ele>
        <time>2017-01-19T13:22:28Z</time>
      </trkpt>
      <trkpt lat="43.74121" lon="3.46177">
        <ele>730.74</ele>
        <time>2017-01-19T13:22:40Z</time>
      </trkpt>
      <trkpt lat="43.74123" lon="3.46171">
        <ele>730.74</ele>
        <time>2017-01-19T13:23:05Z</time>
      </trkpt>
      <trkpt lat="43.74124" lon="3.46162">
        <ele>733.62</ele>
        <time>2017-01-19T13:23:20Z</time>
      </trkpt>
      <trkpt lat="43.74117" lon="3.46144">
        <ele>733.14</ele>
        <time>2017-01-19T13:23:37Z</time>
      </trkpt>
      <trkpt lat="43.74106" lon="3.46122">
        <ele>731.22</ele>
        <time>2017-01-19T13:23:53Z</time>
      </trkpt>
      <trkpt lat="43.74095" lon="3.46104">
        <ele>730.74</ele>
        <time>2017-01-19T13:24:14Z</time>
      </trkpt>
      <trkpt lat="43.74064" lon="3.46093">
        <ele>729.78</ele>
        <time>2017-01-19T13:24:34Z</time>
      </trkpt>
      <trkpt lat="43.74048" lon="3.46091">
        <ele>729.3</ele>
        <time>2017-01-19T13:24:51Z</time>
      </trkpt>
      <trkpt lat="43.74026" lon="3.46099">
        <ele>729.3</ele>
        <time>2017-01-19T13:25:08Z</time>
      </trkpt>
      <trkpt lat="43.74012" lon="3.46099">
        <ele>730.74</ele>
        <time>2017-01-19T13:25:24Z</time>
      </trkpt>
      <trkpt lat="43.73996" lon="3.46087">
        <ele>732.66</ele>
        <time>2017-01-19T13:25:43Z</time>
      </trkpt>
      <trkpt lat="43.73978" lon="3.46082">
        <ele>734.58</ele>
        <time>2017-01-19T13:26:00Z</time>
      </trkpt>
      <trkpt lat="43.73962" lon="3.46074">
        <ele>734.58</ele>
        <time>2017-01-19T13:26:15Z</time>
      </trkpt>
      <trkpt lat="43.73955" lon="3.46061">
        <ele>736.99</ele>
        <time>2017-01-19T13:26:31Z</time>
      </trkpt>
      <trkpt lat="43.73944" lon="3.4605">
        <ele>738.91</ele>
        <time>2017-01-19T13:26:46Z</time>
      </trkpt>
      <trkpt lat="43.73945" lon="3.46038">
        <ele>740.83</ele>
        <time>2017-01-19T13:27:01Z</time>
      </trkpt>
      <trkpt lat="43.73949" lon="3.46025">
        <ele>742.76</ele>
        <time>2017-01-19T13:27:16Z</time>
      </trkpt>
      <trkpt lat="43.7395" lon="3.46022">
        <ele>743.24</ele>
        <time>2017-01-19T13:27:18Z</time>
      </trkpt>
      <trkpt lat="43.73953" lon="3.46007">
        <ele>743.72</ele>
        <time>2017-01-19T13:27:31Z</time>
      </trkpt>
      <trkpt lat="43.73952" lon="3.45995">
        <ele>743.72</ele>
        <time>2017-01-19T13:27:43Z</time>
      </trkpt>
      <trkpt lat="43.73958" lon="3.45976">
        <ele>742.28</ele>
        <time>2017-01-19T13:28:00Z</time>
      </trkpt>
      <trkpt lat="43.73967" lon="3.45957">
        <ele>742.76</ele>
        <time>2017-01-19T13:28:12Z</time>
      </trkpt>
      <trkpt lat="43.73984" lon="3.4594">
        <ele>743.24</ele>
        <time>2017-01-19T13:28:30Z</time>
      </trkpt>
      <trkpt lat="43.73988" lon="3.4593">
        <ele>743.24</ele>
        <time>2017-01-19T13:28:38Z</time>
      </trkpt>
      <trkpt lat="43.73996" lon="3.45904">
        <ele>742.76</ele>
        <time>2017-01-19T13:28:54Z</time>
      </trkpt>
      <trkpt lat="43.74" lon="3.45884">
        <ele>744.2</ele>
        <time>2017-01-19T13:29:09Z</time>
      </trkpt>
      <trkpt lat="43.74011" lon="3.45859">
        <ele>745.16</ele>
        <time>2017-01-19T13:29:29Z</time>
      </trkpt>
      <trkpt lat="43.74026" lon="3.45847">
        <ele>745.16</ele>
        <time>2017-01-19T13:29:45Z</time>
      </trkpt>
      <trkpt lat="43.74043" lon="3.4584">
        <ele>745.16</ele>
        <time>2017-01-19T13:30:03Z</time>
      </trkpt>
      <trkpt lat="43.74065" lon="3.45828">
        <ele>746.12</ele>
        <time>2017-01-19T13:30:23Z</time>
      </trkpt>
      <trkpt lat="43.74087" lon="3.45818">
        <ele>747.56</ele>
        <time>2017-01-19T13:30:44Z</time>
      </trkpt>
      <trkpt lat="43.74112" lon="3.45815">
        <ele>749</ele>
        <time>2017-01-19T13:31:08Z</time>
      </trkpt>
      <trkpt lat="43.74132" lon="3.45823">
        <ele>746.6</ele>
        <time>2017-01-19T13:31:30Z</time>
      </trkpt>
      <trkpt lat="43.74142" lon="3.45833">
        <ele>744.2</ele>
        <time>2017-01-19T13:31:45Z</time>
      </trkpt>
      <trkpt lat="43.74146" lon="3.45836">
        <ele>743.24</ele>
        <time>2017-01-19T13:31:50Z</time>
      </trkpt>
      <trkpt lat="43.7416" lon="3.45842">
        <ele>740.35</ele>
        <time>2017-01-19T13:32:04Z</time>
      </trkpt>
      <trkpt lat="43.74173" lon="3.45857">
        <ele>737.95</ele>
        <time>2017-01-19T13:32:22Z</time>
      </trkpt>
      <trkpt lat="43.74186" lon="3.45871">
        <ele>735.55</ele>
        <time>2017-01-19T13:32:37Z</time>
      </trkpt>
      <trkpt lat="43.74203" lon="3.45876">
        <ele>733.62</ele>
        <time>2017-01-19T13:32:56Z</time>
      </trkpt>
      <trkpt lat="43.74219" lon="3.45875">
        <ele>732.18</ele>
        <time>2017-01-19T13:33:10Z</time>
      </trkpt>
      <trkpt lat="43.74236" lon="3.45879">
        <ele>731.22</ele>
        <time>2017-01-19T13:33:27Z</time>
      </trkpt>
      <trkpt lat="43.74256" lon="3.45882">
        <ele>730.26</ele>
        <time>2017-01-19T13:33:45Z</time>
      </trkpt>
      <trkpt lat="43.7427" lon="3.45871">
        <ele>727.86</ele>
        <time>2017-01-19T13:34:03Z</time>
      </trkpt>
      <trkpt lat="43.74275" lon="3.45849">
        <ele>725.45</ele>
        <time>2017-01-19T13:34:22Z</time>
      </trkpt>
      <trkpt lat="43.74293" lon="3.45845">
        <ele>722.57</ele>
        <time>2017-01-19T13:34:41Z</time>
      </trkpt>
      <trkpt lat="43.74308" lon="3.45849">
        <ele>720.16</ele>
        <time>2017-01-19T13:34:59Z</time>
      </trkpt>
      <trkpt lat="43.74317" lon="3.45857">
        <ele>717.76</ele>
        <time>2017-01-19T13:35:15Z</time>
      </trkpt>
      <trkpt lat="43.74331" lon="3.45869">
        <ele>715.36</ele>
        <time>2017-01-19T13:35:33Z</time>
      </trkpt>
      <trkpt lat="43.74351" lon="3.45877">
        <ele>712.95</ele>
        <time>2017-01-19T13:35:53Z</time>
      </trkpt>
      <trkpt lat="43.74369" lon="3.4588">
        <ele>711.51</ele>
        <time>2017-01-19T13:36:13Z</time>
      </trkpt>
      <trkpt lat="43.74378" lon="3.45883">
        <ele>710.55</ele>
        <time>2017-01-19T13:36:24Z</time>
      </trkpt>
      <trkpt lat="43.74393" lon="3.45886">
        <ele>709.11</ele>
        <time>2017-01-19T13:36:39Z</time>
      </trkpt>
      <trkpt lat="43.74408" lon="3.45892">
        <ele>709.11</ele>
        <time>2017-01-19T13:36:53Z</time>
      </trkpt>
      <trkpt lat="43.74425" lon="3.45902">
        <ele>709.11</ele>
        <time>2017-01-19T13:37:09Z</time>
      </trkpt>
      <trkpt lat="43.7444" lon="3.45915">
        <ele>707.67</ele>
        <time>2017-01-19T13:37:26Z</time>
      </trkpt>
      <trkpt lat="43.74455" lon="3.45929">
        <ele>705.26</ele>
        <time>2017-01-19T13:37:45Z</time>
      </trkpt>
      <trkpt lat="43.74468" lon="3.45932">
        <ele>704.3</ele>
        <time>2017-01-19T13:37:58Z</time>
      </trkpt>
      <trkpt lat="43.74475" lon="3.45941">
        <ele>702.86</ele>
        <time>2017-01-19T13:38:09Z</time>
      </trkpt>
      <trkpt lat="43.7448" lon="3.45949">
        <ele>701.9</ele>
        <time>2017-01-19T13:38:16Z</time>
      </trkpt>
      <trkpt lat="43.74494" lon="3.4596">
        <ele>701.42</ele>
        <time>2017-01-19T13:38:29Z</time>
      </trkpt>
      <trkpt lat="43.74498" lon="3.45963">
        <ele>701.9</ele>
        <time>2017-01-19T13:38:33Z</time>
      </trkpt>
      <trkpt lat="43.74515" lon="3.45972">
        <ele>701.9</ele>
        <time>2017-01-19T13:38:49Z</time>
      </trkpt>
      <trkpt lat="43.74521" lon="3.45973">
        <ele>701.9</ele>
        <time>2017-01-19T13:39:02Z</time>
      </trkpt>
      <trkpt lat="43.74526" lon="3.45988">
        <ele>701.9</ele>
        <time>2017-01-19T13:39:15Z</time>
      </trkpt>
      <trkpt lat="43.74526" lon="3.45989">
        <ele>701.9</ele>
        <time>2017-01-19T13:39:26Z</time>
      </trkpt>
      <trkpt lat="43.74514" lon="3.45968">
        <ele>701.42</ele>
        <time>2017-01-19T13:39:39Z</time>
      </trkpt>
      <trkpt lat="43.7451" lon="3.45955">
        <ele>702.38</ele>
        <time>2017-01-19T13:39:53Z</time>
      </trkpt>
      <trkpt lat="43.74517" lon="3.45949">
        <ele>705.26</ele>
        <time>2017-01-19T13:40:04Z</time>
      </trkpt>
      <trkpt lat="43.74517" lon="3.45934">
        <ele>708.15</ele>
        <time>2017-01-19T13:40:17Z</time>
      </trkpt>
      <trkpt lat="43.74517" lon="3.45908">
        <ele>711.51</ele>
        <time>2017-01-19T13:40:36Z</time>
      </trkpt>
      <trkpt lat="43.74532" lon="3.45884">
        <ele>714.4</ele>
        <time>2017-01-19T13:40:56Z</time>
      </trkpt>
      <trkpt lat="43.74545" lon="3.45863">
        <ele>716.32</ele>
        <time>2017-01-19T13:41:17Z</time>
      </trkpt>
      <trkpt lat="43.74552" lon="3.45859">
        <ele>715.84</ele>
        <time>2017-01-19T13:41:30Z</time>
      </trkpt>
      <trkpt lat="43.74551" lon="3.45852">
        <ele>715.84</ele>
        <time>2017-01-19T13:41:43Z</time>
      </trkpt>
      <trkpt lat="43.74552" lon="3.45848">
        <ele>715.84</ele>
        <time>2017-01-19T13:42:12Z</time>
      </trkpt>
      <trkpt lat="43.74553" lon="3.45853">
        <ele>716.32</ele>
        <time>2017-01-19T13:42:38Z</time>
      </trkpt>
      <trkpt lat="43.74553" lon="3.45854">
        <ele>716.32</ele>
        <time>2017-01-19T13:42:59Z</time>
      </trkpt>
      <trkpt lat="43.74554" lon="3.45857">
        <ele>716.32</ele>
        <time>2017-01-19T13:43:20Z</time>
      </trkpt>
      <trkpt lat="43.7456" lon="3.45862">
        <ele>716.32</ele>
        <time>2017-01-19T13:43:34Z</time>
      </trkpt>
      <trkpt lat="43.74567" lon="3.45872">
        <ele>718.24</ele>
        <time>2017-01-19T13:43:50Z</time>
      </trkpt>
      <trkpt lat="43.74575" lon="3.4588">
        <ele>718.24</ele>
        <time>2017-01-19T13:44:04Z</time>
      </trkpt>
      <trkpt lat="43.74581" lon="3.45883">
        <ele>716.8</ele>
        <time>2017-01-19T13:44:20Z</time>
      </trkpt>
      <trkpt lat="43.74591" lon="3.45882">
        <ele>718.24</ele>
        <time>2017-01-19T13:44:30Z</time>
      </trkpt>
      <trkpt lat="43.74603" lon="3.45884">
        <ele>721.61</ele>
        <time>2017-01-19T13:44:45Z</time>
      </trkpt>
      <trkpt lat="43.74621" lon="3.45887">
        <ele>723.53</ele>
        <time>2017-01-19T13:45:03Z</time>
      </trkpt>
      <trkpt lat="43.74633" lon="3.45886">
        <ele>724.97</ele>
        <time>2017-01-19T13:45:18Z</time>
      </trkpt>
      <trkpt lat="43.74648" lon="3.45892">
        <ele>727.37</ele>
        <time>2017-01-19T13:45:37Z</time>
      </trkpt>
      <trkpt lat="43.7466" lon="3.45892">
        <ele>729.78</ele>
        <time>2017-01-19T13:45:54Z</time>
      </trkpt>
      <trkpt lat="43.74672" lon="3.45887">
        <ele>731.7</ele>
        <time>2017-01-19T13:46:13Z</time>
      </trkpt>
      <trkpt lat="43.7468" lon="3.45878">
        <ele>734.58</ele>
        <time>2017-01-19T13:46:30Z</time>
      </trkpt>
      <trkpt lat="43.74691" lon="3.45869">
        <ele>736.51</ele>
        <time>2017-01-19T13:46:45Z</time>
      </trkpt>
      <trkpt lat="43.74705" lon="3.45867">
        <ele>737.47</ele>
        <time>2017-01-19T13:47:00Z</time>
      </trkpt>
      <trkpt lat="43.74716" lon="3.45867">
        <ele>738.43</ele>
        <time>2017-01-19T13:47:13Z</time>
      </trkpt>
      <trkpt lat="43.74714" lon="3.45859">
        <ele>740.35</ele>
        <time>2017-01-19T13:47:24Z</time>
      </trkpt>
      <trkpt lat="43.74713" lon="3.45837">
        <ele>740.35</ele>
        <time>2017-01-19T13:47:39Z</time>
      </trkpt>
      <trkpt lat="43.74717" lon="3.45822">
        <ele>738.43</ele>
        <time>2017-01-19T13:47:57Z</time>
      </trkpt>
      <trkpt lat="43.74727" lon="3.45818">
        <ele>736.99</ele>
        <time>2017-01-19T13:48:18Z</time>
      </trkpt>
      <trkpt lat="43.74737" lon="3.45811">
        <ele>733.62</ele>
        <time>2017-01-19T13:48:35Z</time>
      </trkpt>
      <trkpt lat="43.74751" lon="3.45813">
        <ele>733.14</ele>
        <time>2017-01-19T13:48:53Z</time>
      </trkpt>
      <trkpt lat="43.74762" lon="3.45811">
        <ele>733.14</ele>
        <time>2017-01-19T13:49:09Z</time>
      </trkpt>
      <trkpt lat="43.74769" lon="3.458">
        <ele>729.78</ele>
        <time>2017-01-19T13:49:21Z</time>
      </trkpt>
      <trkpt lat="43.74777" lon="3.4579">
        <ele>729.78</ele>
        <time>2017-01-19T13:49:37Z</time>
      </trkpt>
      <trkpt lat="43.74781" lon="3.45781">
        <ele>730.74</ele>
        <time>2017-01-19T13:49:45Z</time>
      </trkpt>
      <trkpt lat="43.74786" lon="3.45776">
        <ele>730.26</ele>
        <time>2017-01-19T13:49:51Z</time>
      </trkpt>
      <trkpt lat="43.74793" lon="3.45778">
        <ele>729.78</ele>
        <time>2017-01-19T13:50:08Z</time>
      </trkpt>
      <trkpt lat="43.74802" lon="3.4578">
        <ele>729.3</ele>
        <time>2017-01-19T13:50:27Z</time>
      </trkpt>
      <trkpt lat="43.74809" lon="3.45776">
        <ele>726.41</ele>
        <time>2017-01-19T13:50:39Z</time>
      </trkpt>
      <trkpt lat="43.74816" lon="3.45771">
        <ele>724.97</ele>
        <time>2017-01-19T13:50:52Z</time>
      </trkpt>
      <trkpt lat="43.74822" lon="3.45761">
        <ele>723.53</ele>
        <time>2017-01-19T13:51:06Z</time>
      </trkpt>
      <trkpt lat="43.74817" lon="3.45752">
        <ele>723.53</ele>
        <time>2017-01-19T13:51:24Z</time>
      </trkpt>
      <trkpt lat="43.74814" lon="3.45754">
        <ele>723.53</ele>
        <time>2017-01-19T13:51:43Z</time>
      </trkpt>
      <trkpt lat="43.74817" lon="3.45747">
        <ele>723.53</ele>
        <time>2017-01-19T13:51:57Z</time>
      </trkpt>
      <trkpt lat="43.74822" lon="3.45739">
        <ele>724.49</ele>
        <time>2017-01-19T13:52:10Z</time>
      </trkpt>
      <trkpt lat="43.74827" lon="3.45734">
        <ele>725.93</ele>
        <time>2017-01-19T13:52:24Z</time>
      </trkpt>
      <trkpt lat="43.7483" lon="3.45731">
        <ele>726.41</ele>
        <time>2017-01-19T13:52:40Z</time>
      </trkpt>
      <trkpt lat="43.74837" lon="3.45727">
        <ele>725.45</ele>
        <time>2017-01-19T13:52:56Z</time>
      </trkpt>
      <trkpt lat="43.74846" lon="3.45722">
        <ele>724.01</ele>
        <time>2017-01-19T13:53:11Z</time>
      </trkpt>
      <trkpt lat="43.74851" lon="3.45717">
        <ele>720.65</ele>
        <time>2017-01-19T13:53:24Z</time>
      </trkpt>
      <trkpt lat="43.74854" lon="3.45713">
        <ele>718.72</ele>
        <time>2017-01-19T13:53:41Z</time>
      </trkpt>
      <trkpt lat="43.74856" lon="3.45706">
        <ele>715.84</ele>
        <time>2017-01-19T13:53:56Z</time>
      </trkpt>
      <trkpt lat="43.74861" lon="3.45688">
        <ele>714.4</ele>
        <time>2017-01-19T13:54:16Z</time>
      </trkpt>
      <trkpt lat="43.7487" lon="3.45673">
        <ele>715.36</ele>
        <time>2017-01-19T13:54:35Z</time>
      </trkpt>
      <trkpt lat="43.74872" lon="3.45658">
        <ele>718.72</ele>
        <time>2017-01-19T13:54:50Z</time>
      </trkpt>
      <trkpt lat="43.74871" lon="3.45652">
        <ele>720.16</ele>
        <time>2017-01-19T13:55:05Z</time>
      </trkpt>
      <trkpt lat="43.74876" lon="3.45647">
        <ele>723.05</ele>
        <time>2017-01-19T13:55:20Z</time>
      </trkpt>
      <trkpt lat="43.74876" lon="3.45632">
        <ele>724.01</ele>
        <time>2017-01-19T13:55:41Z</time>
      </trkpt>
      <trkpt lat="43.74888" lon="3.45619">
        <ele>721.61</ele>
        <time>2017-01-19T13:56:03Z</time>
      </trkpt>
      <trkpt lat="43.74903" lon="3.45603">
        <ele>721.61</ele>
        <time>2017-01-19T13:56:21Z</time>
      </trkpt>
      <trkpt lat="43.74909" lon="3.45596">
        <ele>724.01</ele>
        <time>2017-01-19T13:56:36Z</time>
      </trkpt>
      <trkpt lat="43.74916" lon="3.45593">
        <ele>726.89</ele>
        <time>2017-01-19T13:56:51Z</time>
      </trkpt>
      <trkpt lat="43.74925" lon="3.45591">
        <ele>729.78</ele>
        <time>2017-01-19T13:57:09Z</time>
      </trkpt>
      <trkpt lat="43.74936" lon="3.45592">
        <ele>733.14</ele>
        <time>2017-01-19T13:57:28Z</time>
      </trkpt>
      <trkpt lat="43.74939" lon="3.45589">
        <ele>735.07</ele>
        <time>2017-01-19T13:57:42Z</time>
      </trkpt>
      <trkpt lat="43.7494" lon="3.45586">
        <ele>736.99</ele>
        <time>2017-01-19T13:57:52Z</time>
      </trkpt>
      <trkpt lat="43.74946" lon="3.45576">
        <ele>738.43</ele>
        <time>2017-01-19T13:58:04Z</time>
      </trkpt>
      <trkpt lat="43.74949" lon="3.45561">
        <ele>740.35</ele>
        <time>2017-01-19T13:58:18Z</time>
      </trkpt>
      <trkpt lat="43.74951" lon="3.45558">
        <ele>740.35</ele>
        <time>2017-01-19T13:58:21Z</time>
      </trkpt>
      <trkpt lat="43.74955" lon="3.45556">
        <ele>740.35</ele>
        <time>2017-01-19T13:58:34Z</time>
      </trkpt>
      <trkpt lat="43.74957" lon="3.45555">
        <ele>740.35</ele>
        <time>2017-01-19T13:59:02Z</time>
      </trkpt>
      <trkpt lat="43.74953" lon="3.45558">
        <ele>740.35</ele>
        <time>2017-01-19T13:59:28Z</time>
      </trkpt>
      <trkpt lat="43.7495" lon="3.45555">
        <ele>741.79</ele>
        <time>2017-01-19T13:59:48Z</time>
      </trkpt>
      <trkpt lat="43.74947" lon="3.45559">
        <ele>741.79</ele>
        <time>2017-01-19T14:00:04Z</time>
      </trkpt>
      <trkpt lat="43.74949" lon="3.45553">
        <ele>741.79</ele>
        <time>2017-01-19T14:00:32Z</time>
      </trkpt>
      <trkpt lat="43.74951" lon="3.4555">
        <ele>741.79</ele>
        <time>2017-01-19T14:00:49Z</time>
      </trkpt>
      <trkpt lat="43.7495" lon="3.4555">
        <ele>741.79</ele>
        <time>2017-01-19T14:01:10Z</time>
      </trkpt>
      <trkpt lat="43.74952" lon="3.45551">
        <ele>742.28</ele>
        <time>2017-01-19T14:01:28Z</time>
      </trkpt>
      <trkpt lat="43.74957" lon="3.45554">
        <ele>742.28</ele>
        <time>2017-01-19T14:01:39Z</time>
      </trkpt>
      <trkpt lat="43.7496" lon="3.45553">
        <ele>742.28</ele>
        <time>2017-01-19T14:01:44Z</time>
      </trkpt>
      <trkpt lat="43.74969" lon="3.45554">
        <ele>743.24</ele>
        <time>2017-01-19T14:01:54Z</time>
      </trkpt>
      <trkpt lat="43.74969" lon="3.45554">
        <ele>743.24</ele>
        <time>2017-01-19T14:01:55Z</time>
      </trkpt>
      <trkpt lat="43.74971" lon="3.45555">
        <ele>743.24</ele>
        <time>2017-01-19T14:01:57Z</time>
      </trkpt>
      <trkpt lat="43.74984" lon="3.45563">
        <ele>743.72</ele>
        <time>2017-01-19T14:02:15Z</time>
      </trkpt>
      <trkpt lat="43.74991" lon="3.45574">
        <ele>745.16</ele>
        <time>2017-01-19T14:02:30Z</time>
      </trkpt>
      <trkpt lat="43.74992" lon="3.45575">
        <ele>745.16</ele>
        <time>2017-01-19T14:02:40Z</time>
      </trkpt>
      <trkpt lat="43.75005" lon="3.45578">
        <ele>746.6</ele>
        <time>2017-01-19T14:02:55Z</time>
      </trkpt>
      <trkpt lat="43.75009" lon="3.45574">
        <ele>746.6</ele>
        <time>2017-01-19T14:03:02Z</time>
      </trkpt>
      <trkpt lat="43.75019" lon="3.45563">
        <ele>746.6</ele>
        <time>2017-01-19T14:03:16Z</time>
      </trkpt>
      <trkpt lat="43.75026" lon="3.45566">
        <ele>747.08</ele>
        <time>2017-01-19T14:03:24Z</time>
      </trkpt>
      <trkpt lat="43.75031" lon="3.45564">
        <ele>747.56</ele>
        <time>2017-01-19T14:03:28Z</time>
      </trkpt>
      <trkpt lat="43.75046" lon="3.45557">
        <ele>747.08</ele>
        <time>2017-01-19T14:03:42Z</time>
      </trkpt>
      <trkpt lat="43.75067" lon="3.45575">
        <ele>747.08</ele>
        <time>2017-01-19T14:04:00Z</time>
      </trkpt>
      <trkpt lat="43.75078" lon="3.45585">
        <ele>747.56</ele>
        <time>2017-01-19T14:04:14Z</time>
      </trkpt>
      <trkpt lat="43.75089" lon="3.45586">
        <ele>746.6</ele>
        <time>2017-01-19T14:04:24Z</time>
      </trkpt>
      <trkpt lat="43.751" lon="3.4559">
        <ele>746.12</ele>
        <time>2017-01-19T14:04:35Z</time>
      </trkpt>
      <trkpt lat="43.75114" lon="3.4559">
        <ele>744.2</ele>
        <time>2017-01-19T14:04:49Z</time>
      </trkpt>
      <trkpt lat="43.75133" lon="3.45603">
        <ele>742.28</ele>
        <time>2017-01-19T14:05:06Z</time>
      </trkpt>
      <trkpt lat="43.75148" lon="3.45599">
        <ele>739.87</ele>
        <time>2017-01-19T14:05:22Z</time>
      </trkpt>
      <trkpt lat="43.75158" lon="3.45598">
        <ele>738.91</ele>
        <time>2017-01-19T14:05:31Z</time>
      </trkpt>
      <trkpt lat="43.75175" lon="3.45598">
        <ele>736.99</ele>
        <time>2017-01-19T14:05:48Z</time>
      </trkpt>
      <trkpt lat="43.75192" lon="3.45584">
        <ele>736.03</ele>
        <time>2017-01-19T14:06:07Z</time>
      </trkpt>
      <trkpt lat="43.75204" lon="3.45575">
        <ele>735.07</ele>
        <time>2017-01-19T14:06:17Z</time>
      </trkpt>
      <trkpt lat="43.75221" lon="3.45573">
        <ele>734.58</ele>
        <time>2017-01-19T14:06:30Z</time>
      </trkpt>
      <trkpt lat="43.75236" lon="3.45587">
        <ele>733.14</ele>
        <time>2017-01-19T14:06:46Z</time>
      </trkpt>
      <trkpt lat="43.75253" lon="3.45592">
        <ele>731.7</ele>
        <time>2017-01-19T14:07:04Z</time>
      </trkpt>
      <trkpt lat="43.75274" lon="3.45606">
        <ele>730.74</ele>
        <time>2017-01-19T14:07:23Z</time>
      </trkpt>
      <trkpt lat="43.75287" lon="3.45611">
        <ele>729.3</ele>
        <time>2017-01-19T14:07:37Z</time>
      </trkpt>
      <trkpt lat="43.75294" lon="3.45616">
        <ele>728.82</ele>
        <time>2017-01-19T14:07:45Z</time>
      </trkpt>
      <trkpt lat="43.75316" lon="3.45624">
        <ele>727.37</ele>
        <time>2017-01-19T14:08:03Z</time>
      </trkpt>
      <trkpt lat="43.75334" lon="3.45634">
        <ele>726.41</ele>
        <time>2017-01-19T14:08:18Z</time>
      </trkpt>
      <trkpt lat="43.75336" lon="3.45635">
        <ele>726.41</ele>
        <time>2017-01-19T14:08:20Z</time>
      </trkpt>
      <trkpt lat="43.75346" lon="3.45635">
        <ele>725.45</ele>
        <time>2017-01-19T14:08:28Z</time>
      </trkpt>
      <trkpt lat="43.75348" lon="3.45634">
        <ele>725.45</ele>
        <time>2017-01-19T14:08:30Z</time>
      </trkpt>
      <trkpt lat="43.75355" lon="3.45632">
        <ele>724.97</ele>
        <time>2017-01-19T14:08:36Z</time>
      </trkpt>
      <trkpt lat="43.7536" lon="3.45627">
        <ele>724.01</ele>
        <time>2017-01-19T14:08:43Z</time>
      </trkpt>
      <trkpt lat="43.75379" lon="3.45636">
        <ele>724.01</ele>
        <time>2017-01-19T14:09:01Z</time>
      </trkpt>
      <trkpt lat="43.75395" lon="3.45642">
        <ele>723.53</ele>
        <time>2017-01-19T14:09:13Z</time>
      </trkpt>
      <trkpt lat="43.75415" lon="3.45639">
        <ele>724.01</ele>
        <time>2017-01-19T14:09:31Z</time>
      </trkpt>
      <trkpt lat="43.75431" lon="3.4564">
        <ele>724.49</ele>
        <time>2017-01-19T14:09:45Z</time>
      </trkpt>
      <trkpt lat="43.75452" lon="3.45654">
        <ele>724.01</ele>
        <time>2017-01-19T14:10:02Z</time>
      </trkpt>
      <trkpt lat="43.75454" lon="3.45656">
        <ele>724.01</ele>
        <time>2017-01-19T14:10:04Z</time>
      </trkpt>
      <trkpt lat="43.7547" lon="3.45676">
        <ele>723.53</ele>
        <time>2017-01-19T14:10:22Z</time>
      </trkpt>
      <trkpt lat="43.75477" lon="3.45697">
        <ele>722.09</ele>
        <time>2017-01-19T14:10:38Z</time>
      </trkpt>
      <trkpt lat="43.75479" lon="3.457">
        <ele>722.57</ele>
        <time>2017-01-19T14:10:40Z</time>
      </trkpt>
      <trkpt lat="43.75494" lon="3.45727">
        <ele>719.68</ele>
        <time>2017-01-19T14:10:58Z</time>
      </trkpt>
      <trkpt lat="43.75495" lon="3.4573">
        <ele>719.68</ele>
        <time>2017-01-19T14:11:00Z</time>
      </trkpt>
      <trkpt lat="43.75503" lon="3.45744">
        <ele>718.72</ele>
        <time>2017-01-19T14:11:11Z</time>
      </trkpt>
      <trkpt lat="43.75521" lon="3.45741">
        <ele>716.8</ele>
        <time>2017-01-19T14:11:29Z</time>
      </trkpt>
      <trkpt lat="43.75542" lon="3.45742">
        <ele>715.84</ele>
        <time>2017-01-19T14:11:45Z</time>
      </trkpt>
      <trkpt lat="43.75568" lon="3.45748">
        <ele>714.88</ele>
        <time>2017-01-19T14:12:04Z</time>
      </trkpt>
      <trkpt lat="43.75569" lon="3.45749">
        <ele>714.88</ele>
        <time>2017-01-19T14:12:05Z</time>
      </trkpt>
      <trkpt lat="43.75587" lon="3.45755">
        <ele>713.92</ele>
        <time>2017-01-19T14:12:21Z</time>
      </trkpt>
      <trkpt lat="43.75599" lon="3.45758">
        <ele>713.44</ele>
        <time>2017-01-19T14:12:32Z</time>
      </trkpt>
      <trkpt lat="43.7562" lon="3.45746">
        <ele>711.99</ele>
        <time>2017-01-19T14:12:50Z</time>
      </trkpt>
      <trkpt lat="43.75633" lon="3.45752">
        <ele>710.07</ele>
        <time>2017-01-19T14:13:03Z</time>
      </trkpt>
      <trkpt lat="43.75645" lon="3.45771">
        <ele>707.67</ele>
        <time>2017-01-19T14:13:21Z</time>
      </trkpt>
      <trkpt lat="43.75655" lon="3.45775">
        <ele>705.26</ele>
        <time>2017-01-19T14:13:32Z</time>
      </trkpt>
      <trkpt lat="43.75668" lon="3.45783">
        <ele>703.34</ele>
        <time>2017-01-19T14:13:45Z</time>
      </trkpt>
      <trkpt lat="43.75673" lon="3.45786">
        <ele>703.34</ele>
        <time>2017-01-19T14:13:49Z</time>
      </trkpt>
      <trkpt lat="43.75688" lon="3.45797">
        <ele>701.42</ele>
        <time>2017-01-19T14:14:05Z</time>
      </trkpt>
      <trkpt lat="43.75694" lon="3.45796">
        <ele>700.46</ele>
        <time>2017-01-19T14:14:12Z</time>
      </trkpt>
      <trkpt lat="43.75711" lon="3.45799">
        <ele>699.5</ele>
        <time>2017-01-19T14:14:27Z</time>
      </trkpt>
      <trkpt lat="43.75727" lon="3.458">
        <ele>698.53</ele>
        <time>2017-01-19T14:14:40Z</time>
      </trkpt>
      <trkpt lat="43.75742" lon="3.45803">
        <ele>697.57</ele>
        <time>2017-01-19T14:14:54Z</time>
      </trkpt>
      <trkpt lat="43.75744" lon="3.45804">
        <ele>697.57</ele>
        <time>2017-01-19T14:14:56Z</time>
      </trkpt>
      <trkpt lat="43.75762" lon="3.45815">
        <ele>696.61</ele>
        <time>2017-01-19T14:15:10Z</time>
      </trkpt>
      <trkpt lat="43.75778" lon="3.45823">
        <ele>696.13</ele>
        <time>2017-01-19T14:15:24Z</time>
      </trkpt>
      <trkpt lat="43.75787" lon="3.45827">
        <ele>696.13</ele>
        <time>2017-01-19T14:15:31Z</time>
      </trkpt>
      <trkpt lat="43.75802" lon="3.45834">
        <ele>694.69</ele>
        <time>2017-01-19T14:15:46Z</time>
      </trkpt>
      <trkpt lat="43.75808" lon="3.45834">
        <ele>694.69</ele>
        <time>2017-01-19T14:15:54Z</time>
      </trkpt>
      <trkpt lat="43.75819" lon="3.45831">
        <ele>693.73</ele>
        <time>2017-01-19T14:16:00Z</time>
      </trkpt>
      <trkpt lat="43.75827" lon="3.45835">
        <ele>693.73</ele>
        <time>2017-01-19T14:16:08Z</time>
      </trkpt>
      <trkpt lat="43.75836" lon="3.45845">
        <ele>693.25</ele>
        <time>2017-01-19T14:16:17Z</time>
      </trkpt>
      <trkpt lat="43.75856" lon="3.45851">
        <ele>692.29</ele>
        <time>2017-01-19T14:16:34Z</time>
      </trkpt>
      <trkpt lat="43.75874" lon="3.45857">
        <ele>691.81</ele>
        <time>2017-01-19T14:16:49Z</time>
      </trkpt>
      <trkpt lat="43.75891" lon="3.45863">
        <ele>691.33</ele>
        <time>2017-01-19T14:17:04Z</time>
      </trkpt>
      <trkpt lat="43.759" lon="3.45875">
        <ele>690.84</ele>
        <time>2017-01-19T14:17:15Z</time>
      </trkpt>
      <trkpt lat="43.75905" lon="3.45878">
        <ele>690.36</ele>
        <time>2017-01-19T14:17:20Z</time>
      </trkpt>
      <trkpt lat="43.75909" lon="3.45878">
        <ele>690.36</ele>
        <time>2017-01-19T14:17:24Z</time>
      </trkpt>
      <trkpt lat="43.75922" lon="3.45862">
        <ele>690.36</ele>
        <time>2017-01-19T14:17:39Z</time>
      </trkpt>
      <trkpt lat="43.75938" lon="3.45846">
        <ele>690.36</ele>
        <time>2017-01-19T14:17:57Z</time>
      </trkpt>
      <trkpt lat="43.75948" lon="3.45831">
        <ele>690.84</ele>
        <time>2017-01-19T14:18:10Z</time>
      </trkpt>
      <trkpt lat="43.75949" lon="3.45805">
        <ele>691.81</ele>
        <time>2017-01-19T14:18:27Z</time>
      </trkpt>
      <trkpt lat="43.75947" lon="3.45792">
        <ele>691.81</ele>
        <time>2017-01-19T14:18:35Z</time>
      </trkpt>
      <trkpt lat="43.75948" lon="3.45768">
        <ele>691.81</ele>
        <time>2017-01-19T14:18:50Z</time>
      </trkpt>
      <trkpt lat="43.75959" lon="3.4575">
        <ele>692.29</ele>
        <time>2017-01-19T14:19:05Z</time>
      </trkpt>
      <trkpt lat="43.75967" lon="3.45735">
        <ele>692.77</ele>
        <time>2017-01-19T14:19:17Z</time>
      </trkpt>
      <trkpt lat="43.75968" lon="3.45724">
        <ele>692.29</ele>
        <time>2017-01-19T14:19:24Z</time>
      </trkpt>
      <trkpt lat="43.75973" lon="3.45699">
        <ele>692.77</ele>
        <time>2017-01-19T14:19:40Z</time>
      </trkpt>
      <trkpt lat="43.75987" lon="3.45678">
        <ele>692.77</ele>
        <time>2017-01-19T14:19:58Z</time>
      </trkpt>
      <trkpt lat="43.75997" lon="3.45662">
        <ele>692.77</ele>
        <time>2017-01-19T14:20:12Z</time>
      </trkpt>
      <trkpt lat="43.76002" lon="3.45653">
        <ele>693.25</ele>
        <time>2017-01-19T14:20:21Z</time>
      </trkpt>
      <trkpt lat="43.76008" lon="3.45642">
        <ele>693.73</ele>
        <time>2017-01-19T14:20:29Z</time>
      </trkpt>
      <trkpt lat="43.76028" lon="3.45628">
        <ele>694.21</ele>
        <time>2017-01-19T14:20:49Z</time>
      </trkpt>
      <trkpt lat="43.76044" lon="3.45613">
        <ele>694.69</ele>
        <time>2017-01-19T14:21:07Z</time>
      </trkpt>
      <trkpt lat="43.76062" lon="3.45595">
        <ele>694.69</ele>
        <time>2017-01-19T14:21:26Z</time>
      </trkpt>
      <trkpt lat="43.76078" lon="3.45584">
        <ele>694.69</ele>
        <time>2017-01-19T14:21:41Z</time>
      </trkpt>
      <trkpt lat="43.76091" lon="3.45575">
        <ele>694.69</ele>
        <time>2017-01-19T14:21:55Z</time>
      </trkpt>
      <trkpt lat="43.76111" lon="3.45569">
        <ele>694.69</ele>
        <time>2017-01-19T14:22:12Z</time>
      </trkpt>
      <trkpt lat="43.7612" lon="3.45565">
        <ele>695.17</ele>
        <time>2017-01-19T14:22:20Z</time>
      </trkpt>
      <trkpt lat="43.76138" lon="3.45549">
        <ele>695.17</ele>
        <time>2017-01-19T14:22:37Z</time>
      </trkpt>
      <trkpt lat="43.76156" lon="3.45537">
        <ele>695.65</ele>
        <time>2017-01-19T14:22:52Z</time>
      </trkpt>
      <trkpt lat="43.76164" lon="3.45533">
        <ele>695.65</ele>
        <time>2017-01-19T14:23:00Z</time>
      </trkpt>
      <trkpt lat="43.76187" lon="3.45537">
        <ele>696.13</ele>
        <time>2017-01-19T14:23:18Z</time>
      </trkpt>
      <trkpt lat="43.7621" lon="3.45535">
        <ele>696.13</ele>
        <time>2017-01-19T14:23:37Z</time>
      </trkpt>
      <trkpt lat="43.76235" lon="3.45542">
        <ele>696.61</ele>
        <time>2017-01-19T14:23:58Z</time>
      </trkpt>
      <trkpt lat="43.76254" lon="3.4554">
        <ele>697.09</ele>
        <time>2017-01-19T14:24:13Z</time>
      </trkpt>
      <trkpt lat="43.76272" lon="3.45536">
        <ele>698.05</ele>
        <time>2017-01-19T14:24:29Z</time>
      </trkpt>
      <trkpt lat="43.76277" lon="3.45534">
        <ele>698.05</ele>
        <time>2017-01-19T14:24:42Z</time>
      </trkpt>
      <trkpt lat="43.76278" lon="3.45528">
        <ele>698.53</ele>
        <time>2017-01-19T14:24:47Z</time>
      </trkpt>
      <trkpt lat="43.76287" lon="3.45522">
        <ele>699.5</ele>
        <time>2017-01-19T14:25:01Z</time>
      </trkpt>
      <trkpt lat="43.7629" lon="3.45508">
        <ele>698.53</ele>
        <time>2017-01-19T14:25:17Z</time>
      </trkpt>
      <trkpt lat="43.76293" lon="3.45486">
        <ele>696.61</ele>
        <time>2017-01-19T14:25:33Z</time>
      </trkpt>
      <trkpt lat="43.76307" lon="3.45475">
        <ele>695.17</ele>
        <time>2017-01-19T14:25:51Z</time>
      </trkpt>
      <trkpt lat="43.76317" lon="3.45469">
        <ele>692.77</ele>
        <time>2017-01-19T14:26:10Z</time>
      </trkpt>
      <trkpt lat="43.76333" lon="3.45464">
        <ele>689.4</ele>
        <time>2017-01-19T14:26:27Z</time>
      </trkpt>
      <trkpt lat="43.76347" lon="3.45462">
        <ele>687</ele>
        <time>2017-01-19T14:26:42Z</time>
      </trkpt>
      <trkpt lat="43.76351" lon="3.45459">
        <ele>686.52</ele>
        <time>2017-01-19T14:26:58Z</time>
      </trkpt>
      <trkpt lat="43.76357" lon="3.45456">
        <ele>685.08</ele>
        <time>2017-01-19T14:27:16Z</time>
      </trkpt>
      <trkpt lat="43.76369" lon="3.45453">
        <ele>681.71</ele>
        <time>2017-01-19T14:27:31Z</time>
      </trkpt>
      <trkpt lat="43.76379" lon="3.45452">
        <ele>678.83</ele>
        <time>2017-01-19T14:27:47Z</time>
      </trkpt>
      <trkpt lat="43.76366" lon="3.45441">
        <ele>675.94</ele>
        <time>2017-01-19T14:28:04Z</time>
      </trkpt>
      <trkpt lat="43.76361" lon="3.45441">
        <ele>674.02</ele>
        <time>2017-01-19T14:28:16Z</time>
      </trkpt>
      <trkpt lat="43.76373" lon="3.45437">
        <ele>672.58</ele>
        <time>2017-01-19T14:28:38Z</time>
      </trkpt>
      <trkpt lat="43.76373" lon="3.45424">
        <ele>669.7</ele>
        <time>2017-01-19T14:28:55Z</time>
      </trkpt>
      <trkpt lat="43.76378" lon="3.45413">
        <ele>667.29</ele>
        <time>2017-01-19T14:29:10Z</time>
      </trkpt>
      <trkpt lat="43.76375" lon="3.45399">
        <ele>664.89</ele>
        <time>2017-01-19T14:29:26Z</time>
      </trkpt>
      <trkpt lat="43.76375" lon="3.45396">
        <ele>664.41</ele>
        <time>2017-01-19T14:29:31Z</time>
      </trkpt>
      <trkpt lat="43.76375" lon="3.45393">
        <ele>663.93</ele>
        <time>2017-01-19T14:29:34Z</time>
      </trkpt>
      <trkpt lat="43.76368" lon="3.454">
        <ele>661.04</ele>
        <time>2017-01-19T14:29:48Z</time>
      </trkpt>
      <trkpt lat="43.76362" lon="3.45409">
        <ele>659.6</ele>
        <time>2017-01-19T14:30:03Z</time>
      </trkpt>
      <trkpt lat="43.76354" lon="3.45415">
        <ele>656.72</ele>
        <time>2017-01-19T14:30:21Z</time>
      </trkpt>
      <trkpt lat="43.76339" lon="3.45422">
        <ele>653.35</ele>
        <time>2017-01-19T14:30:39Z</time>
      </trkpt>
      <trkpt lat="43.76346" lon="3.45405">
        <ele>650.47</ele>
        <time>2017-01-19T14:30:56Z</time>
      </trkpt>
      <trkpt lat="43.76337" lon="3.45409">
        <ele>649.03</ele>
        <time>2017-01-19T14:31:08Z</time>
      </trkpt>
      <trkpt lat="43.7633" lon="3.45409">
        <ele>646.62</ele>
        <time>2017-01-19T14:31:21Z</time>
      </trkpt>
      <trkpt lat="43.76322" lon="3.45408">
        <ele>644.7</ele>
        <time>2017-01-19T14:31:33Z</time>
      </trkpt>
      <trkpt lat="43.76311" lon="3.45403">
        <ele>641.82</ele>
        <time>2017-01-19T14:31:49Z</time>
      </trkpt>
      <trkpt lat="43.76299" lon="3.45398">
        <ele>638.93</ele>
        <time>2017-01-19T14:32:05Z</time>
      </trkpt>
      <trkpt lat="43.7629" lon="3.45392">
        <ele>636.05</ele>
        <time>2017-01-19T14:32:17Z</time>
      </trkpt>
      <trkpt lat="43.76281" lon="3.45387">
        <ele>633.17</ele>
        <time>2017-01-19T14:32:30Z</time>
      </trkpt>
      <trkpt lat="43.7627" lon="3.4538">
        <ele>630.76</ele>
        <time>2017-01-19T14:32:42Z</time>
      </trkpt>
      <trkpt lat="43.76256" lon="3.45371">
        <ele>628.36</ele>
        <time>2017-01-19T14:32:59Z</time>
      </trkpt>
      <trkpt lat="43.76249" lon="3.4536">
        <ele>625.96</ele>
        <time>2017-01-19T14:33:13Z</time>
      </trkpt>
      <trkpt lat="43.76248" lon="3.45359">
        <ele>625.47</ele>
        <time>2017-01-19T14:33:16Z</time>
      </trkpt>
      <trkpt lat="43.7624" lon="3.45352">
        <ele>623.07</ele>
        <time>2017-01-19T14:33:29Z</time>
      </trkpt>
      <trkpt lat="43.76234" lon="3.45346">
        <ele>622.11</ele>
        <time>2017-01-19T14:33:44Z</time>
      </trkpt>
      <trkpt lat="43.76228" lon="3.4534">
        <ele>618.75</ele>
        <time>2017-01-19T14:33:58Z</time>
      </trkpt>
      <trkpt lat="43.76216" lon="3.45328">
        <ele>615.38</ele>
        <time>2017-01-19T14:34:16Z</time>
      </trkpt>
      <trkpt lat="43.76203" lon="3.45321">
        <ele>613.94</ele>
        <time>2017-01-19T14:34:30Z</time>
      </trkpt>
      <trkpt lat="43.76192" lon="3.4532">
        <ele>612.98</ele>
        <time>2017-01-19T14:34:41Z</time>
      </trkpt>
      <trkpt lat="43.76188" lon="3.4532">
        <ele>612.98</ele>
        <time>2017-01-19T14:34:43Z</time>
      </trkpt>
      <trkpt lat="43.76173" lon="3.45315">
        <ele>612.98</ele>
        <time>2017-01-19T14:34:56Z</time>
      </trkpt>
      <trkpt lat="43.76162" lon="3.45309">
        <ele>611.54</ele>
        <time>2017-01-19T14:35:07Z</time>
      </trkpt>
      <trkpt lat="43.7615" lon="3.45303">
        <ele>607.69</ele>
        <time>2017-01-19T14:35:21Z</time>
      </trkpt>
      <trkpt lat="43.7615" lon="3.45303">
        <ele>607.69</ele>
        <time>2017-01-19T14:35:22Z</time>
      </trkpt>
      <trkpt lat="43.76138" lon="3.453">
        <ele>605.77</ele>
        <time>2017-01-19T14:35:36Z</time>
      </trkpt>
      <trkpt lat="43.76131" lon="3.45304">
        <ele>606.25</ele>
        <time>2017-01-19T14:35:45Z</time>
      </trkpt>
      <trkpt lat="43.76116" lon="3.45307">
        <ele>603.36</ele>
        <time>2017-01-19T14:36:02Z</time>
      </trkpt>
      <trkpt lat="43.76108" lon="3.45305">
        <ele>600.48</ele>
        <time>2017-01-19T14:36:17Z</time>
      </trkpt>
      <trkpt lat="43.76103" lon="3.45296">
        <ele>597.12</ele>
        <time>2017-01-19T14:36:28Z</time>
      </trkpt>
      <trkpt lat="43.76101" lon="3.45281">
        <ele>593.75</ele>
        <time>2017-01-19T14:36:43Z</time>
      </trkpt>
      <trkpt lat="43.76102" lon="3.45281">
        <ele>594.23</ele>
        <time>2017-01-19T14:36:44Z</time>
      </trkpt>
      <trkpt lat="43.76111" lon="3.4527">
        <ele>591.35</ele>
        <time>2017-01-19T14:37:00Z</time>
      </trkpt>
      <trkpt lat="43.76108" lon="3.45256">
        <ele>589.43</ele>
        <time>2017-01-19T14:37:14Z</time>
      </trkpt>
      <trkpt lat="43.76121" lon="3.45238">
        <ele>587.5</ele>
        <time>2017-01-19T14:37:33Z</time>
      </trkpt>
      <trkpt lat="43.76134" lon="3.45224">
        <ele>585.58</ele>
        <time>2017-01-19T14:37:51Z</time>
      </trkpt>
      <trkpt lat="43.76134" lon="3.45222">
        <ele>585.1</ele>
        <time>2017-01-19T14:38:05Z</time>
      </trkpt>
      <trkpt lat="43.76132" lon="3.45225">
        <ele>585.1</ele>
        <time>2017-01-19T14:38:21Z</time>
      </trkpt>
      <trkpt lat="43.76129" lon="3.45224">
        <ele>585.1</ele>
        <time>2017-01-19T14:38:41Z</time>
      </trkpt>
      <trkpt lat="43.76127" lon="3.45213">
        <ele>584.62</ele>
        <time>2017-01-19T14:38:52Z</time>
      </trkpt>
      <trkpt lat="43.76128" lon="3.45211">
        <ele>584.14</ele>
        <time>2017-01-19T14:39:02Z</time>
      </trkpt>
      <trkpt lat="43.76135" lon="3.4522">
        <ele>585.1</ele>
        <time>2017-01-19T14:39:14Z</time>
      </trkpt>
      <trkpt lat="43.7614" lon="3.4523">
        <ele>585.58</ele>
        <time>2017-01-19T14:39:26Z</time>
      </trkpt>
      <trkpt lat="43.76147" lon="3.45231">
        <ele>585.58</ele>
        <time>2017-01-19T14:39:39Z</time>
      </trkpt>
      <trkpt lat="43.76154" lon="3.45234">
        <ele>586.06</ele>
        <time>2017-01-19T14:39:51Z</time>
      </trkpt>
      <trkpt lat="43.76157" lon="3.45233">
        <ele>586.06</ele>
        <time>2017-01-19T14:40:06Z</time>
      </trkpt>
      <trkpt lat="43.76161" lon="3.45233">
        <ele>584.62</ele>
        <time>2017-01-19T14:40:31Z</time>
      </trkpt>
      <trkpt lat="43.76163" lon="3.45232">
        <ele>583.66</ele>
        <time>2017-01-19T14:40:34Z</time>
      </trkpt>
      <trkpt lat="43.76183" lon="3.45223">
        <ele>581.73</ele>
        <time>2017-01-19T14:40:50Z</time>
      </trkpt>
      <trkpt lat="43.76201" lon="3.4522">
        <ele>580.77</ele>
        <time>2017-01-19T14:41:06Z</time>
      </trkpt>
      <trkpt lat="43.7622" lon="3.45226">
        <ele>579.81</ele>
        <time>2017-01-19T14:41:22Z</time>
      </trkpt>
      <trkpt lat="43.76229" lon="3.45222">
        <ele>577.89</ele>
        <time>2017-01-19T14:41:36Z</time>
      </trkpt>
      <trkpt lat="43.76226" lon="3.45208">
        <ele>579.81</ele>
        <time>2017-01-19T14:41:54Z</time>
      </trkpt>
      <trkpt lat="43.76224" lon="3.452">
        <ele>579.33</ele>
        <time>2017-01-19T14:42:14Z</time>
      </trkpt>
      <trkpt lat="43.76223" lon="3.45191">
        <ele>578.37</ele>
        <time>2017-01-19T14:42:28Z</time>
      </trkpt>
      <trkpt lat="43.76222" lon="3.45183">
        <ele>577.89</ele>
        <time>2017-01-19T14:42:48Z</time>
      </trkpt>
      <trkpt lat="43.76218" lon="3.45168">
        <ele>580.29</ele>
        <time>2017-01-19T14:43:03Z</time>
      </trkpt>
      <trkpt lat="43.76212" lon="3.45157">
        <ele>581.73</ele>
        <time>2017-01-19T14:43:17Z</time>
      </trkpt>
      <trkpt lat="43.76203" lon="3.4515">
        <ele>582.7</ele>
        <time>2017-01-19T14:43:29Z</time>
      </trkpt>
      <trkpt lat="43.76189" lon="3.45138">
        <ele>582.22</ele>
        <time>2017-01-19T14:43:46Z</time>
      </trkpt>
      <trkpt lat="43.76178" lon="3.45124">
        <ele>579.81</ele>
        <time>2017-01-19T14:44:01Z</time>
      </trkpt>
      <trkpt lat="43.76168" lon="3.45109">
        <ele>577.41</ele>
        <time>2017-01-19T14:44:17Z</time>
      </trkpt>
      <trkpt lat="43.76162" lon="3.45095">
        <ele>575.97</ele>
        <time>2017-01-19T14:44:31Z</time>
      </trkpt>
      <trkpt lat="43.76161" lon="3.45082">
        <ele>575.97</ele>
        <time>2017-01-19T14:44:47Z</time>
      </trkpt>
      <trkpt lat="43.76152" lon="3.45075">
        <ele>574.53</ele>
        <time>2017-01-19T14:45:01Z</time>
      </trkpt>
      <trkpt lat="43.76143" lon="3.45063">
        <ele>572.6</ele>
        <time>2017-01-19T14:45:17Z</time>
      </trkpt>
      <trkpt lat="43.76134" lon="3.45054">
        <ele>570.2</ele>
        <time>2017-01-19T14:45:32Z</time>
      </trkpt>
      <trkpt lat="43.76126" lon="3.45043">
        <ele>567.8</ele>
        <time>2017-01-19T14:45:48Z</time>
      </trkpt>
      <trkpt lat="43.76115" lon="3.45029">
        <ele>565.39</ele>
        <time>2017-01-19T14:46:03Z</time>
      </trkpt>
      <trkpt lat="43.76107" lon="3.45016">
        <ele>562.99</ele>
        <time>2017-01-19T14:46:19Z</time>
      </trkpt>
      <trkpt lat="43.76102" lon="3.45007">
        <ele>561.07</ele>
        <time>2017-01-19T14:46:30Z</time>
      </trkpt>
      <trkpt lat="43.76094" lon="3.45001">
        <ele>559.14</ele>
        <time>2017-01-19T14:46:42Z</time>
      </trkpt>
      <trkpt lat="43.76089" lon="3.45002">
        <ele>557.22</ele>
        <time>2017-01-19T14:46:53Z</time>
      </trkpt>
      <trkpt lat="43.76085" lon="3.44995">
        <ele>554.82</ele>
        <time>2017-01-19T14:47:03Z</time>
      </trkpt>
      <trkpt lat="43.7608" lon="3.44978">
        <ele>551.93</ele>
        <time>2017-01-19T14:47:21Z</time>
      </trkpt>
      <trkpt lat="43.76075" lon="3.44956">
        <ele>549.05</ele>
        <time>2017-01-19T14:47:40Z</time>
      </trkpt>
      <trkpt lat="43.76068" lon="3.44938">
        <ele>546.65</ele>
        <time>2017-01-19T14:47:57Z</time>
      </trkpt>
      <trkpt lat="43.76059" lon="3.44916">
        <ele>544.72</ele>
        <time>2017-01-19T14:48:15Z</time>
      </trkpt>
      <trkpt lat="43.76058" lon="3.44913">
        <ele>544.72</ele>
        <time>2017-01-19T14:48:17Z</time>
      </trkpt>
      <trkpt lat="43.76046" lon="3.44878">
        <ele>543.76</ele>
        <time>2017-01-19T14:48:40Z</time>
      </trkpt>
      <trkpt lat="43.76032" lon="3.4486">
        <ele>540.88</ele>
        <time>2017-01-19T14:48:59Z</time>
      </trkpt>
      <trkpt lat="43.76018" lon="3.44848">
        <ele>537.51</ele>
        <time>2017-01-19T14:49:16Z</time>
      </trkpt>
      <trkpt lat="43.76008" lon="3.44838">
        <ele>534.15</ele>
        <time>2017-01-19T14:49:32Z</time>
      </trkpt>
      <trkpt lat="43.76001" lon="3.44825">
        <ele>531.27</ele>
        <time>2017-01-19T14:49:48Z</time>
      </trkpt>
      <trkpt lat="43.75994" lon="3.44815">
        <ele>528.38</ele>
        <time>2017-01-19T14:50:05Z</time>
      </trkpt>
      <trkpt lat="43.75982" lon="3.44809">
        <ele>525.02</ele>
        <time>2017-01-19T14:50:21Z</time>
      </trkpt>
      <trkpt lat="43.75973" lon="3.44802">
        <ele>522.13</ele>
        <time>2017-01-19T14:50:36Z</time>
      </trkpt>
      <trkpt lat="43.75964" lon="3.44788">
        <ele>518.77</ele>
        <time>2017-01-19T14:50:55Z</time>
      </trkpt>
      <trkpt lat="43.7595" lon="3.44775">
        <ele>515.4</ele>
        <time>2017-01-19T14:51:13Z</time>
      </trkpt>
      <trkpt lat="43.75933" lon="3.44765">
        <ele>512.52</ele>
        <time>2017-01-19T14:51:31Z</time>
      </trkpt>
      <trkpt lat="43.75921" lon="3.44763">
        <ele>509.16</ele>
        <time>2017-01-19T14:51:49Z</time>
      </trkpt>
      <trkpt lat="43.7591" lon="3.44757">
        <ele>506.27</ele>
        <time>2017-01-19T14:52:05Z</time>
      </trkpt>
      <trkpt lat="43.75905" lon="3.44742">
        <ele>502.91</ele>
        <time>2017-01-19T14:52:23Z</time>
      </trkpt>
      <trkpt lat="43.75905" lon="3.44725">
        <ele>500.98</ele>
        <time>2017-01-19T14:52:43Z</time>
      </trkpt>
      <trkpt lat="43.75904" lon="3.44723">
        <ele>500.98</ele>
        <time>2017-01-19T14:53:04Z</time>
      </trkpt>
      <trkpt lat="43.75903" lon="3.44723">
        <ele>501.46</ele>
        <time>2017-01-19T14:53:33Z</time>
      </trkpt>
      <trkpt lat="43.75899" lon="3.44717">
        <ele>500.5</ele>
        <time>2017-01-19T14:54:00Z</time>
      </trkpt>
      <trkpt lat="43.75893" lon="3.44711">
        <ele>499.54</ele>
        <time>2017-01-19T14:54:09Z</time>
      </trkpt>
      <trkpt lat="43.75887" lon="3.44707">
        <ele>499.06</ele>
        <time>2017-01-19T14:54:15Z</time>
      </trkpt>
      <trkpt lat="43.75873" lon="3.44691">
        <ele>497.14</ele>
        <time>2017-01-19T14:54:31Z</time>
      </trkpt>
      <trkpt lat="43.75859" lon="3.4467">
        <ele>494.26</ele>
        <time>2017-01-19T14:54:49Z</time>
      </trkpt>
      <trkpt lat="43.75855" lon="3.44665">
        <ele>493.77</ele>
        <time>2017-01-19T14:54:55Z</time>
      </trkpt>
      <trkpt lat="43.75845" lon="3.44647">
        <ele>491.37</ele>
        <time>2017-01-19T14:55:11Z</time>
      </trkpt>
      <trkpt lat="43.75834" lon="3.44625">
        <ele>488.97</ele>
        <time>2017-01-19T14:55:29Z</time>
      </trkpt>
      <trkpt lat="43.75826" lon="3.44596">
        <ele>486.08</ele>
        <time>2017-01-19T14:55:47Z</time>
      </trkpt>
      <trkpt lat="43.75825" lon="3.44587">
        <ele>486.08</ele>
        <time>2017-01-19T14:55:52Z</time>
      </trkpt>
      <trkpt lat="43.75824" lon="3.44581">
        <ele>485.6</ele>
        <time>2017-01-19T14:55:56Z</time>
      </trkpt>
      <trkpt lat="43.75815" lon="3.44558">
        <ele>484.16</ele>
        <time>2017-01-19T14:56:12Z</time>
      </trkpt>
      <trkpt lat="43.7581" lon="3.44546">
        <ele>482.72</ele>
        <time>2017-01-19T14:56:20Z</time>
      </trkpt>
      <trkpt lat="43.75801" lon="3.44521">
        <ele>480.32</ele>
        <time>2017-01-19T14:56:37Z</time>
      </trkpt>
      <trkpt lat="43.75798" lon="3.44491">
        <ele>477.91</ele>
        <time>2017-01-19T14:56:55Z</time>
      </trkpt>
      <trkpt lat="43.75796" lon="3.4446">
        <ele>475.51</ele>
        <time>2017-01-19T14:57:13Z</time>
      </trkpt>
      <trkpt lat="43.75791" lon="3.44429">
        <ele>472.63</ele>
        <time>2017-01-19T14:57:32Z</time>
      </trkpt>
      <trkpt lat="43.75786" lon="3.44401">
        <ele>470.22</ele>
        <time>2017-01-19T14:57:50Z</time>
      </trkpt>
      <trkpt lat="43.75777" lon="3.44373">
        <ele>467.82</ele>
        <time>2017-01-19T14:58:06Z</time>
      </trkpt>
      <trkpt lat="43.75761" lon="3.44353">
        <ele>465.9</ele>
        <time>2017-01-19T14:58:23Z</time>
      </trkpt>
      <trkpt lat="43.75749" lon="3.44345">
        <ele>464.45</ele>
        <time>2017-01-19T14:58:34Z</time>
      </trkpt>
      <trkpt lat="43.75736" lon="3.4433">
        <ele>462.53</ele>
        <time>2017-01-19T14:58:49Z</time>
      </trkpt>
      <trkpt lat="43.75729" lon="3.44319">
        <ele>461.57</ele>
        <time>2017-01-19T14:58:56Z</time>
      </trkpt>
      <trkpt lat="43.75716" lon="3.44257">
        <ele>460.61</ele>
        <time>2017-01-19T14:59:32Z</time>
      </trkpt>
      <trkpt lat="43.75711" lon="3.44227">
        <ele>459.17</ele>
        <time>2017-01-19T14:59:51Z</time>
      </trkpt>
      <trkpt lat="43.75701" lon="3.4419">
        <ele>457.72</ele>
        <time>2017-01-19T15:00:12Z</time>
      </trkpt>
      <trkpt lat="43.75703" lon="3.44162">
        <ele>454.84</ele>
        <time>2017-01-19T15:00:30Z</time>
      </trkpt>
      <trkpt lat="43.75703" lon="3.44161">
        <ele>454.84</ele>
        <time>2017-01-19T15:00:31Z</time>
      </trkpt>
      <trkpt lat="43.75701" lon="3.44152">
        <ele>453.4</ele>
        <time>2017-01-19T15:00:38Z</time>
      </trkpt>
      <trkpt lat="43.75695" lon="3.44137">
        <ele>451</ele>
        <time>2017-01-19T15:00:55Z</time>
      </trkpt>
      <trkpt lat="43.75693" lon="3.44132">
        <ele>450.03</ele>
        <time>2017-01-19T15:01:10Z</time>
      </trkpt>
      <trkpt lat="43.75691" lon="3.44131">
        <ele>449.55</ele>
        <time>2017-01-19T15:01:16Z</time>
      </trkpt>
      <trkpt lat="43.75685" lon="3.44136">
        <ele>448.11</ele>
        <time>2017-01-19T15:01:30Z</time>
      </trkpt>
      <trkpt lat="43.75685" lon="3.44139">
        <ele>449.07</ele>
        <time>2017-01-19T15:01:42Z</time>
      </trkpt>
      <trkpt lat="43.75683" lon="3.44137">
        <ele>449.07</ele>
        <time>2017-01-19T15:01:55Z</time>
      </trkpt>
      <trkpt lat="43.75682" lon="3.44137">
        <ele>449.07</ele>
        <time>2017-01-19T15:02:23Z</time>
      </trkpt>
      <trkpt lat="43.75684" lon="3.44136">
        <ele>449.07</ele>
        <time>2017-01-19T15:02:55Z</time>
      </trkpt>
      <trkpt lat="43.75683" lon="3.44137">
        <ele>449.07</ele>
        <time>2017-01-19T15:03:08Z</time>
      </trkpt>
      <trkpt lat="43.75685" lon="3.44137">
        <ele>449.07</ele>
        <time>2017-01-19T15:03:19Z</time>
      </trkpt>
      <trkpt lat="43.75687" lon="3.4414">
        <ele>449.07</ele>
        <time>2017-01-19T15:03:31Z</time>
      </trkpt>
      <trkpt lat="43.75687" lon="3.44141">
        <ele>448.59</ele>
        <time>2017-01-19T15:03:46Z</time>
      </trkpt>
      <trkpt lat="43.75687" lon="3.44146">
        <ele>448.11</ele>
        <time>2017-01-19T15:04:21Z</time>
      </trkpt>
      <trkpt lat="43.75688" lon="3.44138">
        <ele>448.59</ele>
        <time>2017-01-19T15:04:56Z</time>
      </trkpt>
      <trkpt lat="43.75687" lon="3.44141">
        <ele>448.59</ele>
        <time>2017-01-19T15:05:32Z</time>
      </trkpt>
      <trkpt lat="43.75684" lon="3.44139">
        <ele>448.59</ele>
        <time>2017-01-19T15:05:44Z</time>
      </trkpt>
      <trkpt lat="43.75683" lon="3.44137">
        <ele>449.07</ele>
        <time>2017-01-19T15:05:55Z</time>
      </trkpt>
      <trkpt lat="43.75683" lon="3.44137">
        <ele>448.59</ele>
        <time>2017-01-19T15:06:09Z</time>
      </trkpt>
      <trkpt lat="43.75684" lon="3.44137">
        <ele>449.07</ele>
        <time>2017-01-19T15:06:22Z</time>
      </trkpt>
      <trkpt lat="43.75685" lon="3.44138">
        <ele>449.55</ele>
        <time>2017-01-19T15:06:35Z</time>
      </trkpt>
      <trkpt lat="43.75684" lon="3.44138">
        <ele>449.55</ele>
        <time>2017-01-19T15:06:56Z</time>
      </trkpt>
      <trkpt lat="43.75685" lon="3.44134">
        <ele>449.55</ele>
        <time>2017-01-19T15:07:10Z</time>
      </trkpt>
    </trkseg>
  </trk>
</gpx>